[[{"header":{"parameterUnit":"m.s-1","parameterCategory":1,"la1":30.6,"la2":29.2853,"lo1":-89.7004,"lo2":-87.6739,"dy":0.0162,"dx":0.0183,"nx":112,"ny":82,"refTime":"2026-05-19T00:00:00:Z","depth":0,"parameterNumber":2,"parameterNumberName":"U-component_of_WINDS"},"data":[0.0,0.0,0.0,0.0,0.0,0.0,0.0,0.0,0.0,0.0,0.0,0.0,0.0,0.0,0.0,0.0,0.0,0.0,0.0,0.0,0.0,0.0,0.0,0.0,0.0,0.0,0.0,0.0,0.0,0.0,0.0,0.0,0.0,0.0,0.0,0.0,0.0,0.0,0.0,0.0,0.0,0.0,0.0,0.0,0.0,0.0,0.0,0.0,0.0,0.0,0.0,0.0,0.0,0.0,0.0,0.0,0.0,0.0,0.0,0.0,0.0,0.0,0.0,0.0,0.0,0.0,0.0,0.0,0.0,0.0,0.0,0.0,0.0,0.0,0.0,0.0,0.0,0.0,0.0,0.0,0.0,0.0,0.0,0.0,0.0,0.0,0.0,0.0,0.0,0.0,-2.6794,-2.8577,-3.0594,-3.1799,-3.1794,-3.0032,-2.754,-2.4315,0.0,0.0,0.0,0.0,0.0,0.0,0.0,0.0,0.0,0.0,0.0,0.0,0.0,0.0,0.0,0.0,0.0,0.0,0.0,0.0,0.0,0.0,0.0,0.0,0.0,0.0,0.0,0.0,0.0,0.0,0.0,0.0,0.0,0.0,0.0,0.0,0.0,0.0,0.0,0.0,0.0,0.0,0.0,0.0,0.0,0.0,0.0,0.0,0.0,0.0,0.0,0.0,0.0,0.0,0.0,0.0,0.0,0.0,0.0,0.0,0.0,0.0,0.0,0.0,0.0,0.0,0.0,0.0,0.0,0.0,0.0,0.0,0.0,0.0,0.0,0.0,0.0,0.0,0.0,0.0,0.0,0.0,0.0,0.0,0.0,0.0,0.0,0.0,0.0,0.0,0.0,0.0,0.0,0.0,0.0,0.0,0.0,0.0,0.0,0.0,0.0,0.0,0.0,0.0,-2.8781,-3.1092,-3.1627,-3.1794,-3.18,-2.952,-2.6969,-2.4344,0.0,0.0,0.0,0.0,0.0,0.0,0.0,0.0,0.0,0.0,0.0,0.0,0.0,0.0,0.0,0.0,0.0,0.0,0.0,0.0,0.0,0.0,0.0,0.0,0.0,0.0,0.0,0.0,0.0,0.0,0.0,0.0,0.0,0.0,0.0,0.0,0.0,0.0,0.0,0.0,0.0,0.0,0.0,0.0,0.0,0.0,0.0,0.0,0.0,0.0,0.0,0.0,0.0,0.0,0.0,0.0,0.0,0.0,0.0,0.0,0.0,0.0,0.0,0.0,0.0,0.0,0.0,0.0,0.0,0.0,0.0,0.0,0.0,0.0,0.0,0.0,0.0,0.0,0.0,0.0,0.0,0.0,0.0,0.0,0.0,0.0,0.0,0.0,0.0,0.0,0.0,0.0,0.0,0.0,0.0,0.0,0.0,0.0,0.0,0.0,0.0,0.0,0.0,-2.5344,-2.7898,-3.0835,-3.1076,-3.0854,-3.0423,-2.8854,-2.6429,-2.3005,-2.1131,0.0,0.0,0.0,0.0,0.0,0.0,0.0,0.0,0.0,0.0,0.0,0.0,0.0,0.0,0.0,0.0,0.0,0.0,0.0,0.0,0.0,0.0,0.0,0.0,0.0,0.0,0.0,0.0,0.0,0.0,0.0,0.0,0.0,0.0,0.0,0.0,0.0,0.0,0.0,0.0,0.0,0.0,0.0,0.0,0.0,0.0,0.0,0.0,0.0,0.0,0.0,0.0,0.0,0.0,0.0,0.0,0.0,0.0,0.0,0.0,0.0,0.0,0.0,0.0,0.0,0.0,0.0,0.0,0.0,0.0,0.0,0.0,0.0,0.0,0.0,0.0,0.0,0.0,0.0,0.0,0.0,0.0,0.0,0.0,0.0,0.0,0.0,0.0,0.0,0.0,0.0,0.0,0.0,0.0,0.0,0.0,0.0,0.0,0.0,0.0,0.0,0.0,-2.5559,-2.6948,-2.9924,-3.0153,-2.9871,-2.9326,-2.7883,-2.5462,-2.1869,-1.9435,0.0,0.0,0.0,0.0,0.0,0.0,0.0,0.0,0.0,0.0,0.0,0.0,0.0,0.0,0.0,0.0,0.0,0.0,0.0,0.0,0.0,0.0,0.0,0.0,0.0,0.0,0.0,0.0,0.0,0.0,0.0,0.0,0.0,0.0,0.0,0.0,0.0,0.0,0.0,0.0,0.0,0.0,0.0,0.0,0.0,0.0,0.0,0.0,0.0,0.0,0.0,0.0,0.0,0.0,0.0,0.0,0.0,0.0,0.0,0.0,0.0,0.0,0.0,0.0,0.0,0.0,0.0,0.0,0.0,0.0,0.0,0.0,0.0,0.0,0.0,0.0,0.0,0.0,0.0,0.0,0.0,0.0,0.0,0.0,0.0,0.0,0.0,0.0,0.0,0.0,0.0,0.0,0.0,0.0,0.0,0.0,0.0,0.0,0.0,0.0,0.0,0.0,-2.5583,-2.7429,-2.9277,-2.9302,-2.9278,-2.9462,-2.633,-2.3634,-2.1893,-1.7876,0.0,0.0,0.0,0.0,0.0,0.0,0.0,0.0,0.0,0.0,0.0,0.0,0.0,0.0,0.0,0.0,0.0,0.0,0.0,0.0,0.0,0.0,0.0,0.0,0.0,0.0,0.0,0.0,0.0,0.0,0.0,0.0,0.0,0.0,0.0,0.0,0.0,0.0,0.0,0.0,0.0,0.0,0.0,0.0,0.0,0.0,0.0,0.0,0.0,0.0,0.0,0.0,0.0,0.0,0.0,0.0,0.0,0.0,0.0,0.0,0.0,0.0,0.0,0.0,0.0,0.0,0.0,0.0,0.0,0.0,0.0,0.0,0.0,0.0,0.0,0.0,0.0,0.0,0.0,0.0,0.0,0.0,0.0,0.0,0.0,0.0,0.0,0.0,0.0,0.0,0.0,0.0,0.0,0.0,0.0,0.0,0.0,0.0,0.0,0.0,0.0,0.0,-2.3616,-2.5471,-2.8235,-2.8497,-2.8301,-2.7912,-2.6092,-2.3838,-2.1157,0.0,0.0,0.0,0.0,0.0,0.0,0.0,0.0,0.0,0.0,0.0,0.0,0.0,0.0,0.0,0.0,0.0,0.0,0.0,0.0,0.0,0.0,0.0,0.0,0.0,0.0,0.0,0.0,0.0,0.0,0.0,0.0,0.0,0.0,0.0,0.0,0.0,0.0,0.0,0.0,0.0,0.0,0.0,0.0,0.0,0.0,0.0,0.0,0.0,0.0,0.0,0.0,0.0,0.0,0.0,0.0,0.0,0.0,0.0,0.0,0.0,0.0,0.0,0.0,0.0,0.0,0.0,0.0,0.0,0.0,0.0,0.0,0.0,0.0,0.0,0.0,0.0,0.0,0.0,0.0,0.0,0.0,0.0,0.0,0.0,0.0,0.0,0.0,0.0,0.0,0.0,0.0,0.0,0.0,0.0,0.0,0.0,0.0,0.0,0.0,0.0,0.0,-2.0718,-2.251,-2.4483,-2.732,-2.766,-2.7376,-2.6583,-2.5164,-2.2991,-1.9895,0.0,0.0,0.0,0.0,0.0,0.0,0.0,0.0,0.0,0.0,0.0,0.0,0.0,0.0,0.0,0.0,0.0,0.0,0.0,0.0,0.0,0.0,0.0,0.0,0.0,0.0,0.0,0.0,0.0,0.0,0.0,0.0,0.0,0.0,0.0,0.0,0.0,0.0,0.0,0.0,0.0,0.0,0.0,0.0,0.0,0.0,0.0,0.0,0.0,0.0,0.0,0.0,0.0,0.0,0.0,0.0,0.0,0.0,0.0,0.0,0.0,0.0,0.0,0.0,0.0,0.0,0.0,0.0,0.0,0.0,0.0,0.0,0.0,0.0,0.0,0.0,0.0,0.0,0.0,0.0,0.0,0.0,0.0,0.0,0.0,0.0,0.0,0.0,0.0,0.0,0.0,0.0,0.0,0.0,0.0,0.0,0.0,0.0,0.0,0.0,0.0,0.0,-1.9929,-2.2654,-2.4934,-2.6595,-2.677,-2.6482,-2.5742,-2.3291,-2.0708,0.0,0.0,0.0,0.0,0.0,0.0,0.0,0.0,0.0,0.0,0.0,0.0,0.0,0.0,0.0,0.0,0.0,0.0,0.0,0.0,0.0,0.0,0.0,0.0,0.0,0.0,0.0,0.0,0.0,0.0,0.0,0.0,0.0,0.0,0.0,0.0,0.0,0.0,0.0,0.0,0.0,0.0,0.0,0.0,0.0,0.0,0.0,0.0,0.0,0.0,0.0,0.0,0.0,0.0,0.0,0.0,0.0,0.0,0.0,0.0,0.0,0.0,0.0,0.0,0.0,0.0,0.0,0.0,0.0,0.0,0.0,0.0,0.0,0.0,0.0,0.0,0.0,0.0,0.0,0.0,0.0,0.0,0.0,0.0,0.0,0.0,0.0,0.0,0.0,0.0,0.0,0.0,0.0,0.0,0.0,0.0,0.0,0.0,0.0,0.0,0.0,0.0,0.0,-1.8216,-2.1477,-2.3912,-2.4925,-2.5086,-2.5014,-2.4805,-2.2421,-2.0116,-1.8125,0.0,0.0,0.0,0.0,0.0,0.0,0.0,0.0,0.0,0.0,0.0,0.0,0.0,0.0,0.0,0.0,0.0,0.0,0.0,0.0,0.0,0.0,0.0,0.0,0.0,0.0,0.0,0.0,0.0,0.0,0.0,0.0,0.0,0.0,0.0,0.0,0.0,0.0,0.0,0.0,0.0,0.0,0.0,0.0,0.0,0.0,0.0,0.0,0.0,0.0,0.0,0.0,0.0,0.0,0.0,0.0,0.0,0.0,0.0,0.0,0.0,0.0,0.0,0.0,0.0,0.0,0.0,0.0,0.0,0.0,0.0,0.0,0.0,0.0,0.0,0.0,0.0,0.0,0.0,0.0,0.0,0.0,0.0,0.0,0.0,0.0,0.0,0.0,0.0,0.0,0.0,0.0,0.0,0.0,0.0,0.0,0.0,0.0,0.0,0.0,0.0,0.0,-1.7529,-2.0672,-2.2965,-2.374,-2.3878,-2.3789,-2.3437,-2.168,-1.9707,-1.7617,0.0,0.0,0.0,0.0,0.0,0.0,0.0,0.0,0.0,0.0,0.0,0.0,0.0,0.0,0.0,0.0,0.0,0.0,0.0,0.0,0.0,0.0,0.0,0.0,0.0,0.0,0.0,0.0,0.0,0.0,0.0,0.0,0.0,0.0,0.0,0.0,0.0,0.0,0.0,0.0,0.0,0.0,0.0,0.0,0.0,0.0,0.0,0.0,0.0,0.0,0.0,0.0,0.0,0.0,0.0,0.0,0.0,0.0,0.0,0.0,0.0,0.0,0.0,0.0,0.0,0.0,0.0,0.0,0.0,0.0,0.0,0.0,0.0,0.0,0.0,0.0,0.0,0.0,0.0,0.0,0.0,0.0,0.0,0.0,0.0,0.0,0.0,0.0,0.0,0.0,0.0,0.0,0.0,0.0,0.0,0.0,0.0,0.0,0.0,0.0,0.0,0.0,-1.7332,-2.0073,-2.2088,-2.2888,-2.3043,-2.2754,-2.1973,-2.0957,-1.9316,-1.6855,0.0,0.0,0.0,0.0,0.0,0.0,0.0,0.0,0.0,0.0,0.0,0.0,0.0,0.0,0.0,0.0,0.0,0.0,0.0,0.0,0.0,0.0,0.0,0.0,0.0,0.0,0.0,0.0,0.0,0.0,0.0,0.0,0.0,0.0,0.0,0.0,0.0,0.0,0.0,0.0,0.0,0.0,0.0,0.0,0.0,0.0,0.0,0.0,0.0,0.0,0.0,0.0,0.0,0.0,0.0,0.0,0.0,0.0,0.0,0.0,-2.1769,0.0,0.0,0.0,0.0,0.0,0.0,0.0,0.0,0.0,0.0,0.0,0.0,0.0,0.0,0.0,0.0,0.0,0.0,0.0,0.0,0.0,0.0,0.0,0.0,0.0,0.0,0.0,0.0,0.0,0.0,0.0,0.0,0.0,0.0,0.0,0.0,0.0,0.0,0.0,0.0,0.0,-1.5619,-1.8824,-2.119,-2.1995,-2.2145,-2.2109,-2.1914,-1.9844,-1.8027,-1.6777,-1.3672,0.0,0.0,0.0,0.0,0.0,0.0,0.0,0.0,0.0,0.0,0.0,0.0,0.0,0.0,0.0,0.0,0.0,0.0,0.0,0.0,0.0,0.0,0.0,0.0,0.0,0.0,0.0,0.0,0.0,0.0,0.0,0.0,0.0,0.0,0.0,0.0,0.0,0.0,0.0,0.0,0.0,0.0,0.0,0.0,0.0,0.0,0.0,0.0,0.0,0.0,0.0,0.0,0.0,0.0,0.0,0.0,0.0,0.0,0.0,0.0,-2.3783,0.0,0.0,0.0,0.0,0.0,0.0,0.0,0.0,0.0,0.0,0.0,0.0,0.0,0.0,0.0,0.0,0.0,0.0,0.0,0.0,0.0,0.0,0.0,0.0,0.0,0.0,0.0,0.0,0.0,0.0,0.0,0.0,0.0,0.0,0.0,0.0,0.0,0.0,0.0,0.0,-1.5697,-1.8339,-2.0293,-2.1128,-2.1249,-2.1289,-2.1289,-1.9258,-1.7812,-1.7344,-1.4473,0.0,0.0,0.0,0.0,0.0,0.0,0.0,0.0,0.0,0.0,0.0,0.0,0.0,0.0,0.0,0.0,0.0,0.0,0.0,0.0,0.0,0.0,0.0,0.0,0.0,0.0,0.0,0.0,0.0,0.0,0.0,0.0,0.0,0.0,0.0,0.0,0.0,0.0,0.0,0.0,0.0,0.0,0.0,0.0,0.0,0.0,0.0,0.0,0.0,0.0,0.0,0.0,0.0,-2.9005,-2.9005,-2.9005,-2.9005,-2.9005,-2.8858,-2.619,-2.5034,-2.4777,0.0,0.0,0.0,0.0,0.0,0.0,0.0,0.0,0.0,0.0,0.0,0.0,0.0,0.0,0.0,0.0,0.0,0.0,0.0,0.0,0.0,0.0,0.0,0.0,0.0,-1.8009,-1.745,0.0,0.0,0.0,0.0,0.0,0.0,0.0,0.0,0.0,0.0,0.0,0.0,-1.6348,-1.8086,-1.9473,-2.0488,-2.0469,-2.0371,-2.0371,-1.8789,-1.7773,-1.7773,-1.5469,-1.3477,0.0,0.0,0.0,0.0,0.0,0.0,0.0,0.0,0.0,0.0,0.0,0.0,0.0,0.0,0.0,0.0,0.0,0.0,0.0,0.0,0.0,0.0,0.0,0.0,0.0,0.0,0.0,0.0,0.0,0.0,0.0,0.0,-1.8564,-1.8665,0.0,0.0,0.0,0.0,0.0,0.0,0.0,0.0,0.0,0.0,0.0,0.0,0.0,-2.4905,-2.7684,-2.8143,-2.8583,-2.9005,-2.9005,-2.9005,-2.9005,-2.9005,-2.9005,-2.8987,-2.8546,0.0,-2.8124,-2.4887,0.0,0.0,0.0,0.0,0.0,0.0,0.0,0.0,0.0,0.0,0.0,0.0,0.0,0.0,0.0,0.0,0.0,0.0,0.0,0.0,0.0,0.0,-1.9504,-1.8964,-1.8838,-1.8771,0.0,-1.6757,-1.4916,-1.3805,-1.2515,0.0,0.0,0.0,0.0,0.0,0.0,0.0,-1.6269,-1.7559,-1.8809,-2.043,-1.9922,-1.9473,-1.9473,-1.7871,-1.6875,-1.6875,-1.5137,-1.4004,-1.3789,-1.1641,0.0,0.0,0.0,0.0,0.0,0.0,0.0,0.0,0.0,0.0,0.0,0.0,0.0,0.0,0.0,0.0,0.0,0.0,0.0,0.0,0.0,0.0,0.0,0.0,0.0,0.0,0.0,0.0,0.0,-1.8821,-2.0997,-2.0997,-2.0997,-1.9647,0.0,0.0,0.0,0.0,0.0,0.0,0.0,0.0,0.0,-2.5563,-2.6452,-2.7574,-2.8987,-3.0785,-3.1702,-3.1702,-3.1702,-3.1702,-3.1641,-2.9812,-2.9005,-2.9005,-2.9005,-2.9005,-2.8895,-2.7482,-2.4979,-2.1746,0.0,0.0,0.0,0.0,0.0,-2.2489,-2.2489,-2.3457,0.0,0.0,0.0,0.0,0.0,0.0,0.0,0.0,0.0,0.0,0.0,0.0,0.0,-1.9692,-1.9723,-1.9746,-1.9771,-1.8579,-1.6938,0.0,-1.4589,-1.3688,-1.1378,0.0,0.0,0.0,0.0,-1.4629,-1.7109,-1.8184,-1.9023,-1.9785,-1.9531,-1.9102,-1.8613,-1.7422,-1.6699,-1.6699,-1.5527,-1.4609,-1.4121,-1.3025,-1.1753,0.0,0.0,0.0,0.0,0.0,0.0,0.0,0.0,0.0,0.0,0.0,0.0,0.0,0.0,0.0,0.0,0.0,0.0,0.0,0.0,0.0,0.0,0.0,0.0,0.0,0.0,0.0,0.0,-2.064,-2.2431,-2.2818,-2.3207,-2.226,0.0,0.0,0.0,0.0,0.0,0.0,-2.757,-2.7125,-2.7046,-2.7824,-2.8959,-2.9771,-3.0216,-3.2596,-3.3807,-3.3807,-3.3807,-3.3807,-3.3715,-3.1317,-2.9776,-2.9005,-2.9005,-2.9005,-2.9005,-2.9005,-2.7592,-2.5107,-2.1822,-1.9296,-1.7496,-1.7496,-2.0347,-2.419,-2.419,-2.419,-2.3888,-2.1928,0.0,-2.3768,-2.3768,0.0,0.0,0.0,0.0,-1.818,-1.9093,-1.9335,-1.9496,-2.015,-2.0308,-2.0308,-2.0308,-1.9833,-1.8788,0.0,-1.6625,-1.5968,-1.3019,0.0,0.0,0.0,0.0,-1.6035,-1.7773,-1.8574,-1.9043,-1.9277,-1.8906,-1.8379,-1.7715,-1.6875,-1.6366,-1.6366,-1.574,-1.5075,-1.443,-1.4009,-1.2889,-1.098,0.0,0.0,0.0,0.0,0.0,0.0,0.0,0.0,0.0,0.0,0.0,0.0,0.0,0.0,0.0,0.0,0.0,0.0,0.0,0.0,0.0,0.0,0.0,0.0,0.0,0.0,0.0,0.0,0.0,-2.422,-2.5642,0.0,0.0,0.0,0.0,-2.2126,-2.4692,-2.7622,-3.0809,-2.8266,-2.801,-3.0869,-3.1051,-3.1882,-3.3537,-3.3715,-3.3807,-3.3807,-3.3807,-3.3807,-3.3788,-3.3623,-3.1898,-2.9005,-2.9005,-2.9005,-2.9005,-2.9005,-2.8895,-2.8436,-2.5217,-2.386,-2.3741,-2.3741,-2.3943,-2.419,-2.419,-2.419,-2.4181,-2.4053,-2.2001,-1.9593,-1.9593,-1.9648,0.0,0.0,-1.8673,-1.8974,-1.9985,-2.0231,-2.025,-2.0288,-2.0308,-2.0308,-2.0308,-2.0273,-1.9972,0.0,-1.8288,-1.7191,-1.5495,0.0,-1.4984,-1.416,-1.4824,-1.6035,-1.7773,-1.8047,-1.8379,-1.9219,-1.7812,-1.6816,-1.6777,-1.5971,-1.5474,-1.5474,-1.5357,-1.5282,-1.5243,-1.3703,-1.2806,-1.2689,-1.0228,0.0,0.0,0.0,0.0,0.0,0.0,0.0,0.0,0.0,0.0,0.0,0.0,0.0,0.0,0.0,0.0,0.0,0.0,0.0,0.0,0.0,0.0,0.0,0.0,0.0,0.0,0.0,0.0,-2.8366,-2.8129,0.0,-2.5304,-2.4272,-2.4118,-2.5067,-2.7892,-3.0057,-3.114,-3.0176,-2.964,-2.9777,-3.0718,-3.1487,-3.2127,-3.2127,-3.2695,-3.3807,-3.3807,-3.3807,-3.3807,-3.3807,-3.3164,-3.1971,-2.9904,-2.9005,-2.9005,-2.9005,-2.9005,-2.8895,-2.7739,-2.7281,-2.7281,-2.7281,-2.5988,-2.419,-2.419,-2.419,-2.419,-2.419,-2.34,-2.2446,-2.2446,-2.1822,-2.1146,-2.1374,-2.0852,-2.0296,-2.065,-2.0427,-2.0111,-2.0111,-2.0208,-2.0308,-2.0308,-2.0308,-2.0219,-1.9922,-1.9162,-1.7866,-1.5652,-1.5767,-1.57,-1.4306,-1.5325,-1.6459,-1.7084,-1.7624,-1.7832,-1.7597,-1.7011,-1.6404,-1.5857,-1.4991,-1.45,-1.45,-1.3987,-1.369,-1.369,-1.3081,-1.2484,-1.1968,-1.1015,-0.956,0.0,0.0,0.0,0.0,0.0,0.0,0.0,0.0,0.0,0.0,0.0,0.0,0.0,0.0,0.0,0.0,0.0,0.0,0.0,0.0,0.0,0.0,0.0,0.0,0.0,-2.2509,-2.5609,-2.9245,-2.8955,-2.8007,-2.6825,-2.6286,-2.6624,-2.8112,-3.0057,-3.119,-3.119,-3.119,-3.0754,-2.9758,-3.0701,-3.119,-3.119,-3.119,-3.1787,-3.2916,-3.2916,-3.2916,-3.2932,-3.3532,-3.3807,-3.3578,-2.985,-2.8515,-2.8964,-2.862,-2.8545,-2.8651,-2.8905,-2.9005,-2.9005,-2.9005,-2.7647,-2.5658,-2.4575,-2.419,-2.419,-2.419,-2.419,-2.4098,-2.3547,-2.3024,-2.2637,-2.2751,-2.1901,-2.0974,-2.0993,-2.0474,-1.9922,-1.993,-2.0071,-2.0197,-2.0197,-2.0245,-2.0308,-2.0308,-1.9831,-1.8817,-1.685,-1.6781,-1.6534,-1.5156,-1.5929,-1.6674,-1.6674,-1.713,-1.7236,-1.6669,-1.6335,-1.5923,-1.5356,-1.4491,-1.4134,-1.4424,-1.3388,-1.2896,-1.3163,-1.259,-1.2013,-1.148,-1.0874,-0.9733,-0.8043,0.0,0.0,0.0,0.0,0.0,0.0,0.0,0.0,0.0,0.0,0.0,0.0,0.0,0.0,0.0,0.0,0.0,0.0,0.0,0.0,0.0,0.0,0.0,-2.2061,-2.3791,-2.5694,-2.6691,-2.8141,-2.8486,-2.6982,-2.8198,-2.9656,-3.1089,-3.119,-3.119,-3.119,-3.119,-3.119,-3.119,-3.119,-3.119,-3.119,-3.119,-3.119,-3.119,-3.119,-3.119,-3.1269,-3.2947,-3.3666,-3.3319,-2.8694,-2.7557,-2.8881,-2.7922,-2.7648,-2.7968,-2.87,-2.9005,-2.9005,-2.9005,-2.895,-2.84,-2.5273,-2.419,-2.419,-2.419,-2.419,-2.3914,-2.2345,-2.2969,-2.3988,-2.293,-2.1828,-2.0951,-2.1004,-2.0401,-1.9782,-1.9793,-1.9896,-1.9984,-2.0007,-2.0156,-2.0285,-2.0308,-2.0308,-2.0042,-1.9249,-1.8391,-1.7563,-1.6767,-1.6616,0.0,-1.6607,-1.6567,-1.6567,-1.6567,-1.5802,-1.5293,-1.5293,-1.4498,-1.4351,-1.5162,-1.3605,-1.3005,-1.3783,-1.2231,-1.137,-1.137,-0.9748,-0.89,-0.89,0.0,0.0,0.0,0.0,0.0,0.0,0.0,0.0,0.0,0.0,0.0,0.0,0.0,0.0,0.0,0.0,0.0,0.0,0.0,0.0,0.0,-2.5567,-2.605,-2.418,-2.6251,-2.8247,-2.9076,-3.0021,-3.0422,-3.0013,-3.0355,-3.0765,-3.1173,-3.119,-3.119,-3.119,-3.119,-3.119,-3.119,-3.119,-3.119,-3.119,-3.119,-3.119,-3.119,-3.119,-3.119,-3.121,-3.1712,-3.0716,-2.8592,-2.7264,-2.7161,-2.7908,-2.7808,-2.7725,-2.7692,-2.8639,-2.9005,-2.9005,-2.9005,-2.7519,-2.5383,-2.4502,-2.419,-2.419,-2.419,-2.419,-2.4116,-2.3657,-2.3841,-2.4144,-2.3851,-2.2969,-2.2054,-2.1681,-2.0623,-1.9641,-1.9659,-1.9756,-1.9884,-1.9971,-2.0031,-2.012,-2.0277,-2.0308,-2.0027,-1.9171,-1.8866,-1.8457,-1.7604,-1.6924,0.0,-1.6525,-1.5988,-1.5572,-1.5572,-1.5374,-1.5236,-1.5236,-1.4424,-1.3781,-1.3441,-1.2365,-1.1851,-1.2079,-1.1038,-1.0462,-1.0462,-0.944,-0.89,0.0,0.0,0.0,0.0,0.0,0.0,0.0,0.0,0.0,0.0,0.0,0.0,0.0,0.0,0.0,0.0,0.0,0.0,0.0,0.0,0.0,0.0,-2.7166,-2.7492,-2.6454,-2.8129,-2.9644,-3.0135,-3.0783,-3.119,-3.119,-3.1585,-3.1842,-3.1842,-3.2005,-3.185,-3.1224,-3.119,-3.119,-3.119,-3.119,-3.119,-3.119,-3.119,-3.119,-3.119,-3.119,-3.119,-3.119,-3.119,-2.955,0.0,-2.7148,-2.7381,-2.7485,-2.7441,-2.7394,0.0,0.0,0.0,0.0,0.0,-2.6859,-2.4814,-2.4355,-2.419,-2.419,-2.419,-2.419,-2.419,-2.419,-2.419,-2.419,-2.419,-2.328,-2.2127,-2.1562,-2.0453,-1.9467,-1.9467,-1.9597,-1.9745,-1.9826,-1.9874,-1.9943,-2.0062,0.0,0.0,-1.9507,-1.923,-1.8895,-1.8374,-1.7261,-1.6494,-1.6494,-1.5741,-1.5192,-1.5192,-1.5192,-1.5192,-1.5192,-1.4401,0.0,0.0,0.0,-1.1774,-1.1427,-1.0906,0.0,0.0,0.0,0.0,0.0,0.0,0.0,0.0,-0.9355,-0.9844,0.0,0.0,0.0,0.0,0.0,0.0,0.0,0.0,0.0,0.0,0.0,0.0,0.0,0.0,0.0,0.0,-2.8164,-2.8612,-2.8423,-2.9337,-3.0081,-3.0252,-3.0831,-3.1202,-3.119,-3.2116,-3.27,-3.2646,-3.3126,-3.2831,-3.1512,0.0,0.0,0.0,0.0,-3.119,-3.119,-3.119,-3.119,-3.119,-3.119,-3.119,-3.119,-3.119,-2.9617,-2.6911,-2.7824,-2.7895,-2.7363,-2.689,-2.6906,-2.7272,-2.7681,-2.7754,-2.7598,-2.7453,-2.6712,0.0,0.0,0.0,0.0,-2.419,-2.419,-2.419,-2.419,-2.419,-2.419,-2.419,-2.3033,-2.1676,-2.1133,-2.0161,-1.9297,-1.9297,-1.9441,-1.9566,-1.9611,-1.9698,-1.9778,-1.9812,-1.9898,-1.9975,-1.9984,-1.9524,-1.9146,-1.9146,-1.7795,0.0,-1.666,-1.5888,-1.5308,-1.5212,0.0,0.0,-1.5192,-1.4497,-1.4324,-1.5019,-1.3659,-1.2389,-1.1438,-1.1562,-1.1194,-1.0221,-1.021,-1.0651,-1.1521,-1.1425,-1.184,-1.2659,-1.1117,-1.0867,0.0,0.0,0.0,0.0,0.0,0.0,0.0,0.0,0.0,0.0,0.0,0.0,0.0,0.0,0.0,-2.8325,-2.8084,-2.7914,-2.8397,-2.9086,-2.967,-3.0023,-3.0729,-3.1206,-3.1205,-3.2116,-3.2612,-3.2381,-3.3021,-3.3288,-3.3,-3.185,-3.119,-3.119,-3.119,-3.119,-3.119,-3.119,-3.119,-3.119,0.0,0.0,-3.119,-3.119,-2.9989,-2.7926,-2.8129,-2.7691,-2.6841,-2.6741,-2.6741,-2.6857,-2.7272,-2.7747,-2.8146,-2.7611,-2.6712,-2.5658,-2.4575,-2.419,-2.419,-2.419,-2.419,-2.419,-2.419,-2.419,0.0,-2.419,-2.3039,-2.1774,-2.1667,-2.0468,-1.9297,-1.9297,-1.9334,-1.9404,-1.9566,-1.9623,-1.9671,-1.9773,-1.9825,-1.9848,-1.9849,-1.9964,-2.0042,-2.0042,-1.9161,-1.8261,-1.7564,-1.6756,-1.5984,-1.5288,-1.5192,-1.5192,-1.5192,-1.5058,-1.4728,-1.4187,-1.3791,-1.2913,-1.1385,-1.2519,-1.2464,-1.0935,-1.0919,-1.1362,-1.2291,-1.1637,-1.1796,-1.2695,-1.2358,-1.2632,0.0,0.0,0.0,0.0,0.0,0.0,0.0,0.0,0.0,0.0,0.0,-2.1415,-2.2763,0.0,-2.8157,-2.9822,-2.8938,-2.8272,-2.8903,-2.8713,-2.8709,-2.9317,-3.021,-3.0871,-3.1168,-3.233,-3.2991,-3.2848,-3.388,-3.4163,-3.344,-3.2701,-3.1959,-3.1224,-3.119,-3.119,-3.119,-3.119,-3.119,-3.119,-3.119,-3.119,-3.119,-3.119,-3.0108,-2.8196,-2.8484,-2.7875,-2.6691,-2.6691,-2.6691,-2.6725,-2.6923,-2.7467,-2.8009,-2.6872,-2.6338,-2.6007,-2.4667,-2.419,-2.419,-2.419,-2.419,-2.419,-2.419,-2.419,-2.419,-2.419,-2.2811,-2.1356,-2.1342,-2.0336,-1.9297,-1.9297,-1.9297,-1.9334,-1.9422,-1.9441,-1.9467,-1.9548,-1.9627,-1.9697,-1.9696,-1.9894,-2.006,-2.006,-1.8963,-1.8011,-1.7646,-1.6512,-1.5613,-1.5247,-1.5192,-1.5192,-1.5192,-1.5132,-1.4917,-1.4475,-1.4382,-1.3773,-1.249,-1.3192,-1.3007,-1.1726,-1.1701,-1.2146,-1.3053,-1.2643,-1.2914,-1.3808,-1.3846,-1.3862,0.0,0.0,0.0,0.0,0.0,0.0,0.0,-1.8015,-1.912,-2.1033,-2.2213,-2.3666,-2.6093,-2.7809,-2.9335,-3.0824,-2.9787,-2.891,-2.9281,-2.844,-2.7989,-2.8503,-2.9496,-3.0318,-3.0801,-3.2259,-3.3144,-3.3022,-3.4356,-3.4636,-3.3474,-3.3267,-3.2639,-3.1441,-3.1275,-3.119,-3.119,-3.119,-3.119,-3.119,-3.119,-3.119,-3.119,-3.119,-3.0159,-2.8366,-2.8502,-2.7859,-2.6691,-2.6691,-2.6691,-2.6691,-2.6691,-2.706,-2.7391,-2.6012,-2.5792,-2.5969,-2.4578,-2.4064,-2.4016,-2.4084,-2.4103,-2.4132,-2.418,-2.419,-2.4153,-2.3951,-2.2446,-2.0892,-2.0842,-2.0065,-1.9297,-1.9297,-1.9297,-1.9297,-1.9297,-1.9297,-1.9297,-1.9297,-1.9422,-1.9548,-1.9548,-1.9638,-1.9663,-1.9578,-1.8421,-1.7476,-1.7263,-1.6048,-1.5202,-1.5159,-1.5142,-1.5132,-1.5132,-1.5033,-1.4979,-1.4986,-1.4916,-1.4478,-1.3613,-1.3711,-1.3379,-1.2512,-1.2494,-1.2935,-1.381,-1.366,-1.4033,-1.4894,-1.4955,-1.4661,-1.6446,-1.6333,-1.6751,-1.8219,-1.817,-1.8592,0.0,-2.1766,-2.16,-2.3659,-2.4624,-2.5606,-2.717,-2.8109,-2.8899,-2.9654,-2.963,-2.9292,-2.8771,-2.8584,-2.8292,-2.7808,-2.8775,-2.9528,-2.9578,-3.132,-3.2189,-3.1653,-3.2878,-3.3575,-3.3423,-3.2765,-3.2356,-3.2171,-3.1523,-3.119,-3.119,-3.119,-3.119,-3.119,-3.119,-3.119,-3.119,-3.119,-3.0345,-2.884,-2.7537,-2.686,-2.6691,-2.6691,-2.6691,-2.6691,-2.6691,-2.6561,-2.633,-2.5723,-2.5131,-2.4557,-2.3966,-2.3555,-2.3357,-2.366,-2.3764,-2.3806,-2.4103,-2.419,-2.3988,-2.3061,-2.1867,-2.0849,-2.0613,-1.9924,-1.9297,-1.9297,-1.9297,-1.9297,-1.9297,-1.9297,-1.9297,-1.9297,-1.9315,-1.9334,-1.9334,-1.9353,-1.9212,-1.8794,-1.8567,-1.7925,-1.6446,-1.6097,-1.5713,-1.5011,-1.4938,-1.4934,-1.4934,-1.4914,-1.4909,-1.4913,-1.479,-1.436,-1.3534,-1.4087,-1.4021,-1.3198,-1.3183,-1.3655,-1.4585,-1.3857,-1.3994,-1.4905,-1.4905,-1.4897,-1.8405,-1.843,-1.8615,-1.9326,-1.9773,-2.0348,-2.155,-2.2304,-2.3061,-2.4269,-2.5683,-2.7007,-2.8013,-2.8727,-2.9385,-3.0013,-3.0118,-2.9894,-2.9265,-2.8846,-2.8357,-2.7688,-2.8373,-2.9002,-2.9365,-3.0517,-3.1303,-3.1391,-3.232,-3.283,-3.2763,-3.247,-3.2092,-3.1675,-3.1357,-3.119,-3.119,-3.119,-3.119,-3.119,-3.119,-3.119,-3.119,-3.119,-3.0398,-2.8942,-2.7824,-2.7097,-2.6691,-2.6691,-2.6691,-2.6691,-2.6691,-2.6077,-2.5204,-2.5212,-2.487,-2.43,-2.3636,-2.3323,-2.3224,-2.3369,-2.3403,-2.3459,-2.3806,-2.3579,-2.3133,-2.2708,-2.167,-2.0615,-2.0388,-1.9817,-1.9297,-1.9297,-1.9297,-1.9297,-1.9297,-1.9297,-1.9297,-1.9297,-1.9297,-1.9297,-1.9297,-1.9297,-1.8919,-1.7781,-1.7608,-1.7212,-1.6121,-1.558,-1.5184,-1.4928,-1.4891,-1.4904,-1.4904,-1.4836,-1.4779,-1.4786,-1.4662,-1.4429,-1.4109,-1.4355,-1.4348,-1.4006,-1.4002,-1.4196,-1.4573,-1.4245,-1.4281,-1.4676,-1.4743,-1.4791,-1.9296,-1.9434,-1.966,-2.0326,-2.1079,-2.1631,-2.1622,-2.2773,-2.4024,-2.4624,-2.6098,-2.7565,-2.8446,-2.8996,-2.9564,-3.0372,-3.0507,-3.0283,-2.9669,-2.9175,-2.8546,-2.771,-2.7996,-2.8439,-2.8857,-2.9694,-3.0302,-3.0573,-3.139,-3.1862,-3.1745,-3.1916,-3.1742,-3.1224,-3.119,-3.119,-3.119,-3.119,-3.119,-3.119,-3.119,-3.119,-3.119,-3.0987,-3.0192,-2.8959,-2.8163,-2.7367,-2.6691,-2.6691,-2.6691,-2.6674,-2.6471,-2.5625,-2.4504,-2.4536,-2.4251,-2.3748,-2.3244,-2.2996,-2.2952,-2.3033,-2.3057,-2.3129,-2.3448,-2.3016,-2.2352,-2.2178,-2.125,-2.0226,-1.9849,-1.9431,-1.9123,-1.9193,-1.9217,-1.923,-1.9282,-1.9297,-1.9285,-1.9229,-1.9219,-1.923,-1.9219,-1.9217,-1.8692,-1.7133,-1.6899,-1.6561,-1.5633,-1.5014,-1.4681,-1.478,-1.4788,-1.4795,-1.4795,-1.4704,-1.464,-1.464,-1.455,-1.4493,-1.4493,-1.4493,-1.4493,-1.4493,-1.4493,-1.4493,-1.4493,-1.4493,-1.4493,-1.4493,-1.4597,-1.4639,-1.8392,-1.8493,-1.9309,-2.1644,-2.2092,-2.233,-2.3615,-2.4086,-2.4498,-2.5231,-2.6,-2.6951,-2.8327,-2.8622,-2.9041,-3.0298,-3.0507,-3.0283,-2.9669,-2.9592,-2.9082,-2.776,-2.761,-2.7635,-2.7635,-2.8732,-2.9189,-2.8637,-2.9677,-3.0342,-3.0347,-3.0929,-3.1224,-3.119,-3.119,-3.119,-3.119,-3.119,-3.119,-3.119,-3.119,-3.119,-3.1173,-3.0463,-2.9719,-2.8959,-2.8163,-2.7367,-2.6691,-2.6691,-2.6691,-2.6623,-2.5913,-2.5169,-2.4406,-2.3695,-2.2999,-2.2411,-2.2625,-2.2537,-2.2377,-2.2621,-2.2721,-2.2784,-2.3117,-2.2692,-2.1941,-2.1167,-2.0408,-1.9637,-1.8853,-1.8636,-1.8697,-1.894,-1.901,-1.9064,-1.9261,-1.9297,-1.9235,-1.9057,-1.9013,-1.9009,-1.9,-1.9012,-1.8522,-1.7105,-1.69,-1.633,-1.475,-1.453,-1.4517,-1.4505,-1.4505,-1.4499,-1.4499,-1.4505,-1.4505,-1.4505,-1.4499,-1.4493,-1.4493,-1.4493,-1.4493,-1.4493,-1.4493,-1.4493,-1.4493,-1.4493,-1.4493,-1.4493,-1.4493,-1.4512,-1.961,-2.0451,-2.138,-2.2531,-2.307,-2.3561,-2.4529,-2.4877,-2.5231,-2.5987,-2.6347,-2.6703,-2.7191,-2.7645,-2.8079,-2.8513,-2.9654,-3.0133,-2.9071,-2.9654,-2.9549,-2.7809,-2.8004,-2.8094,-2.7645,-2.7968,0.0,-2.8487,-2.8873,-2.9271,-2.9673,-2.9906,-3.0194,-3.0578,-3.0614,-3.0805,-3.119,-3.119,-3.119,-3.119,-3.119,-3.119,-3.1173,-3.0446,-2.9702,-2.8959,-2.8163,-2.7367,-2.6691,-2.6691,-2.6404,-2.5947,-2.571,-2.4847,-2.3731,-2.3477,-2.2936,-2.2307,-2.2398,-2.2374,-2.2307,-2.2415,-2.2422,-2.249,-2.2789,-2.1988,-2.0918,-2.0702,-1.9851,-1.8911,-1.8451,-1.8473,-1.8626,-1.8717,-1.8726,-1.8761,-1.8825,-1.8851,-1.8825,-1.8758,-1.8731,-1.8725,-1.8726,-1.8735,-1.8226,-1.6729,-1.5823,-1.5098,-1.4567,-1.4493,-1.4493,-1.4493,-1.4493,-1.4493,-1.4493,-1.4493,-1.4493,-1.4493,-1.4493,-1.4493,-1.4493,-1.4493,-1.4493,-1.4493,-1.4493,-1.4493,-1.4493,-1.4493,-1.4493,-1.4493,-1.4493,-1.4493,-2.083,-2.1719,-2.2481,-2.3684,-2.401,-2.4292,-2.5184,-2.5214,-2.5257,-2.5993,-2.6016,-2.5899,-2.5899,-2.6033,-2.6417,-2.7136,-2.8472,-2.934,-2.9011,-2.9654,-2.9723,-2.8463,-2.849,-2.8323,-2.766,-2.7824,-2.8032,-2.818,-2.8367,-2.8677,-2.9042,-2.9281,-2.9576,-2.998,-3.0189,-3.0491,-3.0875,-3.0875,-3.0771,-3.0561,-3.0788,-3.0774,-3.0553,-3.0034,-2.9386,-2.8649,-2.7876,-2.7228,-2.6691,-2.6691,-2.642,-2.5947,-2.5406,-2.4628,-2.3729,-2.319,-2.2716,-2.2296,-2.2296,-2.2296,-2.2296,-2.2296,-2.2296,-2.2335,-2.25,-2.149,-2.0281,-2.0312,-1.9364,-1.827,-1.8093,-1.8177,-1.8341,-1.843,-1.846,-1.8479,-1.8576,-1.8595,-1.8566,-1.8479,-1.846,-1.846,-1.846,-1.8298,-1.7763,-1.6498,-1.5375,-1.4615,-1.4417,-1.4393,-1.4411,-1.4488,-1.4493,-1.4493,-1.4493,-1.4493,-1.4493,-1.4493,-1.4493,-1.4493,-1.4493,-1.4493,-1.4493,-1.4493,-1.4493,-1.4493,-1.4493,-1.4493,-1.4493,-1.4493,-1.4493,-1.4493,-2.1907,-2.2255,-2.2732,-2.4996,-2.4928,-2.457,-2.5625,-2.512,-2.4643,-2.526,-2.4928,-2.4485,-2.441,-2.3947,-2.4223,-2.6123,-2.7151,-2.8139,-2.9382,-2.9636,-2.9657,-2.9509,-2.9008,-2.8468,-2.785,-2.8319,-2.8382,-2.775,0.0,-2.8455,-2.8501,-2.9028,-2.9316,-2.9348,-2.9926,-3.0229,-3.0246,-3.0246,-2.9966,-2.941,-2.9966,-2.9959,-2.9388,-2.9264,-2.879,-2.8024,-2.7325,-2.6857,-2.6607,-2.6607,-2.6624,-2.6455,-2.5018,-2.4458,-2.4271,-2.2835,-2.2296,-2.2296,-2.2296,-2.2296,-2.2296,-2.2296,-2.2296,-2.2296,-2.2296,-2.1231,-2.0002,-2.0002,-1.8949,-1.78,-1.78,-1.78,-1.785,-1.8114,-1.8177,-1.8249,-1.8499,-1.8556,-1.8479,-1.8229,-1.8177,-1.8177,-1.8177,-1.7724,-1.7109,-1.6376,-1.5521,-1.477,-1.4246,-1.4182,-1.4264,-1.4453,-1.4476,-1.4482,-1.4482,-1.4488,-1.4493,-1.4493,-1.4493,-1.4493,-1.4493,-1.4493,-1.4493,-1.4493,-1.4493,-1.4493,-1.4493,-1.4493,-1.4493,-1.4493,-1.4493,-1.4493,-2.2669,-2.376,-2.4745,-2.4958,-2.5243,-2.5441,-2.5389,-2.5299,-2.4998,-2.424,-2.3606,-2.2877,-2.1869,-2.2742,-2.3774,-2.4283,-2.7006,-2.9052,-2.8876,-3.0118,-3.0293,-2.8348,-2.9228,-3.0147,-3.0476,-2.9807,-2.9277,0.0,-2.8308,-2.8062,-2.855,-2.8257,-2.8247,-2.8735,-2.8893,-2.9186,-2.9635,-2.9635,-2.954,-2.9399,-2.9556,-2.9543,-2.9351,-2.8286,-2.77,-2.7437,-2.6199,-2.5664,-2.558,-2.558,-2.5455,-2.5194,-2.4282,-2.381,-2.3577,-2.2634,-2.2296,-2.2296,-2.2296,-2.2296,-2.2296,-2.2296,-2.2296,-2.2296,-2.2296,-2.1231,-2.0002,-2.0002,-1.8949,-1.78,-1.78,-1.78,-1.7822,-1.79,-1.7894,-1.7916,-1.7992,-1.8003,-1.7982,-1.7916,-1.7894,-1.7894,-1.7894,-1.7328,-1.6637,-1.59,-1.5111,-1.4468,-1.4034,-1.3976,-1.3997,-1.4045,-1.4182,-1.4276,-1.4276,-1.4405,-1.4493,-1.4493,-1.4493,-1.4493,-1.4493,-1.4493,-1.4493,-1.4493,-1.4493,-1.4493,-1.4493,-1.4493,-1.4493,-1.4493,-1.4493,-1.4493,-2.4004,-2.4895,-2.5623,-2.5633,-2.5558,-2.5366,-2.4901,-2.4286,-2.3508,-2.2521,-2.159,-2.0707,-1.9959,-2.0946,-2.2194,-2.3056,-2.5833,-2.8113,-2.8921,-2.9983,-3.0319,-2.9423,-3.0022,-3.0747,-3.1432,-3.0598,-2.9983,-2.9983,-2.9052,-2.8513,-2.8592,-2.8241,-2.8072,-2.8087,-2.8354,-2.8662,-2.8986,-2.902,-2.8879,-2.8607,-2.8885,-2.8718,-2.8135,-2.7315,-2.6767,-2.6409,0.0,-2.4973,-2.5202,-2.5202,-2.5113,-2.4915,-2.4391,-2.3918,-2.3457,-2.2965,-2.2449,-2.2003,-2.2003,-2.1886,-2.1781,-2.218,-2.2296,-2.2296,-2.2296,-2.1231,-2.0002,-2.0002,-1.8949,-1.78,-1.78,-1.78,-1.78,-1.78,-1.78,-1.78,-1.78,-1.78,-1.78,-1.78,-1.78,-1.78,-1.78,-1.7456,-1.6813,-1.5764,-1.5257,-1.4671,-1.3798,-1.3731,-1.3795,-1.3899,-1.3997,-1.4065,-1.4065,-1.4257,-1.4368,-1.4368,-1.4453,-1.4493,-1.4493,-1.4493,-1.4458,-1.4375,-1.4458,-1.4458,-1.4368,-1.4458,-1.4493,-1.4493,-1.4493,-1.4493,-2.563,-2.5836,-2.5894,-2.66,-2.5902,-2.4914,-2.4329,-2.2916,-2.1497,-2.0618,-1.945,-1.8523,-1.8358,-1.9061,-2.0337,-2.2254,-2.4343,-2.6617,-2.9127,-2.9594,-3.0153,-3.1351,-3.099,-3.0854,-3.1445,-3.0953,-3.0642,-3.0642,-3.0058,-2.9415,-2.8771,-2.8651,-2.8283,-2.7615,-2.8102,-2.8394,-2.8394,-2.8372,-2.8107,-2.76,-2.8142,-2.7767,-2.6586,-2.6449,-2.5982,-2.5262,0.0,0.0,-2.4989,-2.4989,-2.5031,-2.5064,-2.4729,-2.4291,-2.3803,-2.3437,-2.2642,-2.1729,-2.163,-2.1337,-2.1118,-2.1945,-2.2209,-2.2223,-2.2282,-2.1231,-2.0018,-2.0132,-1.9017,-1.7817,-1.7918,-1.7867,-1.78,-1.78,-1.78,-1.78,-1.78,-1.78,-1.78,-1.78,-1.78,-1.78,-1.78,-1.78,-1.7326,-1.595,-1.5663,-1.5088,-1.3726,-1.3562,-1.364,-1.3813,-1.3856,-1.387,-1.387,-1.4038,-1.4169,-1.4195,-1.4344,-1.4422,-1.4458,-1.4422,-1.4344,-1.4162,-1.432,-1.4356,-1.4195,-1.4375,-1.447,-1.4493,-1.4493,-1.4493,-2.7292,-2.7059,-2.6467,-2.6999,-2.6469,-2.5422,-2.3968,-2.3045,-2.1858,-1.9537,-1.8416,-1.7549,-1.6503,-1.8165,-2.0187,-2.1635,-2.4433,-2.6976,-2.8547,-2.9684,-3.0648,-3.1397,-3.1398,-3.136,-3.1504,-3.1389,-3.1331,0.0,-3.0731,-3.0073,-2.9472,-2.8908,-2.8283,-2.7615,-2.771,-2.7765,-2.7765,-2.7755,-2.7685,-2.76,-2.771,-2.7353,-2.6571,-2.6019,-2.5387,-2.4694,0.0,0.0,-2.3879,-2.3879,-2.4137,-2.4474,-2.3803,-2.3991,-2.446,-2.3209,-2.2648,-2.2418,-2.1811,-2.1337,-2.1071,-2.1568,-2.1718,-2.1794,-2.218,-2.1231,-2.0149,-2.0788,-1.9452,-1.7935,-1.8555,-1.8268,-1.78,-1.78,-1.78,-1.78,-1.78,-1.78,-1.78,-1.78,-1.78,-1.78,-1.78,-1.78,-1.7507,-1.6637,-1.5994,-1.5291,-1.4419,-1.3803,-1.3446,-1.3487,-1.3588,-1.3646,-1.3646,-1.3849,-1.4017,-1.4188,-1.4089,-1.4089,-1.4251,-1.4085,-1.399,-1.3955,-1.399,-1.4065,-1.4195,-1.4245,-1.4344,-1.4493,-1.4493,-1.4493,-2.7876,-2.7701,-2.7352,-2.7696,-2.6454,-2.4704,-2.296,-2.1386,-1.9711,-1.7617,-1.6735,-1.6228,-1.5875,-1.7372,-1.9106,-2.0438,-2.2562,-2.4866,-2.723,-2.8382,-2.9612,-3.1291,-3.1488,-3.1511,-3.1511,-3.1511,-3.1511,-3.1511,-3.0896,-3.0238,-2.9636,-2.8643,-2.7946,-2.76,-2.76,-2.76,-2.76,-2.76,-2.76,-2.76,-2.76,-2.7203,-2.642,-2.5872,-2.5046,-2.4051,-2.3744,0.0,-2.3595,-2.3595,-2.3752,-2.3981,-2.3907,-2.3928,-2.3973,-2.3534,-2.2775,-2.1917,-2.1581,-2.0949,-2.0396,-2.0781,-2.1086,-2.1322,-2.1554,-2.0988,-2.033,-2.0725,-1.9639,-1.8454,-1.8809,-1.8352,-1.78,-1.78,-1.78,-1.78,-1.78,-1.78,-1.78,-1.78,-1.78,-1.78,-1.78,-1.78,-1.7557,-1.6807,-1.6079,-1.5325,-1.4588,-1.3862,-1.3396,-1.3396,-1.3471,-1.351,-1.351,-1.364,-1.3798,-1.3885,-1.3906,-1.3948,-1.4038,-1.3955,-1.3838,-1.3761,-1.3856,-1.3906,-1.3892,-1.4103,-1.4257,-1.4356,-1.4453,-1.4714,-2.8426,-2.8371,-2.8271,-2.8527,-2.6675,-2.4303,-2.2351,-2.0049,-1.7885,-1.6306,-1.5521,-1.524,-1.5712,-1.6727,-1.7968,-1.9468,-2.0827,-2.2802,-2.5944,-2.7225,-2.8651,-3.093,-3.1398,-3.1511,-3.1511,-3.1511,-3.1511,-3.1511,-3.0776,0.0,-2.94,-2.8259,-2.76,-2.76,-2.76,-2.76,-2.76,-2.76,-2.76,-2.76,-2.76,-2.7137,-2.6283,-2.5817,-2.4884,-2.3595,-2.3595,0.0,0.0,-2.3595,-2.3595,-2.3638,-2.4053,-2.3845,-2.3343,-2.3611,-2.2705,-2.1321,-2.1149,-2.0477,-1.9747,-2.007,-2.0483,-2.0862,-2.0959,-2.0712,-2.0399,-2.0561,-1.971,-1.8819,-1.8958,-1.8412,-1.7789,-1.7704,-1.7635,-1.7589,-1.7589,-1.7589,-1.7612,-1.7681,-1.7692,-1.7715,-1.7789,-1.78,-1.7608,-1.7027,-1.6316,-1.5561,-1.4825,-1.409,-1.3574,-1.3413,-1.3396,-1.3396,-1.3396,-1.3493,-1.3562,-1.3609,-1.3724,-1.3805,-1.3824,-1.3805,-1.3716,-1.3564,-1.3709,-1.3731,-1.3592,-1.392,-1.4085,-1.4143,-1.435,-1.4867,-2.9869,-2.9588,-2.9016,-2.9379,-2.7796,-2.552,-2.3139,-2.0735,-1.8553,-1.6946,-1.5813,-1.524,-1.5712,-1.6338,-1.7428,-1.9375,-2.0827,-2.2637,-2.533,-2.732,-2.897,-3.0169,-3.1011,-3.1511,-3.1511,-3.1511,-3.1511,-3.1511,-3.0372,0.0,-2.8727,-2.8004,-2.76,-2.76,-2.76,-2.76,-2.76,-2.76,-2.76,-2.76,-2.76,-2.7137,-2.6283,-2.5817,-2.4884,-2.3595,-2.3595,0.0,0.0,-2.3595,-2.3595,-2.3595,-2.3659,-2.3574,-2.3324,-2.27,-2.2055,-2.1377,-2.0657,-2.008,-1.9708,-1.9729,-2.0035,-2.0449,-2.0862,-2.0511,-2.0095,-2.0766,-1.97,-1.8502,-1.9177,-1.8576,-1.7715,-1.7415,-1.7113,-1.6892,-1.6892,-1.6892,-1.6993,-1.7284,-1.7344,-1.7439,-1.7755,-1.78,-1.7783,-1.7698,-1.7077,-1.6333,-1.5595,-1.4868,-1.4141,-1.3481,-1.3396,-1.3396,-1.3396,-1.3413,-1.347,-1.3594,-1.3493,-1.3502,-1.3615,-1.3519,-1.3446,-1.3421,-1.3446,-1.3502,-1.3592,-1.3648,-1.3743,-1.3934,-1.4136,-1.466,-2.897,-2.9055,-2.8808,-2.894,-2.7148,-2.4781,-2.2581,-2.0229,-1.8057,-1.6484,-1.5399,-1.4953,-1.5668,-1.5773,-1.6212,-1.765,-1.8341,-1.9627,-2.2273,-2.4029,-2.5946,-2.8362,-3.0325,-3.1505,-3.1495,-3.1511,-3.1286,-3.0763,-2.9644,0.0,-2.8038,-2.775,-2.76,-2.76,-2.76,-2.76,-2.76,-2.76,-2.76,-2.7585,-2.706,-2.6352,-2.5523,-2.5158,-2.4489,-2.3595,-2.3595,0.0,0.0,-2.3595,-2.3595,-2.3595,-2.3595,-2.3354,-2.294,-2.2642,-2.1883,-2.0965,-2.064,-2.0168,-1.9708,-1.9708,-1.9818,-1.9965,-2.0156,-1.993,-1.9657,-1.994,-1.9077,-1.8132,-1.8424,-1.785,-1.7167,-1.7027,-1.6904,-1.6802,-1.6802,-1.6802,-1.6841,-1.6964,-1.7002,-1.7101,-1.7444,-1.7502,-1.7561,-1.7777,-1.7168,-1.6434,-1.568,-1.496,-1.4225,-1.3481,-1.3396,-1.3396,-1.3396,-1.3396,-1.3413,-1.3478,-1.3421,-1.3413,-1.3478,-1.3421,-1.3396,-1.3396,-1.3396,-1.3438,-1.3486,-1.4038,-1.4361,-1.4459,-1.5104,-1.5826,-2.7979,-2.8592,-2.8801,-2.8397,-2.6618,-2.4338,-2.1958,-1.958,-1.7469,-1.5902,-1.5013,-1.4721,-1.5463,-1.5433,-1.5608,-1.6546,-1.7024,-1.8145,-2.0643,-2.2293,-2.4275,-2.6986,-2.9096,-3.0642,-3.1407,-3.1271,-3.0741,-2.9873,0.0,0.0,-2.7926,-2.771,-2.76,-2.76,-2.76,-2.76,-2.76,-2.76,-2.76,-2.7585,-2.6701,-2.5844,-2.4982,-2.4724,-2.423,-2.3595,0.0,0.0,0.0,-2.3595,-2.3595,-2.3595,-2.3595,-2.3101,-2.2403,-2.2403,-2.1565,-2.0408,-2.0408,-2.0094,-1.9708,-1.9708,-1.9708,-1.9708,-1.9708,-1.9455,-1.919,-1.919,-1.8468,-1.7695,-1.7596,-1.7117,-1.6646,-1.6646,-1.6581,-1.6501,-1.6501,-1.6501,-1.6528,-1.6633,-1.6646,-1.6763,-1.7089,-1.715,-1.7236,-1.7467,-1.6954,-1.6282,-1.556,-1.4896,-1.4225,-1.3481,-1.3396,-1.3396,-1.3396,-1.3396,-1.3396,-1.3396,-1.3396,-1.3396,-1.3396,-1.3396,-1.3396,-1.3396,-1.3396,-1.3515,-1.3726,-1.4392,-1.4813,-1.5045,-1.5784,-1.6563,-2.742,-2.8588,-2.9277,-2.7944,-2.6587,-2.4724,-2.145,-1.9006,-1.6968,-1.543,-1.4783,-1.4627,-1.5028,-1.5477,-1.5994,-1.6607,-1.7818,-1.939,-2.141,-2.3349,-2.5083,-2.6437,-2.7225,-2.866,-3.1263,-3.0718,-2.9865,-2.8968,0.0,0.0,-2.8591,-2.7961,-2.76,-2.76,-2.76,-2.76,-2.76,-2.76,-2.76,-2.7585,-2.6701,-2.5835,-2.4985,-2.4708,-2.423,0.0,0.0,0.0,0.0,-2.3595,-2.3595,-2.3595,-2.3595,-2.2832,-2.171,-2.171,-2.0857,-1.9708,-1.9708,-1.9708,-1.9708,-1.9708,-1.9708,-1.9708,-1.9708,-1.9243,-1.8702,-1.8702,-1.8034,-1.7225,-1.6902,-1.657,-1.6315,-1.6315,-1.6053,-1.5813,-1.5813,-1.5813,-1.5913,-1.6246,-1.6315,-1.6407,-1.6751,-1.6802,-1.6802,-1.6802,-1.6479,-1.5928,-1.5205,-1.4754,-1.4225,-1.3481,-1.3396,-1.3396,-1.3396,-1.3396,-1.3396,-1.3396,-1.3396,-1.3396,-1.3396,-1.3396,-1.3396,-1.3396,-1.3396,-1.376,-1.4487,-1.4504,-1.4885,-1.5605,-1.5808,-1.6429,-2.4066,-2.456,-2.468,-2.3796,-2.3251,-2.2232,-1.9538,-1.8372,-1.727,-1.5131,-1.4374,-1.4294,-1.4968,-1.5013,-1.5449,-1.711,-1.7743,-1.8715,-2.0718,-2.2338,-2.3954,-2.5719,-2.8083,-2.9838,-3.0543,0.0,-2.9292,0.0,0.0,0.0,-2.7906,-2.771,-2.76,-2.76,-2.76,-2.76,-2.76,-2.76,-2.7294,-2.6701,-2.5824,-2.5174,-2.4708,-2.4167,0.0,0.0,0.0,0.0,0.0,-2.3595,-2.3595,-2.3595,-2.3595,-2.2817,-2.1695,-2.1695,-2.0842,-1.9708,-1.9708,-1.9708,-1.9708,-1.9708,-1.9708,-1.9708,-1.9708,-1.9226,-1.8612,-1.8147,-1.7464,-1.6864,-1.6755,-1.6346,-1.5955,-1.5955,-1.5885,-1.5799,-1.5799,-1.5799,-1.5827,-1.5926,-1.5955,-1.6052,-1.6394,-1.6448,-1.6528,-1.6763,-1.6686,-1.6346,-1.5597,-1.5168,-1.4559,-1.3632,-1.3448,-1.3396,-1.3396,-1.3396,-1.3396,-1.3396,-1.3396,-1.3396,-1.3396,-1.387,-1.4157,-1.4157,-1.4648,-1.502,-1.5257,-1.5757,-1.6373,-1.7117,-1.7165,-1.7369,-2.162,-2.2313,-2.2478,-2.1545,-2.101,-2.0184,-1.8164,-1.727,-1.6358,-1.4632,-1.4068,-1.4052,-1.4549,-1.469,-1.5162,-1.6504,-1.7274,-1.8311,-2.0079,-2.168,-2.3314,-2.4994,-2.7675,-2.9164,0.0,-2.8903,-2.8768,0.0,0.0,0.0,-2.76,-2.76,-2.76,-2.76,-2.76,-2.76,-2.76,-2.76,-2.7166,-2.6293,-2.5429,-2.4862,-2.4572,-2.3904,0.0,0.0,0.0,0.0,0.0,-2.3595,-2.3595,-2.3595,-2.3595,-2.2817,-2.1695,-2.1695,-2.0842,-1.9708,-1.9708,-1.9708,-1.9708,-1.9708,-1.9708,-1.9708,-1.9708,-1.9226,-1.8568,-1.7893,-1.7219,-1.6696,-1.6696,-1.6263,-1.5799,-1.5799,-1.5799,-1.5799,-1.5799,-1.5799,-1.5799,-1.5799,-1.5799,-1.587,-1.6081,-1.6108,-1.6177,-1.638,-1.6294,-1.6028,-1.5574,-1.5158,-1.4675,-1.4041,-1.3674,-1.3483,-1.3483,-1.3437,-1.3396,-1.3396,-1.3659,-1.3828,-1.3828,-1.453,-1.4909,-1.4909,-1.5375,-1.574,-1.6028,-1.6756,-1.7354,-1.78,-1.78,-1.78,0.0,-2.1291,-2.1949,-2.0639,-1.9582,-1.8528,-1.7182,-1.5789,0.0,-1.3987,-1.3852,-1.3881,-1.3987,-1.4592,-1.5131,-1.5334,-1.6725,-1.8261,-1.9669,-2.158,-2.3282,-2.4494,-2.6329,-2.6992,-2.5618,-2.7284,0.0,0.0,0.0,0.0,-2.76,-2.76,-2.76,-2.76,-2.76,-2.76,-2.76,-2.76,-2.7165,-2.6238,-2.5433,-2.4861,-2.4505,-2.3868,0.0,0.0,0.0,0.0,0.0,-2.3595,-2.3595,-2.3595,-2.3595,-2.2817,-2.1695,-2.1695,-2.0842,-1.9708,-1.9708,-1.9708,-1.9708,-1.9708,-1.9708,-1.9708,-1.9708,-1.9273,-1.8642,-1.8012,-1.7324,-1.6771,-1.6771,-1.6293,-1.5799,-1.5799,-1.5799,-1.5799,-1.5799,-1.5799,-1.5799,-1.5799,-1.5799,-1.5799,-1.5799,-1.5799,-1.5799,-1.5799,-1.5477,-1.5237,-1.5237,-1.4898,-1.4639,-1.4616,-1.4045,-1.3659,-1.3637,-1.3512,-1.3455,-1.3455,-1.4165,-1.4588,-1.4588,-1.5291,-1.568,-1.568,-1.5731,-1.6096,-1.6783,-1.7473,-1.78,-1.78,-1.78,-1.78,-1.6937,0.0,-1.784,-1.6704,-1.6601,-1.6432,0.0,-1.4724,-1.4533,-1.3557,-1.3357,-1.371,-1.491,-1.4853,-1.5386,-1.7644,-1.8324,-1.9223,-2.112,-2.2941,-2.4549,-2.5877,-2.6403,-2.6342,-2.5505,-2.6343,0.0,0.0,0.0,-2.7008,-2.7575,-2.76,-2.76,-2.76,-2.76,-2.76,-2.76,-2.76,-2.6966,-2.5766,-2.5558,-2.4887,-2.3816,-2.3661,0.0,0.0,0.0,0.0,-2.3595,-2.3595,-2.3595,-2.3595,-2.3595,-2.2817,-2.1695,-2.1695,-2.0842,-1.9708,-1.9708,-1.9708,-1.9708,-1.9708,-1.9708,-1.9708,-1.9708,-1.9588,-1.942,-1.9271,-1.8371,-1.7458,-1.7458,-1.6637,-1.5799,-1.5799,-1.5799,-1.5799,-1.5799,-1.5799,-1.5799,-1.5799,-1.5799,-1.5799,-1.5799,-1.5799,-1.5799,-1.5799,-1.5721,-1.5658,-1.5658,-1.5308,-1.498,-1.478,-1.4522,-1.4273,-1.4078,-1.3984,-1.3934,-1.3934,-1.4824,-1.5341,-1.5341,-1.6045,-1.6434,-1.6434,-1.6999,-1.7371,-1.7529,-1.7715,-1.78,-1.78,-1.78,-1.78,-1.5296,-1.6171,-1.7003,-1.6108,-1.5848,-1.5627,-1.4813,-1.4345,-1.3904,-1.3317,-1.3198,-1.3552,-1.4655,-1.4718,-1.5284,-1.7369,-1.8129,-1.9324,-2.1857,-2.3515,-2.4715,-2.5425,-2.5744,-2.5672,0.0,0.0,0.0,0.0,0.0,-2.6162,0.0,-2.6576,-2.6596,-2.6596,-2.6582,-2.6767,-2.7074,-2.7115,-2.6425,-2.5094,-2.4822,-2.4149,-2.3179,-2.2872,-2.2729,0.0,0.0,0.0,-2.3201,-2.3201,-2.3355,-2.3595,-2.3595,-2.2817,-2.1695,-2.1695,-2.0693,-1.9332,-1.9332,-1.9169,-1.9006,-1.9244,-1.9332,-1.9332,-1.9332,-1.9332,-1.9387,-1.9621,-1.8732,-1.7713,-1.7713,-1.6742,-1.5799,-1.5799,-1.5799,-1.5799,-1.5799,-1.5799,-1.5799,-1.5799,-1.5799,-1.5799,-1.5799,-1.5799,-1.5799,-1.5799,-1.5799,-1.5799,-1.5799,-1.5609,-1.5409,-1.5273,-1.4923,-1.4624,-1.4486,-1.4578,-1.4556,-1.4341,-1.5152,-1.5714,-1.5869,-1.6575,-1.7054,-1.7202,-1.7608,-1.78,-1.78,-1.78,-1.78,-1.78,-1.8149,-1.829,-1.469,-1.6187,-1.751,-1.6698,-1.6046,-1.559,-1.5442,-1.4315,-1.3366,-1.3453,-1.3403,-1.3564,-1.4321,-1.4733,-1.5325,-1.6513,-1.7745,-1.953,-2.2317,-2.3601,-2.4259,-2.4299,-2.4724,0.0,-2.4176,0.0,0.0,0.0,0.0,-2.5287,0.0,-2.5409,-2.5392,-2.5392,-2.5384,-2.5661,-2.6148,-2.6162,-2.5568,-2.4366,-2.3755,-2.3155,-2.2539,-2.1959,-2.1701,0.0,0.0,0.0,-2.2558,-2.2649,-2.2929,-2.3316,-2.3417,-2.2682,-2.1545,-2.1466,-2.0357,-1.8893,-1.8817,-1.8477,-1.8185,-1.8631,-1.8779,-1.8779,-1.8779,-1.8779,-1.8874,-1.9332,-1.8619,-1.7718,-1.7599,-1.6724,-1.5816,-1.5712,-1.5653,-1.5595,-1.5595,-1.5653,-1.5667,-1.5609,-1.5653,-1.5683,-1.5682,-1.5682,-1.5726,-1.5784,-1.5799,-1.5799,-1.5799,-1.5799,-1.5799,-1.5799,-1.529,-1.4946,-1.4946,-1.5213,-1.5213,-1.4805,-1.5467,-1.6004,-1.6275,-1.6884,-1.7372,-1.7635,-1.7647,-1.767,-1.7715,-1.7715,-1.7755,-1.7817,-1.8555,-1.8894,-1.5606,-1.655,-1.6917,-1.5398,-1.5597,-1.5971,-1.5178,-1.4449,-1.4085,-1.4544,-1.4286,-1.4408,-1.5859,-1.6094,-1.6612,-1.8297,-1.9954,-2.1571,-2.307,-2.3373,-2.369,-2.4242,0.0,-2.3424,0.0,0.0,0.0,0.0,0.0,0.0,0.0,-2.5384,-2.5398,-2.5398,-2.5412,-2.5147,-2.4647,-2.4758,-2.4434,-2.3715,-2.3135,-2.249,-2.1851,-2.1745,-2.1691,0.0,0.0,-2.1758,-2.1899,-2.2475,-2.2422,-2.2055,-2.2634,-2.2024,-2.0799,-2.0343,-1.9619,-1.8836,-1.838,-1.8185,-1.8125,-1.8204,-1.8224,-1.8224,-1.8224,-1.8224,-1.8243,-1.8322,-1.8119,-1.7736,-1.7167,-1.6539,-1.5907,-1.534,-1.4943,-1.4706,-1.4706,-1.4964,-1.5111,-1.4767,-1.497,-1.5206,-1.5209,-1.521,-1.5344,-1.5741,-1.5799,-1.5799,-1.5799,-1.5799,-1.5799,-1.5799,-1.5709,-1.5649,-1.5649,-1.5691,-1.5689,-1.5625,-1.6242,-1.6655,-1.6706,-1.6815,-1.6904,-1.6955,-1.6955,-1.7089,-1.738,-1.738,-1.7526,-1.7817,-1.8555,-1.8894,-1.4393,-1.5232,-1.5838,-1.537,-1.6291,-1.7202,-1.6766,-1.6028,-1.5475,-1.5706,-1.5349,-1.5378,-1.6743,-1.6671,-1.7063,-1.9105,-2.0861,-2.217,-2.2724,-2.3029,-2.3324,0.0,0.0,0.0,0.0,0.0,0.0,0.0,0.0,0.0,0.0,0.0,-2.415,-2.415,-2.415,-2.3874,-2.3228,-2.2987,-2.291,-2.2945,-2.2062,-2.1468,-2.1203,-2.0838,-2.066,-2.0664,0.0,-2.0879,-2.1234,-2.1561,-2.1509,-2.1332,-2.1926,-2.1226,-1.9735,-1.882,-1.8314,-1.7967,-1.7435,-1.7229,-1.7271,-1.7565,-1.7666,-1.7666,-1.7666,-1.7666,-1.7605,-1.7333,-1.7353,-1.7399,-1.71,-1.6567,-1.6023,-1.5705,-1.5273,-1.4932,-1.4931,-1.4858,-1.4723,-1.4536,-1.4651,-1.4779,-1.4768,-1.4783,-1.4845,-1.5074,-1.527,-1.5418,-1.5418,-1.5639,-1.5799,-1.5799,-1.5799,-1.5799,-1.5799,-1.5799,-1.5799,-1.5799,-1.626,-1.6528,-1.6528,-1.6699,-1.6802,-1.6802,-1.6802,-1.6879,-1.7027,-1.7211,-1.7578,-1.8143,-1.9079,-1.9722,-1.3529,-1.4237,-1.506,-1.5718,-1.676,-1.7752,-1.8279,-1.7403,-1.6638,-1.7165,-1.676,-1.6584,-1.7589,-1.7614,-1.8078,-1.9899,-2.1493,-2.2498,-2.2498,-2.2844,-2.3108,-2.3108,-2.3108,0.0,0.0,0.0,0.0,0.0,0.0,0.0,0.0,0.0,-2.3045,-2.292,-2.3032,-2.2844,-2.2322,-2.1769,-2.1655,-2.1978,-2.0983,-2.0513,-2.056,-2.0029,-1.9798,-1.9798,-1.9798,-2.0105,-2.0572,-2.0734,-2.0743,-2.0689,-2.1254,-2.0414,-1.8796,-1.7849,-1.7348,-1.7068,-1.6789,-1.6613,-1.6573,-1.6972,-1.7118,-1.7118,-1.7118,-1.7118,-1.7034,-1.6616,-1.6723,-1.6952,-1.6913,-1.656,-1.6152,-1.6002,-1.5576,-1.5175,-1.5053,-1.4772,-1.4492,-1.4237,-1.4283,-1.4362,-1.4372,-1.4358,-1.439,-1.4485,-1.4752,-1.4997,-1.5089,-1.5404,-1.5668,-1.5784,-1.5799,-1.5799,-1.5799,-1.5799,-1.5799,-1.5799,-1.6039,-1.6177,-1.6177,-1.6421,-1.6567,-1.6567,-1.6567,-1.6607,-1.6686,-1.71,-1.7622,-1.83,-1.9439,-2.0307,-1.4494,-1.4833,-1.5148,-1.6174,-1.617,-1.6421,-1.8469,-1.7679,-1.7077,-1.9145,-1.8744,-1.8204,-1.877,-1.971,-2.0616,-2.1282,-2.2293,-2.3045,-2.3045,0.0,-2.3108,-2.3108,0.0,0.0,0.0,0.0,0.0,0.0,0.0,0.0,0.0,0.0,0.0,-2.2355,-2.2844,-2.2844,-2.2322,-2.1769,-2.1257,-2.0822,-2.0163,-1.9862,-1.9875,-1.9824,-1.9798,-1.9798,-1.9798,-1.9824,-1.9927,-2.0547,-2.0441,-1.9938,-2.0597,-1.9795,-1.8253,-1.817,-1.7471,-1.664,-1.7159,-1.6974,-1.6522,-1.6552,-1.6552,-1.6552,-1.6552,-1.6552,-1.6552,-1.6522,-1.6527,-1.6511,-1.6401,-1.6411,-1.6307,-1.5689,-1.5225,-1.4799,-1.4292,-1.4449,-1.4401,-1.3467,-1.3647,-1.3933,-1.3927,-1.395,-1.4068,-1.4438,-1.4517,-1.4674,-1.5058,-1.5134,-1.5329,-1.5755,-1.5799,-1.5799,-1.5799,-1.5799,-1.5799,-1.5799,-1.5827,-1.5842,-1.5842,-1.5856,-1.587,-1.587,-1.587,-1.6025,-1.6342,-1.6977,-1.749,-1.7889,-1.9263,-1.995,-1.3729,-1.435,-1.5072,-1.5819,-1.6107,-1.6688,-1.8569,-1.8757,-1.8995,-2.0539,-2.0289,-1.9711,-1.9535,-2.0426,-2.127,-2.1455,-2.2393,-2.3108,-2.3108,-2.3108,-2.3108,0.0,0.0,0.0,0.0,0.0,0.0,0.0,0.0,0.0,0.0,0.0,0.0,-2.2322,-2.2184,-2.1845,-2.132,-2.1106,-2.0717,-2.0125,-1.9911,-1.9798,-1.9798,-1.9798,-1.9798,-1.9798,-1.9798,-1.9798,-1.9824,-2.0067,-1.9837,-1.9288,-1.9203,-1.8975,-1.8612,-1.7955,-1.7438,-1.7036,-1.6886,-1.6697,-1.65,-1.65,-1.65,-1.65,-1.65,-1.65,-1.65,-1.65,-1.65,-1.6493,-1.6435,-1.6466,-1.6453,-1.6175,-1.5738,-1.5336,-1.5129,-1.4942,-1.4699,-1.4343,-1.4405,-1.4523,-1.4525,-1.4531,-1.4567,-1.4735,-1.4955,-1.5171,-1.5328,-1.5569,-1.5789,-1.5974,-1.5943,-1.5882,-1.5815,-1.5799,-1.5799,-1.5799,-1.5799,-1.5799,-1.5799,-1.5799,-1.5799,-1.5799,-1.5799,-1.6052,-1.6546,-1.7054,-1.7831,-1.881,-1.9544,-2.0145,-1.3483,-1.418,-1.5022,-1.5575,-1.6245,-1.7225,-1.887,-1.9547,-2.0225,-2.1707,-2.143,-2.0736,-2.0042,-2.0789,-2.1459,-2.1354,-2.2346,-2.3108,-2.3108,-2.3108,0.0,0.0,0.0,0.0,0.0,0.0,0.0,0.0,0.0,0.0,0.0,0.0,0.0,0.0,-2.1594,-2.1257,-2.0704,-2.0691,-2.049,-2.0075,-1.9886,-1.9798,-1.9798,-1.9798,-1.9798,-1.9798,-1.9798,-1.9798,-1.9798,-1.9798,-1.9597,-1.9196,-1.8657,-1.8669,-1.8895,-1.799,-1.7561,-1.7348,-1.6923,-1.6651,-1.65,-1.65,-1.65,-1.65,-1.65,-1.65,-1.65,-1.65,-1.65,-1.65,-1.65,-1.65,-1.65,-1.65,-1.6216,-1.592,-1.574,-1.5401,-1.5104,-1.4931,-1.4908,-1.4896,-1.4896,-1.4896,-1.4896,-1.4896,-1.512,-1.5333,-1.5407,-1.5654,-1.5892,-1.6068,-1.6062,-1.613,-1.6383,-1.6398,-1.6218,-1.5829,-1.5799,-1.5917,-1.6198,-1.6124,-1.6183,-1.6406,-1.6187,-1.6383,-1.7029,-1.7502,-1.8237,-1.9189,-1.9636,-2.011,-1.4103,-1.4488,-1.5035,-1.5567,-1.6572,-1.7827,-1.9447,-1.9823,-2.0451,-2.2644,-2.2259,-2.1256,-2.0354,-2.0921,-2.1402,-2.1045,-2.217,-2.3078,-2.3108,-2.3108,0.0,0.0,0.0,0.0,0.0,0.0,0.0,0.0,0.0,0.0,0.0,0.0,0.0,0.0,-2.1219,-2.1232,-2.0691,-2.0679,-2.0679,-2.0679,-2.0075,-1.9798,-1.9798,-1.9798,-1.9798,-1.9798,-1.9798,-1.9798,-1.9798,-1.9798,-1.9798,-1.9748,-1.9208,-1.9008,-1.8945,-1.8405,-1.7852,-1.741,-1.7398,-1.6999,-1.65,-1.65,-1.65,-1.65,-1.65,-1.65,-1.65,-1.65,-1.65,-1.65,-1.65,-1.65,-1.65,-1.65,-1.65,-1.6352,-1.5819,-1.5711,-1.5552,-1.5019,-1.4915,-1.4928,-1.4928,-1.4928,-1.4928,-1.4928,-1.4928,-1.4986,-1.5189,-1.5207,-1.5443,-1.605,-1.6095,-1.6522,-1.7599,-1.7696,-1.716,-1.5918,-1.5844,-1.6228,-1.7065,-1.684,-1.7019,-1.7684,-1.7046,-1.7041,-1.7714,-1.8367,-1.8702,-1.8732,-1.9393,-1.9708,-1.4103,-1.4777,-1.568,-1.6669,-1.7578,-1.8733,-2.0582,-2.0991,-2.1393,-2.2807,-2.2543,-2.1799,-2.092,-2.0961,-2.1139,-2.1015,-2.1704,-2.2445,-2.3005,0.0,0.0,0.0,0.0,0.0,0.0,0.0,0.0,0.0,0.0,0.0,0.0,0.0,0.0,0.0,-2.0426,-2.0225,-2.0062,-2.0062,-2.0062,-2.0049,-1.9886,-1.9798,-1.9798,-1.9798,-1.9798,-1.9798,-1.9798,-1.9798,-1.9798,-1.9798,-1.9798,-1.9786,-1.9623,-1.9572,-1.9459,-1.8543,-1.8103,-1.7852,-1.7049,-1.6638,-1.65,-1.65,-1.65,-1.65,-1.65,-1.65,-1.65,-1.65,-1.6182,-1.5864,-1.5864,-1.5555,-1.5456,-1.6293,-1.65,-1.6454,-1.6305,-1.6257,-1.6208,-1.6061,-1.604,-1.6032,-1.6032,-1.6032,-1.6032,-1.6032,-1.6032,-1.6044,-1.6115,-1.611,-1.6169,-1.6365,-1.6378,-1.6508,-1.6837,-1.6857,-1.7339,-1.847,-1.854,-1.811,-1.7136,-1.7607,-1.7609,-1.7005,-1.7256,-1.7731,-1.8406,-1.8596,-1.8951,-1.9405,-1.9618,-1.9708,-1.489,-1.5701,-1.6685,-1.8016,-1.864,-1.9313,-2.0816,-2.1657,-2.2334,-2.297,-2.2407,-2.16,-2.0965,-2.0653,-2.0572,-2.0792,-2.1447,-2.2199,-2.2975,0.0,0.0,0.0,0.0,0.0,0.0,0.0,0.0,0.0,0.0,0.0,0.0,0.0,0.0,0.0,-1.9987,-1.9798,-1.9798,-1.9798,-1.9798,-1.9798,-1.9798,-1.9798,-1.9798,-1.9798,-1.9798,-1.9798,-1.9798,-1.9798,-1.9798,-1.9798,-1.9798,-1.9798,-1.9798,-1.9673,-1.9397,-1.853,-1.8204,-1.8078,-1.7174,-1.6861,-1.6861,-1.6861,-1.671,-1.65,-1.65,-1.65,-1.65,-1.65,-1.6073,-1.561,-1.561,-1.5141,-1.488,-1.5611,-1.5788,-1.5788,-1.5788,-1.591,-1.602,-1.602,-1.6272,-1.65,-1.65,-1.65,-1.65,-1.65,-1.65,-1.65,-1.65,-1.65,-1.65,-1.65,-1.65,-1.65,-1.65,-1.65,-1.7055,-1.8361,-1.9225,-1.9228,-1.818,-1.8295,-1.8243,-1.7895,-1.8026,-1.8438,-1.9088,-1.9088,-1.9294,-1.9708,-1.9708,-1.9824,-1.6007,-1.6898,-1.7813,-1.9459,-1.9763,-1.9778,-2.0351,-2.1729,-2.2884,-2.2884,-2.185,-2.0845,-2.0533,-2.0115,-1.9948,-2.0512,-2.1322,-2.2156,-2.2975,0.0,0.0,0.0,0.0,0.0,0.0,0.0,0.0,0.0,0.0,0.0,0.0,0.0,0.0,-1.9823,-1.9798,-1.9798,-1.9798,-1.9798,-1.9798,0.0,-1.9798,-1.9798,-1.9798,-1.9798,-1.9798,-1.9798,-1.9798,-1.9798,-1.9798,-1.9798,-1.9798,-1.9798,-1.9721,-1.9408,-1.8909,-1.8299,-1.81,-1.8097,-1.7465,-1.736,-1.7451,-1.7382,-1.7017,-1.6575,-1.6498,-1.6461,-1.6402,-1.6358,-1.5898,-1.5432,-1.5432,-1.4983,-1.4548,-1.4548,-1.4617,-1.4698,-1.4755,-1.5051,-1.5333,-1.54,-1.601,-1.65,-1.65,-1.65,-1.65,-1.65,-1.65,-1.65,-1.65,-1.65,-1.65,-1.65,-1.65,-1.65,-1.65,-1.65,-1.65,-1.65,-1.8341,-1.9406,-1.9406,-1.8848,-1.8835,-1.9509,-1.9043,-1.9099,-1.9708,-1.9708,-1.9738,-1.9794,-1.9779,-2.0154,-1.5563,-1.6609,-1.7901,-1.9987,-2.0925,-2.1051,-1.9846,-2.0398,-2.1132,-2.1132,-2.0882,-2.0456,-1.9738,-2.0019,-2.0456,-2.0579,-2.1095,-2.1894,0.0,0.0,0.0,0.0,0.0,0.0,0.0,0.0,0.0,0.0,0.0,0.0,0.0,0.0,0.0,-1.9823,-1.9798,-1.9798,-1.9798,-1.9798,-1.9798,0.0,-1.9798,-1.9798,-1.9798,-1.9798,-1.9798,-1.9798,-1.9798,-1.9798,-1.9798,-1.9798,-1.9798,-1.9747,-1.9176,-1.8867,-1.8632,-1.7502,-1.7471,-1.7804,-1.6688,-1.7063,-1.7922,-1.7351,-1.7186,-1.712,-1.6584,-1.6123,-1.5688,-1.522,-1.4641,-1.4179,-1.4179,-1.3742,-1.3296,-1.3296,-1.4001,-1.4801,-1.5096,-1.5243,-1.549,-1.612,-1.638,-1.65,-1.65,-1.65,-1.65,-1.65,-1.65,-1.65,-1.65,-1.65,-1.65,-1.65,-1.65,-1.65,-1.65,-1.65,-1.65,-1.65,-1.693,-1.7188,-1.7188,-1.8641,-1.9019,-1.816,-1.9023,-1.9564,-1.9708,-1.9708,-1.9971,-2.0478,-2.0475,-2.0842,-1.5254,-1.6522,-1.7789,-1.9446,-2.0551,-2.0814,-1.9077,-1.9044,-1.9365,-1.9365,-1.9694,-1.9857,-1.9365,-1.9332,-1.9628,-2.0462,-2.0833,-2.1514,0.0,0.0,0.0,0.0,0.0,0.0,0.0,0.0,0.0,0.0,0.0,0.0,0.0,-2.0427,-2.0112,-1.9811,-1.9798,-1.9798,-1.9798,-1.9798,-1.9605,-1.9281,-1.9631,-1.9798,-1.9798,-1.9798,-1.9798,-1.9798,-1.9798,-1.9798,-1.9798,-1.9798,-1.9798,-1.9721,-1.8992,-1.8534,-1.8194,-1.7179,-1.7051,-1.7278,-1.6602,-1.6882,-1.7474,-1.7074,-1.6698,-1.6326,-1.5986,-1.5533,-1.5096,-1.4789,-1.426,-1.3792,-1.3792,-1.3348,-1.2905,-1.2905,-1.3382,-1.3907,-1.4118,-1.4142,-1.4281,-1.4686,-1.57,-1.6129,-1.4971,-1.5722,-1.65,-1.65,-1.65,-1.65,-1.65,-1.65,-1.65,-1.65,-1.65,-1.65,-1.65,-1.65,-1.65,-1.65,-1.65,-1.65,-1.65,-1.7565,-1.8321,-1.8648,-1.9338,-1.9708,-1.9708,-2.0009,-2.0357,-2.0712,-2.1028,-2.1545,-1.4751,-1.6371,-1.7784,-1.8737,-1.9717,-2.0051,-1.8442,-1.8051,-1.8008,-1.8008,-1.8553,-1.9077,-1.9077,-1.863,-1.8687,-2.0139,-2.0581,0.0,0.0,0.0,0.0,0.0,0.0,0.0,0.0,0.0,0.0,0.0,0.0,0.0,-2.0566,-1.9957,-1.9669,-1.9798,-1.9798,-1.9747,-1.9618,-1.9618,-1.9228,-1.8528,-1.9123,-1.9423,-1.9423,-1.9553,-1.9669,-1.9798,-1.9798,-1.9798,-1.9798,-1.9669,-1.9618,-1.9527,-1.8661,-1.8045,-1.7569,-1.6831,-1.6655,-1.6735,-1.659,-1.6735,-1.6922,-1.6788,-1.6207,-1.5528,-1.5353,-1.4999,-1.4625,-1.4432,-1.4037,-1.3637,-1.3637,-1.3262,-1.2905,-1.2905,-1.2905,-1.2905,-1.2905,-1.2905,-1.2905,-1.2905,-1.4502,-1.5242,-1.3248,-1.4571,-1.5888,-1.5888,-1.6216,-1.65,-1.65,-1.65,-1.65,-1.65,-1.65,-1.65,-1.65,-1.65,-1.65,-1.65,-1.65,-1.65,-1.65,-1.65,-1.7333,-1.9114,-1.9151,-1.9332,-1.9708,-2.0256,-2.0671,-2.0995,-2.1545,-2.2194,-1.3328,-1.576,-1.8288,-1.9136,-1.9588,-1.9587,-1.8647,-1.8224,-1.8008,-1.8008,-1.8076,-1.8168,-1.8168,-1.8687,-1.921,-1.9431,-2.0487,0.0,0.0,0.0,0.0,0.0,0.0,0.0,0.0,0.0,0.0,0.0,0.0,0.0,-1.9897,-1.9251,-1.915,-1.9773,-1.9798,-1.9501,-1.8847,-1.8847,-1.8474,-1.7743,-1.7852,-1.7907,-1.7934,-1.8555,-1.9202,-1.9798,-1.9798,-1.9798,-1.9747,-1.9123,-1.8847,-1.8715,-1.733,-1.675,-1.6613,-1.5859,-1.6001,-1.6444,-1.5802,-1.6434,-1.7395,-1.6753,-1.658,-1.6443,-1.5489,-1.4838,-1.4248,-1.3397,-1.3089,-1.3017,-1.3017,-1.2968,-1.2905,-1.2905,-1.2905,-1.2905,-1.2905,-1.2905,-1.2905,-1.2905,-1.3152,-1.3272,-1.2954,-1.3162,-1.3382,-1.3382,-1.5152,-1.65,-1.65,-1.65,-1.65,-1.65,-1.65,-1.65,-1.65,-1.65,-1.65,-1.65,-1.65,-1.65,-1.65,-1.65,-1.6637,-1.6909,-1.693,-1.7847,-1.9708,-1.9791,-2.0605,-2.208,-2.2179,-2.2667,-1.3659,-1.5906,-1.7939,-1.8732,-1.9226,-1.9286,-1.8341,-1.7985,-1.7855,-1.7707,-1.7656,-1.7734,-1.7969,-1.8303,-1.8721,-1.9233,-1.9813,0.0,0.0,0.0,0.0,0.0,0.0,0.0,0.0,0.0,0.0,0.0,0.0,-1.8766,-1.8575,-1.8259,-1.8221,-1.8555,-1.8581,-1.8421,-1.8097,-1.8085,-1.7934,-1.7605,-1.7191,-1.7191,-1.7605,-1.7934,-1.8501,-1.9202,-1.9605,-1.9553,-1.915,-1.8821,-1.8474,-1.7977,-1.6922,-1.6492,-1.6407,-1.5671,-1.5613,-1.5835,-1.5497,-1.5825,-1.6301,-1.5979,-1.5787,-1.5597,-1.5131,-1.4623,-1.4096,-1.3523,-1.3359,-1.3281,-1.2993,-1.2905,-1.2905,-1.2905,-1.2905,-1.3169,-1.4092,-1.3555,-1.2905,-1.2905,-1.2905,-1.2905,-1.2905,-1.2905,-1.3228,-1.416,-1.4401,-1.5429,-1.8025,-1.8355,-1.7877,-1.6626,-1.65,-1.65,-1.65,-1.65,-1.65,-1.65,-1.65,-1.65,-1.65,-1.65,-1.65,-1.65,-1.65,-1.6951,-1.7907,-1.916,-2.0517,-2.1975,-2.2695,-2.3236,-1.3717,-1.5327,-1.6473,-1.7563,-1.8275,-1.848,-1.766,-1.7482,-1.7449,-1.7268,-1.7305,-1.7451,-1.7646,-1.7773,-1.8077,-1.8713,-1.8812,0.0,0.0,0.0,0.0,0.0,0.0,0.0,0.0,0.0,0.0,0.0,0.0,-1.8116,-1.7623,-1.7413,-1.7413,-1.7594,-1.7605,-1.7495,-1.733,-1.7135,-1.7052,-1.7024,-1.6482,-1.651,-1.7052,-1.7219,-1.7633,-1.8178,-1.8927,-1.9044,-1.8661,-1.8313,-1.7825,-1.7246,-1.651,-1.6208,-1.6151,-1.5613,-1.541,-1.541,-1.541,-1.541,-1.541,-1.541,-1.5205,-1.4941,-1.4941,-1.4717,-1.4348,-1.3929,-1.3812,-1.3656,-1.3071,-1.2905,-1.3013,-1.3418,-1.3551,-1.375,-1.459,-1.3769,-1.2905,-1.2905,-1.2905,-1.3042,-1.3447,-1.3164,-1.3482,-1.5156,-1.4336,-1.478,-1.8236,-1.8676,-1.8057,-1.6385,-1.6893,-1.7102,-1.655,-1.7014,-1.7328,-1.7328,-1.7328,-1.7328,-1.7328,-1.7328,-1.7328,-1.7328,-1.7328,-1.7328,-1.734,-1.9007,-2.0286,-2.1257,-2.2871,-2.3595,-1.2589,-1.3131,-1.341,-1.5286,-1.6241,-1.672,-1.6592,-1.6658,-1.6738,-1.6726,-1.709,-1.7266,-1.6843,-1.7139,-1.7455,-1.7478,0.0,0.0,0.0,0.0,0.0,0.0,0.0,0.0,0.0,0.0,0.0,0.0,0.0,-1.6642,-1.7545,-1.695,-1.6877,-1.7578,-1.7605,-1.7246,-1.6567,-1.5864,-1.5517,-1.5517,-1.5468,-1.5468,-1.5555,-1.6226,-1.6567,-1.6652,-1.7385,-1.8085,-1.8581,-1.7202,-1.6595,-1.6492,-1.5748,-1.5468,-1.5439,-1.541,-1.541,-1.541,-1.541,-1.541,-1.541,-1.541,-1.54,-1.5381,-1.5381,-1.5361,-1.5176,-1.4319,-1.4085,-1.3899,-1.3096,-1.2905,-1.3291,-1.4902,-1.5283,-1.4863,-1.334,-1.2964,-1.2905,-1.2905,-1.2905,-1.3389,-1.5,-1.3945,-1.3482,-1.5156,-1.5342,-1.537,-1.5594,-1.5633,-1.5564,-1.5475,-1.7967,-1.8781,-1.6676,-1.843,-1.9635,-1.9635,-1.9635,-1.9635,-1.9635,-1.9635,-1.9635,-1.9635,-1.9635,-1.9635,-1.9635,-1.9748,-1.9837,-1.9965,-2.2441,-2.3595,-1.1247,-1.2042,-1.2904,-1.4029,-1.4925,-1.5481,-1.5333,-1.5766,-1.6139,-1.591,-1.623,-1.6515,-1.6369,-1.6926,-1.7295,-1.7012,0.0,0.0,0.0,0.0,0.0,0.0,0.0,0.0,0.0,0.0,0.0,0.0,0.0,0.0,-1.62,-1.6213,-1.6214,-1.6197,-1.6187,-1.6054,-1.5806,-1.5526,-1.541,-1.541,-1.541,-1.541,-1.541,-1.5671,-1.6065,-1.6492,-1.6283,-1.6602,-1.7257,-1.6708,-1.6208,-1.5787,-1.5497,-1.541,-1.541,-1.541,-1.541,-1.541,-1.541,-1.541,-1.541,-1.541,-1.541,-1.541,-1.541,-1.541,-1.5313,-1.5011,-1.4923,-1.4855,-1.458,-1.4502,-1.4658,-1.5264,-1.541,-1.5244,-1.4639,-1.4502,-1.4502,-1.4502,-1.4502,-1.4697,-1.5312,-1.4902,-1.4707,-1.5322,-1.541,-1.541,-1.541,-1.541,-1.541,-1.541,-1.6348,-1.6649,-1.5865,-1.8249,-1.9798,-1.9798,-1.9798,-1.9798,-1.9798,-1.9798,-1.9798,-1.9798,-1.9798,-1.9798,-1.9798,-1.9798,-1.9798,-1.9824,-2.0731,-2.1159,-1.0402,-1.0991,-1.1841,-1.2731,-1.3393,-1.3893,-1.4164,-1.4774,-1.529,-1.5221,-1.5684,-1.6046,-1.5899,-1.6476,-1.6846,-1.6553,0.0,0.0,0.0,0.0,0.0,0.0,0.0,0.0,0.0,0.0,0.0,0.0,0.0,0.0,-1.5664,-1.5762,-1.5713,-1.542,-1.541,-1.541,-1.541,-1.541,-1.541,-1.541,-1.541,-1.541,-1.541,-1.541,-1.5671,-1.6093,-1.5604,-1.5806,-1.6492,-1.6236,-1.5835,-1.541,-1.541,-1.541,-1.541,-1.541,-1.541,-1.541,-1.541,-1.541,-1.541,-1.541,-1.541,-1.541,-1.541,-1.541,-1.541,-1.541,-1.541,-1.541,-1.541,-1.541,-1.541,-1.541,-1.541,-1.541,-1.541,-1.541,-1.541,-1.541,-1.541,-1.541,-1.541,-1.541,-1.541,-1.541,-1.541,-1.541,-1.541,-1.541,-1.541,-1.541,-1.541,-1.541,-1.541,-1.8101,-1.9798,-1.9798,-1.9798,-1.9798,-1.9798,-1.9798,-1.9798,-1.9798,-1.9798,-1.9798,-1.9798,-1.9798,-1.9798,-1.9798,-1.9798,-1.9798,0.0,0.0,0.0,-1.1304,-1.1619,-1.1943,-1.315,-1.3724,-1.4163,-1.4648,-1.5449,-1.5919,-1.5488,-1.5782,-1.6075,-1.6075,0.0,0.0,0.0,0.0,0.0,0.0,0.0,0.0,0.0,0.0,0.0,0.0,0.0,-1.6105,-1.6095,-1.5644,-1.541,-1.541,-1.541,-1.541,-1.541,-1.541,-1.541,-1.541,-1.541,-1.541,-1.541,-1.541,-1.541,-1.541,-1.541,-1.5806,-1.6407,-1.569,-1.541,-1.541,-1.541,-1.541,-1.541,-1.541,-1.541,-1.541,-1.541,-1.541,-1.541,-1.541,-1.541,-1.541,-1.541,-1.541,-1.541,-1.541,-1.541,-1.541,-1.541,-1.541,-1.541,-1.541,-1.541,-1.541,-1.541,-1.541,-1.541,-1.541,-1.541,-1.541,-1.541,-1.541,-1.541,-1.541,-1.541,-1.541,-1.541,-1.541,-1.541,-1.541,-1.541,-1.541,-1.541,-1.802,-1.9721,-1.9798,-1.9721,-1.9721,-1.9798,-1.9798,-1.9798,-1.9798,-1.9798,-1.9798,-1.9798,-1.9798,-1.9798,-1.9798,-1.9798,-1.9798,-0.9323,0.0,0.0,0.0,0.0,0.0,-1.1038,-1.176,-1.2602,-1.3643,-1.4287,-1.4824,-1.5322,-1.5508,-1.5586,-1.5586,0.0,0.0,0.0,0.0,0.0,0.0,0.0,0.0,0.0,0.0,0.0,0.0,-1.6865,-1.6406,-1.6114,-1.5644,-1.541,-1.541,-1.541,-1.541,-1.541,-1.541,-1.541,-1.541,-1.541,-1.541,-1.541,-1.541,-1.541,-1.541,-1.541,-1.5526,-1.57,-1.5468,-1.541,-1.541,-1.541,-1.541,-1.541,-1.541,-1.541,-1.541,-1.541,-1.541,-1.541,-1.541,-1.541,-1.541,-1.541,-1.541,-1.541,-1.541,-1.541,-1.541,-1.541,-1.541,-1.541,-1.541,-1.541,-1.541,-1.541,-1.541,-1.541,-1.541,-1.541,-1.541,-1.541,-1.541,-1.541,-1.541,-1.541,-1.541,-1.541,-1.541,-1.541,-1.541,-1.541,-1.541,-1.541,-1.6159,-1.7528,-1.9669,-1.7802,-1.7583,-1.9721,-1.9798,-1.9798,-1.9798,-1.9798,-1.9798,-1.9798,-1.9798,-1.9798,-1.9798,-1.9798,-1.9798,-0.968,-0.9545,-0.9601,-0.9551,0.0,0.0,-1.0616,-1.1076,-1.1682,0.0,-1.3584,-1.4055,-1.4728,-1.5029,-1.5146,-1.5146,0.0,0.0,0.0,0.0,0.0,0.0,0.0,0.0,0.0,0.0,0.0,-1.7119,-1.6699,-1.626,-1.584,-1.5547,-1.541,-1.541,-1.541,-1.541,-1.541,-1.541,-1.541,-1.541,-1.541,-1.541,-1.541,-1.541,-1.541,-1.541,-1.541,-1.541,-1.541,-1.541,-1.541,-1.541,-1.541,-1.541,-1.541,-1.541,-1.541,-1.541,-1.541,-1.541,-1.541,-1.541,-1.541,-1.541,-1.541,-1.541,-1.541,-1.541,-1.541,-1.541,-1.541,-1.541,-1.541,-1.541,-1.541,-1.541,-1.541,-1.541,-1.541,-1.541,-1.541,-1.541,-1.541,-1.541,-1.541,-1.541,-1.541,-1.541,-1.541,-1.541,-1.541,-1.541,-1.541,-1.541,-1.541,-1.541,-1.612,-1.7857,-1.6348,-1.6187,-1.7872,-1.9137,-1.9798,-1.9798,-1.9798,-1.9798,-1.9798,-1.9798,-1.9798,-1.9798,-1.9798,-1.9798,-1.076,-1.0151,-0.9835,-1.0215,-0.9707,0.0,-1.0968,-1.1066,-1.1191,0.0,-1.2998,-1.3437,-1.388,-1.4346,-1.4629,-1.4608,0.0,0.0,0.0,0.0,0.0,0.0,0.0,0.0,0.0,-1.7314,-1.7148,-1.6726,-1.6318,-1.5909,-1.5439,-1.541,-1.541,-1.541,-1.541,-1.541,-1.541,-1.541,-1.541,-1.541,-1.541,-1.541,-1.541,-1.541,-1.541,-1.541,-1.541,-1.541,-1.541,-1.541,-1.541,-1.541,-1.541,-1.541,-1.541,-1.541,-1.541,-1.541,-1.541,-1.541,-1.5381,-1.5294,-1.5323,-1.541,-1.541,-1.5138,-1.4923,-1.5294,-1.541,-1.541,-1.541,-1.541,-1.541,-1.541,-1.541,-1.541,-1.541,-1.541,-1.541,-1.541,-1.541,-1.541,-1.541,-1.541,-1.541,-1.541,-1.541,-1.541,-1.541,-1.541,-1.541,-1.541,-1.541,-1.541,-1.541,-1.541,-1.541,-1.541,-1.541,-1.541,-1.541,-1.8236,-1.9798,-1.9798,-1.9798,-1.9798,-1.9798,-1.9798,-1.9798,-1.9798,-1.9798,-1.9936,-1.1959,-1.1326,-1.0596,-1.0361,-1.0175,0.0,-0.959,-0.9971,-1.0576,0.0,-1.1663,-1.221,-1.3003,-1.3467,-1.3643,-1.3336,0.0,0.0,0.0,0.0,0.0,0.0,0.0,0.0,0.0,-1.6824,-1.6794,-1.6707,-1.6318,-1.5909,-1.5439,-1.541,-1.541,-1.541,-1.541,-1.541,-1.541,-1.541,-1.541,-1.541,-1.541,-1.541,-1.541,-1.541,-1.541,-1.541,-1.541,-1.541,-1.541,-1.541,-1.541,-1.541,-1.541,-1.541,-1.541,-1.541,-1.541,-1.541,-1.541,-1.541,-1.5294,-1.4628,-1.4864,-1.541,-1.541,-1.3597,-1.2081,-1.4688,-1.541,-1.541,-1.541,-1.541,-1.541,-1.541,-1.541,-1.541,-1.541,-1.541,-1.541,-1.541,-1.541,-1.541,-1.541,-1.541,-1.541,-1.541,-1.541,-1.541,-1.541,-1.541,-1.541,-1.541,-1.541,-1.541,-1.541,-1.541,-1.541,-1.541,-1.541,-1.541,-1.541,-1.8236,-1.9798,-1.9798,-1.9798,-1.9798,-1.9798,-1.9798,-1.9798,-1.9798,-1.9798,-2.0738,-1.2894,-1.2047,-1.1203,-1.0997,-1.0616,0.0,0.0,-0.9961,-1.0205,-1.1076,-1.1252,-1.1526,-1.2393,-1.291,-1.3125,-1.2935,0.0,0.0,0.0,0.0,0.0,0.0,0.0,0.0,0.0,-1.657,-1.6609,-1.6416,-1.5986,-1.5644,-1.542,-1.541,-1.541,-1.541,-1.541,-1.541,-1.541,-1.541,-1.541,-1.541,-1.541,-1.541,-1.541,-1.541,-1.541,-1.541,-1.541,-1.5167,-1.4835,-1.5225,-1.4932,-1.4273,-1.5079,-1.5138,-1.4805,-1.4805,-1.4717,-1.4569,-1.4302,-1.4016,-1.3768,-1.3636,-1.3876,-1.4234,-1.451,-1.2718,-1.0926,-1.2565,-1.4165,-1.5021,-1.3416,-1.3023,-1.3023,-1.3023,-1.4225,-1.541,-1.541,-1.541,-1.541,-1.541,-1.541,-1.541,-1.541,-1.541,-1.541,-1.541,-1.541,-1.541,-1.541,-1.541,-1.541,-1.541,-1.541,-1.541,-1.541,-1.541,-1.541,-1.541,-1.541,-1.541,-1.541,-1.6817,-1.829,-1.9773,-1.9798,-1.9798,-1.9798,-1.9798,-1.9798,-1.9823,-2.0941,-2.2042,-1.38,-1.2828,-1.2044,-1.1687,-1.1193,-1.0782,0.0,0.0,0.0,-1.1027,-1.0997,0.0,0.0,0.0,0.0,0.0,0.0,0.0,0.0,0.0,0.0,0.0,0.0,0.0,0.0,-1.6074,-1.6122,-1.5987,-1.5459,-1.5206,-1.54,-1.541,-1.541,-1.541,-1.541,-1.541,-1.541,-1.541,-1.541,-1.541,-1.541,-1.541,-1.541,-1.541,-1.5323,-1.5177,-1.5177,-1.4717,-1.4025,-1.4658,-1.4174,-1.313,-1.4599,-1.4688,-1.3974,-1.3974,-1.3816,-1.3575,-1.3152,-1.2726,-1.2412,-1.2665,-1.2787,-1.2879,-1.3122,-1.242,-1.1382,-1.0776,-1.2931,-1.4658,-1.1445,-1.0593,-1.0593,-1.0593,-1.2565,-1.4471,-1.4471,-1.4471,-1.4471,-1.4471,-1.4982,-1.541,-1.541,-1.541,-1.541,-1.541,-1.541,-1.541,-1.541,-1.541,-1.541,-1.541,-1.541,-1.541,-1.541,-1.541,-1.541,-1.541,-1.541,-1.541,-1.541,-1.541,-1.6507,-1.8927,-1.927,-1.9282,-1.8953,-1.8953,-1.9254,-1.9849,-2.2067,-2.3108,-1.4835,-1.4307,-1.3686,0.0,-1.2103,-1.209,0.0,0.0,-1.0566,-0.9952,0.0,0.0,0.0,0.0,0.0,0.0,0.0,0.0,0.0,0.0,0.0,0.0,0.0,0.0,0.0,0.0,-1.4699,-1.543,-1.4708,-1.4582,-1.5371,-1.541,-1.541,-1.541,-1.541,-1.541,-1.541,-1.541,-1.541,-1.541,-1.541,-1.541,-1.541,-1.541,-1.5021,-1.4332,-1.4332,-1.3876,-1.313,-1.3213,-1.3161,-1.31,-1.4004,-1.3846,-1.313,-1.313,-1.313,-1.307,-1.3009,-1.2978,-1.2787,-1.2143,-1.2104,-1.2135,-1.1226,-1.2779,-1.4264,-1.1382,-1.2931,-1.4658,-1.1445,-1.0593,-1.0593,-1.0593,-1.087,-1.1139,-1.1139,-1.1139,-1.1139,-1.1139,-1.3446,-1.541,-1.541,-1.541,-1.541,-1.541,-1.541,-1.541,-1.541,-1.541,-1.541,-1.541,-1.541,-1.541,-1.541,-1.541,-1.541,-1.541,-1.541,-1.541,-1.541,-1.541,-1.5546,-1.5872,-1.7413,-1.7433,-1.5911,-1.5911,-1.7252,-1.9849,-2.2067,-2.3108,-1.5438,0.0,0.0,0.0,0.0,0.0,-1.0673,0.0,-1.0508,0.0,0.0,0.0,0.0,0.0,0.0,0.0,-1.1496,0.0,0.0,0.0,0.0,0.0,0.0,0.0,0.0,0.0,0.0,0.0,0.0,-1.4377,-1.5019,-1.5283,-1.541,-1.541,-1.541,-1.541,-1.541,-1.541,-1.541,-1.5381,-1.4932,-1.4688,-1.4688,-1.4213,-1.3816,-1.3485,-1.3485,-1.3061,-1.2328,-1.2826,-1.2458,-1.1694,-1.2473,-1.2596,-1.2297,-1.2297,-1.1996,-1.1608,-1.1608,-1.1608,-1.1538,-1.1202,-1.1163,-1.1202,-1.0744,-1.1538,-1.232,-1.0989,-1.1562,-1.2289,-1.0958,-1.0593,-1.0593,-1.0593,-1.0593,-1.0593,-1.0593,-1.0593,-1.0593,-1.0593,-1.1686,-1.2626,-1.2626,-1.4165,-1.541,-1.541,-1.541,-1.541,-1.541,-1.541,-1.541,-1.541,-1.541,-1.541,-1.541,-1.541,-1.541,-1.541,-1.541,-1.541,-1.541,-1.541,-1.5889,-1.6904,-1.7637,-1.7656,-1.6924,-1.6924,-1.755,-1.8842,-2.1753,-2.3108,-1.6262,0.0,0.0,0.0,0.0,0.0,0.0,0.0,0.0,0.0,0.0,0.0,0.0,0.0,-1.1055,-1.0928,0.0,-1.1302,0.0,0.0,0.0,0.0,0.0,0.0,0.0,0.0,0.0,0.0,0.0,0.0,-1.4774,-1.5078,-1.5293,-1.541,-1.541,-1.5294,-1.5079,-1.5079,-1.4962,-1.4746,-1.4145,-1.3876,-1.3846,-1.3282,-1.2887,-1.2665,-1.2665,-1.2205,-1.1531,-1.2089,-1.1663,-1.0649,-1.1226,-1.1469,-1.1469,-1.1469,-1.1108,-1.0593,-1.0593,-1.0593,-1.0593,-1.0593,-1.0593,-1.0593,-1.0593,-1.0593,-1.0593,-1.0593,-1.0593,-1.0593,-1.0593,-1.0593,-1.0593,-1.0593,-1.0593,-1.0593,-1.0593,-1.0593,-1.0593,-1.0593,-1.0593,-1.0593,-1.0593,-1.3265,-1.541,-1.541,-1.541,-1.541,-1.541,-1.541,-1.541,-1.541,-1.541,-1.541,-1.541,-1.541,-1.5615,-1.6094,-1.6123,-1.6123,-1.6123,-1.6123,-1.6719,-1.7988,-1.8008,-1.8008,-1.8008,-1.8008,-1.8008,-1.8076,-2.1499,-2.3108,0.0,0.0,0.0,-1.4687,0.0,0.0,0.0,0.0,-1.1973,0.0,0.0,0.0,0.0,-1.1577,-1.1418,-1.0977,-1.1301,0.0,0.0,0.0,0.0,0.0,0.0,0.0,0.0,0.0,0.0,0.0,0.0,0.0,-1.4697,-1.4795,-1.499,-1.54,-1.541,-1.5021,-1.4243,-1.4243,-1.3855,-1.307,-1.3039,-1.3039,-1.3039,-1.3009,-1.2573,-1.1826,-1.1826,-1.1375,-1.0656,-1.0688,-1.0656,-1.0593,-1.0624,-1.0656,-1.0656,-1.0656,-1.0624,-1.0593,-1.0593,-1.0593,-1.0593,-1.0593,-1.0593,-1.0593,-1.0593,-1.0593,-1.0593,-1.0593,-1.0593,-1.0593,-1.0593,-1.0593,-1.0593,-1.0593,-1.0593,-1.0593,-1.0593,-1.0593,-1.0593,-1.0593,-1.0593,-1.0593,-1.0593,-1.3265,-1.541,-1.541,-1.541,-1.541,-1.541,-1.541,-1.541,-1.541,-1.541,-1.541,-1.541,-1.541,-1.6133,-1.7822,-1.793,-1.793,-1.793,-1.793,-1.7949,-1.8008,-1.8008,-1.8008,-1.8008,-1.8008,-1.8008,-1.8076,-2.1499,-2.3108,0.0,0.0,-1.7547,-1.6114,0.0,0.0,0.0,0.0,0.0,0.0,0.0,0.0,0.0,-1.1606,-1.1438,-1.0977,-1.1035,-1.083,0.0,0.0,0.0,0.0,0.0,0.0,0.0,0.0,0.0,0.0,0.0,0.0,0.0,-1.4079,-1.4156,-1.4201,-1.446,-1.4213,-1.3394,-1.3403,-1.3282,-1.2978,-1.2451,-1.2205,-1.2205,-1.1663,-1.1264,-1.1021,-1.1021,-1.0863,-1.0593,-1.0593,-1.0593,-1.0593,-1.0593,-1.0593,-1.0593,-1.0593,-1.0593,-1.0593,-1.0593,-1.0593,-1.0593,-1.0593,-1.0593,-1.0593,-1.0593,-1.0593,-1.0593,-1.0593,-1.0593,-1.0593,-1.0593,-1.0593,-1.0593,-1.0593,-1.0593,-1.0593,-1.0593,-1.0593,-1.0593,-1.0593,-1.0593,-1.0841,-1.1618,-1.2624,-1.3101,-1.2336,-1.4046,-1.541,-1.541,-1.541,-1.541,-1.541,-1.541,-1.541,-1.541,-1.6465,-1.7383,-1.7978,-1.8008,-1.8008,-1.8008,-1.8008,-1.8008,-1.8008,-1.8008,-1.8008,-1.8008,-1.8008,-1.8008,-1.8042,-1.9199,-1.9705,-1.8781,-1.8672,0.0,-1.7397,-1.6536,0.0,-1.4278,0.0,0.0,0.0,0.0,0.0,0.0,-1.2132,-1.1709,-1.1404,-1.1092,-1.0644,0.0,-0.9845,0.0,0.0,0.0,-1.0992,0.0,0.0,-1.118,-1.1477,-1.1125,0.0,0.0,0.0,-1.3162,-1.3254,-1.3593,-1.3394,-1.2573,-1.2573,-1.2428,-1.2151,-1.1624,-1.1375,-1.1351,-1.0832,-1.0593,-1.0593,-1.0593,-1.0593,-1.0593,-1.0593,-1.0593,-1.0593,-1.0593,-1.0593,-1.0593,-1.0593,-1.0593,-1.0593,-1.0593,-1.0593,-1.0593,-1.0593,-1.0593,-1.0593,-1.0593,-1.0593,-1.0593,-1.0593,-1.0593,-1.0593,-1.0593,-1.0593,-1.0593,-1.0593,-1.0593,-1.0593,-1.0593,-1.0593,-1.0713,-1.1129,-1.1216,-1.1457,-1.2171,-1.2305,-1.2051,-1.133,-1.2983,-1.4296,-1.4296,-1.5492,-1.6338,-1.6338,-1.6338,-1.6338,-1.6338,-1.7363,-1.8008,-1.8008,-1.8008,-1.8008,-1.8008,-1.8008,-1.8008,-1.8008,-1.8008,-1.8008,-1.8008,-1.8008,-1.8008,-1.8008,-1.8008,-1.8008]},{"header":{"parameterUnit":"m.s-1","parameterCategory":1,"la1":30.6,"la2":29.2853,"lo1":-89.7004,"lo2":-87.6739,"dy":0.0162,"dx":0.0183,"nx":112,"ny":82,"refTime":"2026-05-19T00:00:00:Z","depth":0,"parameterNumber":3,"parameterNumberName":"V-component_of_WINDS"},"data":[0.0,0.0,0.0,0.0,0.0,0.0,0.0,0.0,0.0,0.0,0.0,0.0,0.0,0.0,0.0,0.0,0.0,0.0,0.0,0.0,0.0,0.0,0.0,0.0,0.0,0.0,0.0,0.0,0.0,0.0,0.0,0.0,0.0,0.0,0.0,0.0,0.0,0.0,0.0,0.0,0.0,0.0,0.0,0.0,0.0,0.0,0.0,0.0,0.0,0.0,0.0,0.0,0.0,0.0,0.0,0.0,0.0,0.0,0.0,0.0,0.0,0.0,0.0,0.0,0.0,0.0,0.0,0.0,0.0,0.0,0.0,0.0,0.0,0.0,0.0,0.0,0.0,0.0,0.0,0.0,0.0,0.0,0.0,0.0,0.0,0.0,0.0,0.0,0.0,0.0,-0.0409,-0.1435,-0.3013,-0.401,-0.4045,-0.4656,-0.4763,-0.4042,0.0,0.0,0.0,0.0,0.0,0.0,0.0,0.0,0.0,0.0,0.0,0.0,0.0,0.0,0.0,0.0,0.0,0.0,0.0,0.0,0.0,0.0,0.0,0.0,0.0,0.0,0.0,0.0,0.0,0.0,0.0,0.0,0.0,0.0,0.0,0.0,0.0,0.0,0.0,0.0,0.0,0.0,0.0,0.0,0.0,0.0,0.0,0.0,0.0,0.0,0.0,0.0,0.0,0.0,0.0,0.0,0.0,0.0,0.0,0.0,0.0,0.0,0.0,0.0,0.0,0.0,0.0,0.0,0.0,0.0,0.0,0.0,0.0,0.0,0.0,0.0,0.0,0.0,0.0,0.0,0.0,0.0,0.0,0.0,0.0,0.0,0.0,0.0,0.0,0.0,0.0,0.0,0.0,0.0,0.0,0.0,0.0,0.0,0.0,0.0,0.0,0.0,0.0,0.0,-0.0691,-0.2481,-0.3464,-0.4045,-0.4151,-0.4642,-0.4392,-0.3178,0.0,0.0,0.0,0.0,0.0,0.0,0.0,0.0,0.0,0.0,0.0,0.0,0.0,0.0,0.0,0.0,0.0,0.0,0.0,0.0,0.0,0.0,0.0,0.0,0.0,0.0,0.0,0.0,0.0,0.0,0.0,0.0,0.0,0.0,0.0,0.0,0.0,0.0,0.0,0.0,0.0,0.0,0.0,0.0,0.0,0.0,0.0,0.0,0.0,0.0,0.0,0.0,0.0,0.0,0.0,0.0,0.0,0.0,0.0,0.0,0.0,0.0,0.0,0.0,0.0,0.0,0.0,0.0,0.0,0.0,0.0,0.0,0.0,0.0,0.0,0.0,0.0,0.0,0.0,0.0,0.0,0.0,0.0,0.0,0.0,0.0,0.0,0.0,0.0,0.0,0.0,0.0,0.0,0.0,0.0,0.0,0.0,0.0,0.0,0.0,0.0,0.0,0.0,-0.1162,-0.1981,-0.3343,-0.4264,-0.4577,-0.414,-0.4602,-0.4304,-0.2876,-0.33,0.0,0.0,0.0,0.0,0.0,0.0,0.0,0.0,0.0,0.0,0.0,0.0,0.0,0.0,0.0,0.0,0.0,0.0,0.0,0.0,0.0,0.0,0.0,0.0,0.0,0.0,0.0,0.0,0.0,0.0,0.0,0.0,0.0,0.0,0.0,0.0,0.0,0.0,0.0,0.0,0.0,0.0,0.0,0.0,0.0,0.0,0.0,0.0,0.0,0.0,0.0,0.0,0.0,0.0,0.0,0.0,0.0,0.0,0.0,0.0,0.0,0.0,0.0,0.0,0.0,0.0,0.0,0.0,0.0,0.0,0.0,0.0,0.0,0.0,0.0,0.0,0.0,0.0,0.0,0.0,0.0,0.0,0.0,0.0,0.0,0.0,0.0,0.0,0.0,0.0,0.0,0.0,0.0,0.0,0.0,0.0,0.0,0.0,0.0,0.0,0.0,0.0,-0.2096,-0.2951,-0.3575,-0.4641,-0.4798,-0.3471,-0.4105,-0.3919,-0.2323,-0.2753,0.0,0.0,0.0,0.0,0.0,0.0,0.0,0.0,0.0,0.0,0.0,0.0,0.0,0.0,0.0,0.0,0.0,0.0,0.0,0.0,0.0,0.0,0.0,0.0,0.0,0.0,0.0,0.0,0.0,0.0,0.0,0.0,0.0,0.0,0.0,0.0,0.0,0.0,0.0,0.0,0.0,0.0,0.0,0.0,0.0,0.0,0.0,0.0,0.0,0.0,0.0,0.0,0.0,0.0,0.0,0.0,0.0,0.0,0.0,0.0,0.0,0.0,0.0,0.0,0.0,0.0,0.0,0.0,0.0,0.0,0.0,0.0,0.0,0.0,0.0,0.0,0.0,0.0,0.0,0.0,0.0,0.0,0.0,0.0,0.0,0.0,0.0,0.0,0.0,0.0,0.0,0.0,0.0,0.0,0.0,0.0,0.0,0.0,0.0,0.0,0.0,0.0,-0.2041,-0.2671,-0.2626,-0.4118,-0.4147,-0.1705,-0.2855,-0.2876,-0.0956,-0.1623,0.0,0.0,0.0,0.0,0.0,0.0,0.0,0.0,0.0,0.0,0.0,0.0,0.0,0.0,0.0,0.0,0.0,0.0,0.0,0.0,0.0,0.0,0.0,0.0,0.0,0.0,0.0,0.0,0.0,0.0,0.0,0.0,0.0,0.0,0.0,0.0,0.0,0.0,0.0,0.0,0.0,0.0,0.0,0.0,0.0,0.0,0.0,0.0,0.0,0.0,0.0,0.0,0.0,0.0,0.0,0.0,0.0,0.0,0.0,0.0,0.0,0.0,0.0,0.0,0.0,0.0,0.0,0.0,0.0,0.0,0.0,0.0,0.0,0.0,0.0,0.0,0.0,0.0,0.0,0.0,0.0,0.0,0.0,0.0,0.0,0.0,0.0,0.0,0.0,0.0,0.0,0.0,0.0,0.0,0.0,0.0,0.0,0.0,0.0,0.0,0.0,0.0,-0.1885,-0.22,-0.3217,-0.3499,-0.2975,-0.1432,-0.2283,-0.2269,-0.0785,0.0,0.0,0.0,0.0,0.0,0.0,0.0,0.0,0.0,0.0,0.0,0.0,0.0,0.0,0.0,0.0,0.0,0.0,0.0,0.0,0.0,0.0,0.0,0.0,0.0,0.0,0.0,0.0,0.0,0.0,0.0,0.0,0.0,0.0,0.0,0.0,0.0,0.0,0.0,0.0,0.0,0.0,0.0,0.0,0.0,0.0,0.0,0.0,0.0,0.0,0.0,0.0,0.0,0.0,0.0,0.0,0.0,0.0,0.0,0.0,0.0,0.0,0.0,0.0,0.0,0.0,0.0,0.0,0.0,0.0,0.0,0.0,0.0,0.0,0.0,0.0,0.0,0.0,0.0,0.0,0.0,0.0,0.0,0.0,0.0,0.0,0.0,0.0,0.0,0.0,0.0,0.0,0.0,0.0,0.0,0.0,0.0,0.0,0.0,0.0,0.0,0.0,-0.2246,-0.1747,-0.1819,-0.3143,-0.2907,-0.2155,-0.0986,-0.1594,-0.1608,-0.0543,0.0,0.0,0.0,0.0,0.0,0.0,0.0,0.0,0.0,0.0,0.0,0.0,0.0,0.0,0.0,0.0,0.0,0.0,0.0,0.0,0.0,0.0,0.0,0.0,0.0,0.0,0.0,0.0,0.0,0.0,0.0,0.0,0.0,0.0,0.0,0.0,0.0,0.0,0.0,0.0,0.0,0.0,0.0,0.0,0.0,0.0,0.0,0.0,0.0,0.0,0.0,0.0,0.0,0.0,0.0,0.0,0.0,0.0,0.0,0.0,0.0,0.0,0.0,0.0,0.0,0.0,0.0,0.0,0.0,0.0,0.0,0.0,0.0,0.0,0.0,0.0,0.0,0.0,0.0,0.0,0.0,0.0,0.0,0.0,0.0,0.0,0.0,0.0,0.0,0.0,0.0,0.0,0.0,0.0,0.0,0.0,0.0,0.0,0.0,0.0,0.0,0.0,-0.2095,-0.1659,-0.1525,-0.2122,-0.2372,-0.1794,-0.014,-0.0661,-0.0768,0.0,0.0,0.0,0.0,0.0,0.0,0.0,0.0,0.0,0.0,0.0,0.0,0.0,0.0,0.0,0.0,0.0,0.0,0.0,0.0,0.0,0.0,0.0,0.0,0.0,0.0,0.0,0.0,0.0,0.0,0.0,0.0,0.0,0.0,0.0,0.0,0.0,0.0,0.0,0.0,0.0,0.0,0.0,0.0,0.0,0.0,0.0,0.0,0.0,0.0,0.0,0.0,0.0,0.0,0.0,0.0,0.0,0.0,0.0,0.0,0.0,0.0,0.0,0.0,0.0,0.0,0.0,0.0,0.0,0.0,0.0,0.0,0.0,0.0,0.0,0.0,0.0,0.0,0.0,0.0,0.0,0.0,0.0,0.0,0.0,0.0,0.0,0.0,0.0,0.0,0.0,0.0,0.0,0.0,0.0,0.0,0.0,0.0,0.0,0.0,0.0,0.0,0.0,-0.1955,-0.1079,-0.0809,-0.1934,-0.126,-0.0546,-0.0054,-0.0196,-0.0241,-0.002,0.0,0.0,0.0,0.0,0.0,0.0,0.0,0.0,0.0,0.0,0.0,0.0,0.0,0.0,0.0,0.0,0.0,0.0,0.0,0.0,0.0,0.0,0.0,0.0,0.0,0.0,0.0,0.0,0.0,0.0,0.0,0.0,0.0,0.0,0.0,0.0,0.0,0.0,0.0,0.0,0.0,0.0,0.0,0.0,0.0,0.0,0.0,0.0,0.0,0.0,0.0,0.0,0.0,0.0,0.0,0.0,0.0,0.0,0.0,0.0,0.0,0.0,0.0,0.0,0.0,0.0,0.0,0.0,0.0,0.0,0.0,0.0,0.0,0.0,0.0,0.0,0.0,0.0,0.0,0.0,0.0,0.0,0.0,0.0,0.0,0.0,0.0,0.0,0.0,0.0,0.0,0.0,0.0,0.0,0.0,0.0,0.0,0.0,0.0,0.0,0.0,0.0,-0.1553,-0.0677,-0.0426,-0.153,-0.0651,0.0,0.0,0.0,0.0,0.0,0.0,0.0,0.0,0.0,0.0,0.0,0.0,0.0,0.0,0.0,0.0,0.0,0.0,0.0,0.0,0.0,0.0,0.0,0.0,0.0,0.0,0.0,0.0,0.0,0.0,0.0,0.0,0.0,0.0,0.0,0.0,0.0,0.0,0.0,0.0,0.0,0.0,0.0,0.0,0.0,0.0,0.0,0.0,0.0,0.0,0.0,0.0,0.0,0.0,0.0,0.0,0.0,0.0,0.0,0.0,0.0,0.0,0.0,0.0,0.0,0.0,0.0,0.0,0.0,0.0,0.0,0.0,0.0,0.0,0.0,0.0,0.0,0.0,0.0,0.0,0.0,0.0,0.0,0.0,0.0,0.0,0.0,0.0,0.0,0.0,0.0,0.0,0.0,0.0,0.0,0.0,0.0,0.0,0.0,0.0,0.0,0.0,0.0,0.0,0.0,0.0,0.0,-0.1041,-0.0438,-0.0289,-0.0999,-0.0427,0.0,0.0,0.0,0.0,0.0,0.0,0.0,0.0,0.0,0.0,0.0,0.0,0.0,0.0,0.0,0.0,0.0,0.0,0.0,0.0,0.0,0.0,0.0,0.0,0.0,0.0,0.0,0.0,0.0,0.0,0.0,0.0,0.0,0.0,0.0,0.0,0.0,0.0,0.0,0.0,0.0,0.0,0.0,0.0,0.0,0.0,0.0,0.0,0.0,0.0,0.0,0.0,0.0,0.0,0.0,0.0,0.0,0.0,0.0,0.0,0.0,0.0,0.0,0.0,0.0,0.4677,0.0,0.0,0.0,0.0,0.0,0.0,0.0,0.0,0.0,0.0,0.0,0.0,0.0,0.0,0.0,0.0,0.0,0.0,0.0,0.0,0.0,0.0,0.0,0.0,0.0,0.0,0.0,0.0,0.0,0.0,0.0,0.0,0.0,0.0,0.0,0.0,0.0,0.0,0.0,0.0,0.0,-0.0887,-0.039,-0.0231,-0.0864,-0.0387,0.0,0.0,0.0,0.0,0.0,0.0,0.0,0.0,0.0,0.0,0.0,0.0,0.0,0.0,0.0,0.0,0.0,0.0,0.0,0.0,0.0,0.0,0.0,0.0,0.0,0.0,0.0,0.0,0.0,0.0,0.0,0.0,0.0,0.0,0.0,0.0,0.0,0.0,0.0,0.0,0.0,0.0,0.0,0.0,0.0,0.0,0.0,0.0,0.0,0.0,0.0,0.0,0.0,0.0,0.0,0.0,0.0,0.0,0.0,0.0,0.0,0.0,0.0,0.0,0.0,0.0,0.64,0.0,0.0,0.0,0.0,0.0,0.0,0.0,0.0,0.0,0.0,0.0,0.0,0.0,0.0,0.0,0.0,0.0,0.0,0.0,0.0,0.0,0.0,0.0,0.0,0.0,0.0,0.0,0.0,0.0,0.0,0.0,0.0,0.0,0.0,0.0,0.0,0.0,0.0,0.0,0.0,-0.0445,-0.02,-0.0111,-0.0438,-0.0185,0.0,0.0,0.0,0.0,0.0,0.0,0.0,0.0,0.0,0.0,0.0,0.0,0.0,0.0,0.0,0.0,0.0,0.0,0.0,0.0,0.0,0.0,0.0,0.0,0.0,0.0,0.0,0.0,0.0,0.0,0.0,0.0,0.0,0.0,0.0,0.0,0.0,0.0,0.0,0.0,0.0,0.0,0.0,0.0,0.0,0.0,0.0,0.0,0.0,0.0,0.0,0.0,0.0,0.0,0.0,0.0,0.0,0.0,0.0,1.0593,1.0593,1.0593,1.0593,1.0593,1.0539,0.9532,0.9112,0.9018,0.0,0.0,0.0,0.0,0.0,0.0,0.0,0.0,0.0,0.0,0.0,0.0,0.0,0.0,0.0,0.0,0.0,0.0,0.0,0.0,0.0,0.0,0.0,0.0,0.0,0.2371,0.195,0.0,0.0,0.0,0.0,0.0,0.0,0.0,0.0,0.0,0.0,0.0,0.0,-0.0018,0.0,0.0,0.0,0.0,0.0,0.0,0.0,0.0,0.0,0.0,0.0,0.0,0.0,0.0,0.0,0.0,0.0,0.0,0.0,0.0,0.0,0.0,0.0,0.0,0.0,0.0,0.0,0.0,0.0,0.0,0.0,0.0,0.0,0.0,0.0,0.0,0.0,0.0,0.0,0.0,0.0,0.0,0.0,0.701,0.6794,0.0,0.0,0.0,0.0,0.0,0.0,0.0,0.0,0.0,0.0,0.0,0.0,0.0,0.9065,1.011,1.0278,1.0439,1.0593,1.0593,1.0593,1.0593,1.0593,1.0593,1.0586,1.0425,0.0,1.0271,0.9058,0.0,0.0,0.0,0.0,0.0,0.0,0.0,0.0,0.0,0.0,0.0,0.0,0.0,0.0,0.0,0.0,0.0,0.0,0.0,0.0,0.0,0.0,0.3439,0.3237,0.3279,0.3204,0.0,0.1632,0.0863,0.0799,0.0341,0.0,0.0,0.0,0.0,0.0,0.0,0.0,0.0,0.0,0.0,0.0,0.0,0.0,0.0,0.0,0.0,0.0,0.0,0.0,0.0,0.0,0.0,0.0,0.0,0.0,0.0,0.0,0.0,0.0,0.0,0.0,0.0,0.0,0.0,0.0,0.0,0.0,0.0,0.0,0.0,0.0,0.0,0.0,0.0,0.0,0.0,0.0,0.0,0.0,0.0,0.9824,1.0326,1.0326,1.0326,1.0011,0.0,0.0,0.0,0.0,0.0,0.0,0.0,0.0,0.0,1.2503,1.0754,1.007,1.0586,1.1243,1.1578,1.1578,1.1578,1.1578,1.1516,1.0888,1.0593,1.0593,1.0593,1.0593,1.0553,1.0037,0.9092,0.7808,0.0,0.0,0.0,0.0,0.0,0.6528,0.6528,0.6698,0.0,0.0,0.0,0.0,0.0,0.0,0.0,0.0,0.0,0.0,0.0,0.0,0.0,0.3494,0.3544,0.3526,0.3264,0.2528,0.178,0.0,0.1084,0.0792,0.0447,0.0,0.0,0.0,0.0,0.0,0.0,0.0,0.0,0.0,0.0,0.0,0.0,0.0,0.0,0.0,0.0,0.0,0.0,0.0256,0.0346,0.0,0.0,0.0,0.0,0.0,0.0,0.0,0.0,0.0,0.0,0.0,0.0,0.0,0.0,0.0,0.0,0.0,0.0,0.0,0.0,0.0,0.0,0.0,0.0,0.0,0.0,0.0,0.0,1.1946,1.2983,1.3174,1.3398,1.2852,0.0,0.0,0.0,0.0,0.0,0.0,1.4123,1.4959,1.5615,1.6064,1.3735,1.2028,1.1035,1.1864,1.2305,1.2305,1.2305,1.2305,1.2271,1.1437,1.0874,1.0593,1.0593,1.0593,1.0593,1.0593,1.0077,0.9138,0.7943,0.6154,0.4261,0.4261,0.6196,0.8804,0.8804,0.8804,0.8371,0.5773,0.0,0.5133,0.5133,0.0,0.0,0.0,0.0,0.3185,0.3517,0.3605,0.3591,0.3598,0.3604,0.3604,0.3604,0.3252,0.2724,0.0,0.1766,0.1467,0.0853,0.0,0.0,0.0,0.0,0.0,0.0,0.0,0.0,0.0,0.0,0.0,0.0,0.011,0.0179,0.0179,0.0275,0.0329,0.0331,0.0642,0.0732,0.0587,0.0,0.0,0.0,0.0,0.0,0.0,0.0,0.0,0.0,0.0,0.0,0.0,0.0,0.0,0.0,0.0,0.0,0.0,0.0,0.0,0.0,0.0,0.0,0.0,0.0,0.0,0.0,0.0,0.0,1.3948,1.4767,0.0,0.0,0.0,0.0,1.2614,1.4184,1.5907,1.7653,1.6237,1.6172,1.7822,1.7702,1.5896,1.2248,1.2271,1.2305,1.2305,1.2305,1.2305,1.2298,1.2238,1.161,1.0593,1.0593,1.0593,1.0593,1.0593,1.0553,1.0385,0.9178,0.8625,0.8495,0.8495,0.8626,0.8804,0.8804,0.8804,0.8771,0.8606,0.7791,0.6866,0.6866,0.6077,0.0,0.0,0.3735,0.3175,0.3524,0.359,0.3593,0.36,0.3604,0.3604,0.3604,0.3575,0.3365,0.0,0.2185,0.1599,0.0999,0.0,0.0687,0.0093,0.0,0.0,0.0,0.0,0.0,0.0,0.0,0.0,0.0,0.0401,0.0659,0.0659,0.1023,0.1236,0.1233,0.1139,0.1078,0.1068,0.0962,0.0,0.0,0.0,0.0,0.0,0.0,0.0,0.0,0.0,0.0,0.0,0.0,0.0,0.0,0.0,0.0,0.0,0.0,0.0,0.0,0.0,0.0,0.0,0.0,0.0,0.0,0.0,0.0,1.6377,1.624,0.0,1.4609,1.4014,1.389,1.4473,1.6103,1.7353,1.7978,1.7422,1.7372,1.7981,1.8004,1.7364,1.5974,1.5974,1.4728,1.2305,1.2305,1.2305,1.2305,1.2305,1.2071,1.1637,1.0921,1.0593,1.0593,1.0593,1.0593,1.0553,1.0131,0.9963,0.9963,0.9963,0.9459,0.8804,0.8804,0.8804,0.8804,0.8804,0.8517,0.817,0.817,0.7594,0.6845,0.6306,0.4838,0.3442,0.3572,0.3602,0.3591,0.3591,0.3609,0.3604,0.3604,0.3604,0.3542,0.3311,0.2992,0.2551,0.1853,0.1518,0.115,0.0546,0.0451,0.0449,0.0447,0.0673,0.0837,0.0845,0.0836,0.0842,0.0831,0.0917,0.095,0.095,0.1009,0.1047,0.1047,0.1288,0.1367,0.1231,0.1475,0.1439,0.0,0.0,0.0,0.0,0.0,0.0,0.0,0.0,0.0,0.0,0.0,0.0,0.0,0.0,0.0,0.0,0.0,0.0,0.0,0.0,0.0,0.0,0.0,0.0,0.0,1.316,1.4785,1.6885,1.6801,1.6333,1.5762,1.533,1.5449,1.623,1.7353,1.8008,1.8008,1.8008,1.798,1.8013,1.7994,1.8008,1.8008,1.8008,1.6724,1.4227,1.4227,1.4227,1.4191,1.2872,1.2305,1.2304,1.225,1.1593,1.0649,1.1382,1.1569,1.1358,1.0807,1.0593,1.0593,1.0593,1.0097,0.9339,0.8945,0.8804,0.8804,0.8804,0.8804,0.8771,0.8571,0.8352,0.81,0.753,0.6099,0.4746,0.475,0.4562,0.4348,0.4214,0.4015,0.388,0.388,0.3729,0.3604,0.3604,0.3497,0.317,0.2481,0.2116,0.1701,0.1093,0.0939,0.091,0.091,0.1142,0.13,0.1294,0.1304,0.1306,0.1293,0.1316,0.1361,0.1405,0.1363,0.137,0.1442,0.163,0.1675,0.1537,0.1759,0.1716,0.14,0.0,0.0,0.0,0.0,0.0,0.0,0.0,0.0,0.0,0.0,0.0,0.0,0.0,0.0,0.0,0.0,0.0,0.0,0.0,0.0,0.0,0.0,0.0,1.419,1.433,1.4872,1.541,1.6453,1.6905,1.6413,1.6818,1.7382,1.7949,1.8008,1.8008,1.8008,1.8008,1.8008,1.8008,1.8008,1.8008,1.8008,1.8008,1.8008,1.8008,1.8008,1.8008,1.7872,1.4155,1.2462,1.2499,1.4541,1.3627,1.087,1.2909,1.3485,1.2856,1.1233,1.0593,1.0593,1.0593,1.0573,1.0372,0.9198,0.8804,0.8804,0.8804,0.8804,0.8704,0.8105,0.8332,0.8672,0.8092,0.7516,0.7061,0.7028,0.6481,0.5836,0.5443,0.4891,0.443,0.4413,0.3987,0.3622,0.3604,0.3604,0.3421,0.2812,0.2605,0.2312,0.1725,0.1454,0.0,0.1325,0.134,0.134,0.134,0.1348,0.1338,0.1338,0.1636,0.1873,0.1996,0.2124,0.2279,0.2477,0.217,0.1992,0.1992,0.1741,0.1599,0.1599,0.0,0.0,0.0,0.0,0.0,0.0,0.0,0.0,0.0,0.0,0.0,0.0,0.0,0.0,0.0,0.0,0.0,0.0,0.0,0.0,0.0,1.7245,1.712,1.5553,1.5773,1.6309,1.6787,1.7376,1.7697,1.7547,1.7658,1.7807,1.7998,1.8008,1.8008,1.8008,1.8008,1.8008,1.8008,1.8008,1.8008,1.8008,1.8008,1.8008,1.8008,1.8008,1.8008,1.7974,1.6906,1.5735,1.4568,1.5152,1.4442,1.294,1.3152,1.3373,1.3394,1.1389,1.0593,1.0593,1.0593,1.005,0.9239,0.8918,0.8804,0.8804,0.8804,0.8804,0.8778,0.8611,0.8677,0.8758,0.8593,0.8445,0.8218,0.7758,0.7177,0.6667,0.6554,0.5993,0.5328,0.4748,0.4395,0.4071,0.3667,0.3604,0.3509,0.3187,0.2862,0.2553,0.2298,0.2078,0.0,0.1956,0.2158,0.231,0.231,0.2315,0.2311,0.2311,0.2317,0.226,0.2159,0.2083,0.2076,0.213,0.1959,0.1856,0.1856,0.1686,0.1599,0.0,0.0,0.0,0.0,0.0,0.0,0.0,0.0,0.0,0.0,0.0,0.0,0.0,0.0,0.0,0.0,0.0,0.0,0.0,0.0,0.0,0.0,1.8714,1.8895,1.7676,1.7195,1.7288,1.8107,1.8087,1.8008,1.8008,1.8144,1.8245,1.8245,1.8432,1.8389,1.8027,1.8008,1.8008,1.8008,1.8008,1.8008,1.8008,1.8008,1.8008,1.8008,1.8008,1.8008,1.8008,1.8008,1.7061,0.0,1.5674,1.5021,1.3816,1.3944,1.3995,0.0,0.0,0.0,0.0,0.0,0.9809,0.9031,0.8864,0.8804,0.8804,0.8804,0.8804,0.8804,0.8804,0.8804,0.8804,0.8804,0.8617,0.8411,0.8304,0.7647,0.6989,0.6989,0.6676,0.6226,0.5755,0.4817,0.4057,0.4059,0.0,0.0,0.3748,0.3304,0.2929,0.2849,0.2637,0.2483,0.2483,0.2616,0.2696,0.2696,0.2696,0.2696,0.2696,0.2572,0.0,0.0,0.0,0.2063,0.2002,0.1923,0.0,0.0,0.0,0.0,0.0,0.0,0.0,0.0,0.1607,0.1758,0.0,0.0,0.0,0.0,0.0,0.0,0.0,0.0,0.0,0.0,0.0,0.0,0.0,0.0,0.0,0.0,2.0415,2.1027,2.0087,1.869,1.8119,1.918,1.8617,1.8105,1.8008,1.8356,1.8595,1.8611,1.9029,1.8955,1.8193,0.0,0.0,0.0,0.0,1.8008,1.8008,1.8008,1.8008,1.8008,1.8008,1.8008,1.8008,1.8008,1.71,1.5537,1.6064,1.5423,1.4055,1.5021,1.4991,1.4273,1.3463,1.3312,1.3275,1.0883,0.9755,0.0,0.0,0.0,0.0,0.8804,0.8804,0.8804,0.8804,0.8804,0.8804,0.8804,0.8327,0.7943,0.8538,0.7865,0.7,0.7,0.7004,0.7001,0.6993,0.5417,0.4181,0.4825,0.4366,0.3996,0.443,0.3861,0.3333,0.3333,0.3118,0.0,0.2919,0.2801,0.2716,0.2699,0.0,0.0,0.2696,0.2589,0.2558,0.2665,0.2393,0.2171,0.2055,0.2026,0.1974,0.1871,0.1823,0.1794,0.1799,0.2015,0.2021,0.185,0.1848,0.1916,0.0,0.0,0.0,0.0,0.0,0.0,0.0,0.0,0.0,0.0,0.0,0.0,0.0,0.0,0.0,2.1055,2.1019,2.1178,2.1447,2.0604,1.9825,1.9358,1.9155,1.8751,1.8061,1.8356,1.8592,1.8601,1.9017,1.9219,1.9053,1.8389,1.8008,1.8008,1.8008,1.8008,1.8008,1.8008,1.8008,1.8008,0.0,0.0,1.8008,1.8008,1.7314,1.6123,1.624,1.5827,1.5108,1.5323,1.5323,1.5079,1.4273,1.3235,1.202,1.053,0.9755,0.9339,0.8945,0.8804,0.8804,0.8804,0.8804,0.8804,0.8804,0.8804,0.0,0.8804,0.8018,0.7312,0.7913,0.7551,0.7,0.7,0.7013,0.6991,0.7001,0.6661,0.6392,0.652,0.5967,0.5388,0.5156,0.4243,0.3534,0.3534,0.3357,0.3179,0.3077,0.2936,0.2818,0.2713,0.2696,0.2696,0.2696,0.2672,0.263,0.2549,0.2432,0.235,0.2329,0.2222,0.2198,0.2287,0.1962,0.18,0.1796,0.2052,0.216,0.2124,0.2123,0.2142,0.0,0.0,0.0,0.0,0.0,0.0,0.0,0.0,0.0,0.0,0.0,1.7929,1.9058,0.0,2.2954,2.2574,2.2507,2.2438,2.2329,2.2032,2.1389,2.0102,1.9572,1.8964,1.8086,1.8572,1.8951,1.8965,1.9561,1.9774,1.9307,1.9023,1.8591,1.8027,1.8008,1.8008,1.8008,1.8008,1.8008,1.8008,1.8008,1.8008,1.8008,1.8008,1.7383,1.632,1.6445,1.6094,1.541,1.541,1.541,1.5352,1.4962,1.3807,1.2288,1.1372,1.0408,0.9466,0.8978,0.8804,0.8804,0.8804,0.8804,0.8804,0.8804,0.8804,0.8804,0.8804,0.8078,0.7327,0.7427,0.7226,0.7,0.7,0.7,0.7013,0.6997,0.7004,0.6989,0.6994,0.671,0.6376,0.6186,0.5215,0.4447,0.4447,0.4161,0.3849,0.359,0.3285,0.3,0.2723,0.2696,0.2696,0.2696,0.2702,0.2681,0.2601,0.2568,0.274,0.3187,0.2849,0.2484,0.2107,0.1906,0.2087,0.2656,0.2515,0.2452,0.245,0.2457,0.2366,0.0,0.0,0.0,0.0,0.0,0.0,0.0,1.7781,1.7986,1.9485,1.9696,2.0168,2.1895,2.3283,2.4075,2.3867,2.4014,2.3884,2.3083,2.3133,2.2665,2.1043,2.0083,1.9222,1.8325,1.8813,1.9232,1.9403,1.9986,2.0048,1.9326,1.9449,1.913,1.8198,1.8057,1.8008,1.8008,1.8008,1.8008,1.8008,1.8008,1.8008,1.8008,1.8008,1.7412,1.6377,1.6414,1.6044,1.541,1.541,1.541,1.541,1.541,1.4464,1.3028,1.2337,1.1215,0.9903,0.922,0.9087,0.9159,0.9035,0.8982,0.8962,0.8831,0.8804,0.8791,0.8717,0.817,0.7527,0.7202,0.7056,0.7,0.7,0.7,0.7,0.7,0.7,0.7,0.7,0.6997,0.6994,0.6994,0.6239,0.5545,0.5338,0.4979,0.4581,0.4145,0.3594,0.3162,0.2878,0.2755,0.2702,0.2702,0.2701,0.2776,0.2947,0.2798,0.3094,0.3968,0.369,0.3089,0.215,0.2358,0.2927,0.3846,0.3422,0.3207,0.32,0.3196,0.2883,1.96,1.9465,1.97,2.0101,1.996,2.0289,0.0,2.215,2.16,2.2111,2.2564,2.2905,2.2951,2.3534,2.4142,2.4608,2.4698,2.4525,2.3929,2.3879,2.3374,2.1922,2.1003,2.0105,1.9254,1.8865,1.9008,1.9779,1.9609,1.9385,1.9297,1.9108,1.8917,1.8809,1.8291,1.8008,1.8008,1.8008,1.8008,1.8008,1.8008,1.8008,1.8008,1.8008,1.7519,1.6609,1.5859,1.5508,1.541,1.541,1.541,1.541,1.541,1.4647,1.3416,1.2442,1.1685,1.0966,1.0019,1.009,1.0491,0.9891,0.9692,0.9588,0.8982,0.8804,0.8731,0.8365,0.7932,0.7589,0.7553,0.7276,0.7,0.7,0.7,0.7,0.7,0.7,0.7,0.7,0.7006,0.7013,0.7013,0.6901,0.6475,0.5456,0.5258,0.5013,0.4426,0.3642,0.3197,0.3397,0.2988,0.27,0.27,0.2697,0.3033,0.3805,0.3127,0.3085,0.3961,0.4679,0.4505,0.3337,0.4363,0.497,0.5093,0.5043,0.5007,0.5005,0.5005,0.4166,2.1934,2.1964,2.2038,2.233,2.2847,2.3459,2.4092,2.3504,2.3011,2.3538,2.3431,2.3322,2.3558,2.4104,2.4657,2.5184,2.5272,2.5084,2.4556,2.4205,2.348,2.2074,2.1575,2.1023,2.0135,2.0103,2.0039,1.9902,2.0,1.9726,1.8916,1.9031,1.8904,1.838,1.8149,1.8008,1.8008,1.8008,1.8008,1.8008,1.8008,1.8008,1.8008,1.8008,1.7506,1.6668,1.6064,1.5644,1.541,1.541,1.541,1.541,1.541,1.4792,1.3792,1.2985,1.2097,1.1202,1.0585,1.0568,1.0737,1.0466,1.0389,1.0261,0.9588,0.9258,0.9112,0.8859,0.8183,0.7605,0.7928,0.7508,0.7,0.7,0.7,0.7,0.7,0.7,0.7,0.7,0.7,0.7,0.7,0.7,0.6723,0.5949,0.5913,0.5864,0.5492,0.4819,0.4229,0.3826,0.373,0.3681,0.3681,0.3545,0.3616,0.3979,0.4135,0.4377,0.4738,0.5101,0.5063,0.4551,0.5044,0.5308,0.5304,0.529,0.5304,0.5305,0.5293,0.4913,2.2996,2.3161,2.343,2.4223,2.5121,2.5779,2.5711,2.4962,2.434,2.4624,2.4019,2.3542,2.3922,2.433,2.4808,2.5485,2.5598,2.541,2.4895,2.4481,2.3742,2.2389,2.2219,2.197,2.1353,2.1131,2.0875,2.0477,2.0337,1.9813,1.8839,1.8894,1.8651,1.8027,1.8008,1.8008,1.8008,1.8008,1.8008,1.8008,1.8008,1.8008,1.8008,1.7891,1.7432,1.6677,1.626,1.584,1.541,1.541,1.541,1.54,1.5283,1.4757,1.4041,1.3426,1.259,1.1679,1.1243,1.1216,1.135,1.1141,1.1091,1.0939,1.0287,0.9859,0.9574,0.9385,0.8666,0.8018,0.8323,0.7851,0.7245,0.7057,0.7161,0.7238,0.7042,0.7,0.7091,0.7405,0.7377,0.7238,0.7043,0.7161,0.7058,0.6321,0.6276,0.6233,0.5981,0.5576,0.5055,0.4431,0.4539,0.4647,0.4647,0.4478,0.4354,0.4354,0.4957,0.5293,0.5293,0.5293,0.5293,0.5293,0.5293,0.5293,0.5293,0.5293,0.5293,0.5293,0.5295,0.5292,2.1919,2.2039,2.3011,2.5794,2.6387,2.6671,2.8143,2.7404,2.6213,2.5508,2.4781,2.4213,2.4033,2.4017,2.4368,2.5423,2.5598,2.541,2.4895,2.4775,2.4349,2.319,2.3065,2.3035,2.3035,2.1553,2.0965,2.1776,2.0302,1.933,1.9287,1.8492,1.8027,1.8008,1.8008,1.8008,1.8008,1.8008,1.8008,1.8008,1.8008,1.8008,1.7998,1.7588,1.7158,1.6677,1.626,1.584,1.541,1.541,1.541,1.5371,1.4961,1.4531,1.4055,1.3646,1.3212,1.2744,1.203,1.2236,1.2725,1.1996,1.1765,1.1641,1.0965,1.0491,1.0115,0.9786,0.9381,0.9001,0.8741,0.8371,0.7888,0.7176,0.7536,0.7872,0.7154,0.7,0.7335,0.8435,0.8341,0.785,0.7127,0.7585,0.7648,0.6395,0.6047,0.5783,0.5387,0.5306,0.5284,0.5261,0.5261,0.5277,0.5277,0.5261,0.5261,0.5261,0.5277,0.5293,0.5293,0.5293,0.5293,0.5293,0.5293,0.5293,0.5293,0.5293,0.5293,0.5293,0.5293,0.53,2.3319,2.4373,2.548,2.6911,2.7555,2.7831,2.7847,2.6794,2.5563,2.4823,2.3775,2.2958,2.2866,2.3145,2.3509,2.3873,2.4883,2.5285,2.4393,2.4883,2.4795,2.3283,2.3446,2.3521,2.3145,2.2598,0.0,2.1908,2.1365,2.0782,2.0204,1.8778,1.8008,1.8012,1.7988,1.801,1.8008,1.8008,1.8008,1.8008,1.8008,1.8008,1.7998,1.7578,1.7148,1.6677,1.626,1.584,1.541,1.541,1.5244,1.498,1.4844,1.4346,1.3701,1.3555,1.3242,1.2847,1.2608,1.2691,1.2847,1.2618,1.2525,1.2403,1.1674,1.1053,1.0572,1.035,0.9601,0.8894,0.9174,0.8861,0.844,0.8187,0.8313,0.8427,0.8185,0.8124,0.8234,0.8623,0.8586,0.8411,0.8167,0.8341,0.8186,0.7274,0.6193,0.5458,0.532,0.5293,0.5293,0.5293,0.5293,0.5293,0.5293,0.5293,0.5293,0.5293,0.5293,0.5293,0.5293,0.5293,0.5293,0.5293,0.5293,0.5293,0.5293,0.5293,0.5293,0.5293,0.5293,0.5293,2.4769,2.5884,2.6851,2.8289,2.8678,2.8568,2.7969,2.6397,2.4874,2.4133,2.2765,2.1732,2.1732,2.1845,2.2117,2.2719,2.3891,2.4619,2.4343,2.4883,2.4831,2.3567,2.3748,2.3766,2.3158,2.3296,2.3107,2.2365,2.2063,2.1659,2.1101,1.9704,1.8933,1.8916,1.8319,1.8005,1.8006,1.8006,1.799,1.8002,1.8,1.8218,1.8586,1.8046,1.757,1.7129,1.6708,1.6079,1.541,1.541,1.5254,1.498,1.4668,1.4219,1.3665,1.3389,1.3115,1.2905,1.2905,1.2905,1.2905,1.2905,1.2905,1.2798,1.2344,1.1668,1.1069,1.0971,1.0134,0.9359,0.9696,0.9538,0.9219,0.9039,0.8978,0.8938,0.8736,0.8695,0.8756,0.8938,0.8978,0.8978,0.8978,0.8728,0.8307,0.7693,0.6665,0.5849,0.5552,0.5507,0.546,0.5309,0.5293,0.5293,0.5293,0.5293,0.5293,0.5293,0.5293,0.5293,0.5293,0.5293,0.5293,0.5293,0.5293,0.5293,0.5293,0.5293,0.5293,0.5293,0.5293,0.5293,2.6108,2.6581,2.7151,2.9789,2.9642,2.8768,2.8335,2.6298,2.4217,2.3401,2.1814,2.0591,2.0528,2.0138,2.0326,2.192,2.2732,2.3559,2.46,2.4813,2.4666,2.4109,2.4072,2.3835,2.3265,2.371,2.3816,2.3233,0.0,2.1982,2.2018,2.1187,2.0719,2.0741,1.9111,1.8253,1.8263,1.8263,1.8273,1.8244,1.8273,1.8766,1.9683,1.8913,1.8386,1.8025,1.745,1.6579,1.5517,1.5517,1.5488,1.5351,1.448,1.4121,1.3977,1.3184,1.2905,1.2905,1.2905,1.2905,1.2905,1.2905,1.2905,1.2905,1.2905,1.2289,1.1606,1.1606,1.0968,1.0303,1.0303,1.0303,1.0176,0.9657,0.9538,0.9399,0.8898,0.8777,0.8938,0.9439,0.9538,0.9538,0.9538,0.8837,0.8137,0.7723,0.7382,0.6868,0.6029,0.5929,0.5781,0.5404,0.534,0.5325,0.5325,0.5309,0.5293,0.5293,0.5293,0.5293,0.5293,0.5293,0.5293,0.5293,0.5293,0.5293,0.5293,0.5293,0.5293,0.5293,0.5293,0.5293,2.7076,2.8378,2.949,2.9744,2.9167,2.8132,2.658,2.4915,2.3108,2.1118,2.0028,1.9196,1.8391,1.9083,1.9949,2.0376,2.2661,2.4324,2.423,2.5272,2.5701,2.4697,2.4963,2.4962,2.4405,2.4516,2.4512,0.0,2.3387,2.2978,2.343,2.2831,2.2469,2.245,2.2021,2.1794,2.1779,2.1779,2.1809,2.1803,2.182,2.1073,1.9704,1.9806,1.9486,1.8769,1.788,1.7311,1.7052,1.7052,1.6531,1.5704,1.5136,1.4413,1.3578,1.3101,1.2905,1.2905,1.2905,1.2905,1.2905,1.2905,1.2905,1.2905,1.2905,1.2289,1.1606,1.1606,1.0968,1.0303,1.0303,1.0303,1.0264,1.0127,1.0098,1.0059,0.9922,0.9902,0.9942,1.0059,1.0098,1.0098,1.0098,0.963,0.9104,0.8701,0.8312,0.7652,0.6507,0.6351,0.6305,0.6198,0.5929,0.575,0.575,0.5475,0.5293,0.5293,0.5293,0.5293,0.5293,0.5293,0.5293,0.5293,0.5293,0.5293,0.5293,0.5293,0.5293,0.5293,0.5293,0.5293,2.8607,2.9669,3.0334,2.9683,2.8761,2.738,2.4901,2.3097,2.1353,1.9192,1.8116,1.7375,1.6748,1.7576,1.8581,1.9346,2.1628,2.359,2.4268,2.5159,2.561,2.5185,2.5416,2.5402,2.4834,2.4999,2.5159,2.5159,2.4324,2.3873,2.3991,2.3436,2.3089,2.3102,2.3115,2.3107,2.3108,2.2369,2.236,2.3113,2.3079,2.2185,2.0488,2.0351,1.9942,1.9275,0.0,1.7895,1.7605,1.7605,1.7219,1.6569,1.5802,1.4982,1.4164,1.3426,1.3224,1.3286,1.3286,1.3478,1.361,1.3065,1.2905,1.2905,1.2905,1.2289,1.1606,1.1606,1.0968,1.0303,1.0303,1.0303,1.0303,1.0303,1.0303,1.0303,1.0303,1.0303,1.0303,1.0303,1.0303,1.0303,1.0303,1.0078,0.9707,0.9102,0.8809,0.8258,0.7164,0.6865,0.6691,0.6518,0.6305,0.6152,0.6152,0.5797,0.557,0.557,0.5404,0.5293,0.5293,0.5293,0.5388,0.5554,0.5388,0.5388,0.557,0.5388,0.5293,0.5293,0.5293,0.5293,2.9943,3.0383,3.0385,2.9349,2.8267,2.66,2.3392,2.1276,1.9441,1.7571,1.6321,1.5542,1.5404,1.5994,1.7027,1.8632,2.0426,2.2334,2.4387,2.4833,2.5078,2.5558,2.566,2.5548,2.5069,2.5459,2.5711,2.5711,2.5222,2.4682,2.4142,2.3461,2.3109,2.312,2.3114,2.3096,2.3096,2.1673,2.1665,2.3108,2.3096,2.2536,2.1481,2.0617,2.0072,1.9693,0.0,0.0,1.7907,1.7907,1.7813,1.7632,1.6602,1.5812,1.5164,1.4047,1.3739,1.3876,1.3813,1.419,1.4514,1.3382,1.3017,1.2992,1.2929,1.2289,1.1616,1.1653,1.1007,1.0312,1.0371,1.0342,1.0303,1.0303,1.0303,1.0303,1.0303,1.0303,1.0303,1.0303,1.0303,1.0303,1.0303,1.0303,1.0029,0.9209,0.9043,0.8711,0.7905,0.744,0.7044,0.67,0.6609,0.6579,0.6579,0.6213,0.596,0.5898,0.5632,0.5428,0.5388,0.5428,0.5632,0.5975,0.5641,0.5601,0.5898,0.5554,0.5356,0.5293,0.5293,0.5293,2.876,2.9855,3.0717,2.8203,2.7112,2.5869,2.2695,2.0524,1.8586,1.643,1.5487,1.4758,1.3817,1.5209,1.6901,1.8154,2.0501,2.2636,2.3954,2.4908,2.549,2.5595,2.6055,2.6314,2.6202,2.628,2.6348,0.0,2.5787,2.5234,2.4675,2.3671,2.3109,2.312,2.3097,2.3092,2.3092,2.2829,2.2822,2.3108,2.3097,2.2548,2.1469,2.0374,2.0103,2.0493,0.0,0.0,1.9423,1.9423,1.9071,1.8442,1.7937,1.6916,1.5658,1.475,1.4359,1.4248,1.3928,1.419,1.4583,1.3873,1.3637,1.3552,1.3065,1.2289,1.1663,1.2002,1.123,1.0381,1.0713,1.0547,1.0303,1.0303,1.0303,1.0303,1.0303,1.0303,1.0303,1.0303,1.0303,1.0303,1.0303,1.0303,1.0107,0.9581,0.9211,0.8828,0.8346,0.7889,0.7569,0.7495,0.7187,0.699,0.699,0.6624,0.6259,0.5913,0.6145,0.6145,0.5812,0.6106,0.632,0.6397,0.632,0.6152,0.5898,0.5828,0.5632,0.5293,0.5293,0.5293,2.8305,2.8937,2.9267,2.7157,2.6053,2.4489,2.0764,1.9214,1.7748,1.498,1.4388,1.4138,1.335,1.4544,1.6032,1.7149,1.8932,2.0865,2.2849,2.3816,2.4628,2.5509,2.613,2.6499,2.6499,2.6499,2.6499,2.6499,2.5925,2.5372,2.4813,2.3717,2.3088,2.3108,2.3108,2.3108,2.3108,2.3108,2.3108,2.3108,2.3108,2.2424,2.1157,2.0213,1.9967,2.0226,1.9924,0.0,1.9798,1.9798,1.9579,1.9204,1.8636,1.7868,1.6942,1.6137,1.5689,1.5418,1.5217,1.536,1.5545,1.4926,1.4526,1.4213,1.3931,1.3147,1.2428,1.2607,1.1684,1.0654,1.0859,1.0596,1.0303,1.0303,1.0303,1.0303,1.0303,1.0303,1.0303,1.0303,1.0303,1.0303,1.0303,1.0303,1.0137,0.9679,0.926,0.8848,0.8444,0.7983,0.7695,0.7695,0.7525,0.7412,0.7412,0.7044,0.673,0.6548,0.6503,0.6412,0.6213,0.6397,0.6601,0.6805,0.6609,0.6503,0.6533,0.6114,0.5797,0.5601,0.5404,0.5373,2.7752,2.8002,2.7965,2.6255,2.5148,2.3418,1.9301,1.8131,1.7046,1.4019,1.3672,1.3752,1.3301,1.4036,1.511,1.63,1.7476,1.9133,2.1769,2.2794,2.3829,2.5271,2.6055,2.6499,2.6499,2.6499,2.6499,2.6499,2.5824,0.0,2.4669,2.3659,2.3108,2.3108,2.3108,2.3108,2.3108,2.3108,2.3108,2.3108,2.3108,2.232,2.086,2.0125,1.9794,1.9798,1.9798,0.0,0.0,1.9798,1.9798,1.9747,1.9176,1.8588,1.7993,1.7312,1.6763,1.636,1.6265,1.6361,1.6423,1.5964,1.5365,1.488,1.4744,1.4036,1.3342,1.3416,1.2316,1.1113,1.1223,1.0765,1.0322,1.0428,1.0544,1.0621,1.0621,1.0621,1.0582,1.0467,1.0448,1.0409,1.0322,1.0303,1.0166,0.9806,0.9396,0.8984,0.8581,0.8135,0.7817,0.7705,0.7695,0.7695,0.7695,0.7403,0.7192,0.7103,0.688,0.6715,0.6631,0.6715,0.6895,0.7231,0.691,0.6865,0.7094,0.6473,0.6106,0.6021,0.5617,0.5577,2.6252,2.7351,2.8266,2.5595,2.4646,2.3436,1.9762,1.8064,1.6669,1.4473,1.396,1.3752,1.3301,1.374,1.4689,1.6258,1.7476,1.8995,2.1255,2.2924,2.4148,2.4814,2.5849,2.6499,2.6499,2.6499,2.6499,2.6499,2.5485,0.0,2.4104,2.3446,2.3108,2.3108,2.3108,2.3108,2.3108,2.3108,2.3108,2.3108,2.3108,2.232,2.086,2.0125,1.9794,1.9798,1.9798,0.0,0.0,1.9798,1.9798,1.9798,1.9721,1.8962,1.7857,1.7419,1.6847,1.6255,1.5815,1.6044,1.65,1.6445,1.6008,1.541,1.488,1.4395,1.4071,1.444,1.3195,1.1816,1.2247,1.1328,1.0409,1.0829,1.13,1.1664,1.1664,1.1664,1.1516,1.1038,1.0943,1.0791,1.038,1.0303,1.0293,1.0244,0.9835,0.9406,0.9004,0.8584,0.8164,0.7744,0.7695,0.7695,0.7695,0.7666,0.7486,0.7133,0.7403,0.7427,0.705,0.7397,0.7608,0.7652,0.7608,0.7427,0.7094,0.7029,0.6796,0.6442,0.6037,0.5998,2.4634,2.5313,2.5712,2.4608,2.3756,2.2362,1.9243,1.8135,1.6949,1.4141,1.3926,1.4035,1.3323,1.3621,1.4217,1.4942,1.5424,1.6505,1.873,2.0162,2.1675,2.3536,2.4777,2.5741,2.6427,2.6499,2.6311,2.5871,2.5826,0.0,2.3527,2.3233,2.3108,2.3108,2.3108,2.3108,2.3108,2.3108,2.3108,2.3095,2.3111,2.2556,2.1511,2.0327,1.9787,1.9798,1.9798,0.0,0.0,1.9798,1.9798,1.9798,1.9798,1.9294,1.8535,1.8376,1.776,1.6939,1.6751,1.6588,1.65,1.65,1.6337,1.6095,1.5854,1.519,1.4545,1.4721,1.3514,1.2202,1.2398,1.1815,1.1255,1.1431,1.1645,1.1792,1.1792,1.1792,1.1737,1.1523,1.1468,1.1319,1.0821,1.0725,1.063,1.0341,0.9912,0.9464,0.9053,0.8659,0.8213,0.7744,0.7695,0.7695,0.7695,0.7695,0.7627,0.7471,0.7613,0.7627,0.7471,0.7613,0.7695,0.7695,0.7695,0.7622,0.7456,0.7504,0.7436,0.7288,0.7123,0.7191,2.3477,2.3991,2.4167,2.3828,2.2936,2.1391,1.8589,1.7863,1.6943,1.4007,1.4,1.4278,1.3531,1.3564,1.3779,1.4069,1.438,1.5293,1.736,1.8706,2.0324,2.2594,2.3719,2.4758,2.589,2.6298,2.6139,2.529,0.0,0.0,2.3174,2.3097,2.3108,2.3108,2.3108,2.3108,2.3108,2.3108,2.3108,2.3095,2.3109,2.2665,2.1812,2.0426,1.9797,1.9798,0.0,0.0,0.0,1.9798,1.9798,1.9798,1.9798,1.9384,1.8757,1.8757,1.8055,1.7124,1.7124,1.6861,1.65,1.65,1.65,1.65,1.65,1.5825,1.5061,1.5061,1.3917,1.2593,1.2293,1.2125,1.2011,1.2011,1.2102,1.221,1.221,1.221,1.2174,1.2029,1.2011,1.1847,1.1338,1.1244,1.1113,1.0783,1.0237,0.9687,0.9257,0.873,0.8213,0.7744,0.7695,0.7695,0.7695,0.7695,0.7695,0.7695,0.7695,0.7695,0.7695,0.7695,0.7695,0.7695,0.7695,0.7763,0.7905,0.7957,0.8043,0.8147,0.8042,0.8056,2.2957,2.3935,2.4512,2.3396,2.2309,2.0792,1.8039,1.7188,1.6422,1.4326,1.4214,1.4374,1.3983,1.3514,1.3391,1.3997,1.4984,1.6271,1.7965,1.9635,2.1094,2.2184,2.2794,2.3573,2.4701,2.5833,2.6019,2.4906,0.0,0.0,2.3101,2.3101,2.3108,2.3108,2.3108,2.3108,2.3108,2.3108,2.3108,2.3095,2.3109,2.2557,2.1481,2.0323,1.9797,0.0,0.0,0.0,0.0,1.9798,1.9798,1.9798,1.9798,1.9158,1.8216,1.8216,1.7501,1.65,1.65,1.65,1.65,1.65,1.65,1.65,1.65,1.6111,1.5693,1.5693,1.4538,1.3068,1.2056,1.215,1.249,1.249,1.2855,1.3181,1.3181,1.3181,1.306,1.2579,1.249,1.2336,1.1866,1.1792,1.1792,1.1792,1.0985,1.0221,0.9757,0.8931,0.8213,0.7744,0.7695,0.7695,0.7695,0.7695,0.7695,0.7695,0.7695,0.7695,0.7695,0.7695,0.7695,0.7695,0.7695,0.7924,0.8385,0.8395,0.8594,0.8987,0.8583,0.8326,2.0149,2.0562,2.0663,1.9923,1.951,1.8779,1.7059,1.6578,1.6104,1.4612,1.4627,1.4705,1.4019,1.4,1.4218,1.4581,1.4921,1.5739,1.7423,1.8744,2.01,2.1581,2.3565,2.4816,2.4788,0.0,2.4797,0.0,0.0,0.0,2.3106,2.3097,2.3108,2.3108,2.3108,2.3108,2.3108,2.3108,2.3106,2.3109,2.31,2.2126,2.0323,1.9966,0.0,0.0,0.0,0.0,0.0,1.9798,1.9798,1.9798,1.9798,1.9145,1.8204,1.8204,1.7488,1.65,1.65,1.65,1.65,1.65,1.65,1.65,1.65,1.6132,1.5618,1.5261,1.4525,1.3779,1.3448,1.3178,1.2978,1.2978,1.3094,1.3198,1.3198,1.3198,1.3163,1.3012,1.2978,1.2826,1.2354,1.2282,1.2174,1.1847,1.1549,1.1182,1.072,0.985,0.9208,0.9023,0.8221,0.7695,0.7695,0.7695,0.7695,0.7695,0.7695,0.7695,0.7695,0.8008,0.8174,0.8174,0.8457,0.8672,0.8809,0.9075,0.9453,0.9883,0.9761,0.9677,1.8141,1.8682,1.882,1.8078,1.7865,1.7507,1.6283,1.6104,1.59,1.4922,1.4922,1.4937,1.4454,1.431,1.4326,1.4506,1.4721,1.5399,1.6848,1.8191,1.9737,2.1679,2.3533,2.4525,0.0,2.4199,2.4086,0.0,0.0,0.0,2.3108,2.3108,2.3108,2.3108,2.3108,2.3108,2.3108,2.3108,2.2896,2.2506,2.2897,2.1948,1.9809,1.9793,0.0,0.0,0.0,0.0,0.0,1.9798,1.9798,1.9798,1.9798,1.9145,1.8204,1.8204,1.7488,1.65,1.65,1.65,1.65,1.65,1.65,1.65,1.65,1.6132,1.558,1.5047,1.4513,1.4103,1.4103,1.3647,1.3198,1.3198,1.3198,1.3198,1.3198,1.3198,1.3198,1.3198,1.3198,1.3112,1.282,1.2756,1.2668,1.2372,1.203,1.1699,1.1393,1.0565,0.9992,0.9946,0.903,0.8425,0.8425,0.7974,0.7695,0.7695,0.7866,0.7963,0.7963,0.8389,0.863,0.863,0.8877,0.9065,0.9231,0.965,1.002,1.0303,1.0303,1.0303,0.0,1.7865,1.8417,1.7395,1.7098,1.6756,1.571,1.5755,0.0,1.5264,1.5149,1.5149,1.5131,1.4465,1.3987,1.4113,1.4668,1.5459,1.6577,1.8188,2.0105,2.2445,2.309,2.3309,2.327,2.3927,0.0,0.0,0.0,0.0,2.3108,2.3108,2.3108,2.3108,2.3108,2.3108,2.3108,2.3108,2.2593,2.1629,2.2452,2.1802,1.9799,1.9807,0.0,0.0,0.0,0.0,0.0,1.9798,1.9798,1.9798,1.9798,1.9145,1.8204,1.8204,1.7488,1.65,1.65,1.65,1.65,1.65,1.65,1.65,1.65,1.6137,1.5643,1.5148,1.4601,1.4166,1.4166,1.3672,1.3198,1.3198,1.3198,1.3198,1.3198,1.3198,1.3198,1.3198,1.3198,1.3198,1.3198,1.3198,1.3198,1.3198,1.245,1.1904,1.1904,1.1125,1.0587,1.0619,1.0042,0.9675,0.9705,0.8525,0.7788,0.7788,0.8199,0.8444,0.8444,0.8828,0.9053,0.9053,0.9082,0.927,0.9641,1.0088,1.0303,1.0303,1.0303,1.0303,1.4212,0.0,1.517,1.4811,1.5013,1.5256,0.0,1.5618,1.5929,1.5699,1.5639,1.5565,1.5305,1.4756,1.4826,1.6275,1.6718,1.7384,1.8809,2.0611,2.2298,2.3712,2.4838,2.5327,2.49,2.5383,0.0,0.0,0.0,2.3738,2.3138,2.3108,2.3108,2.3108,2.3108,2.3108,2.3108,2.3108,2.298,2.2695,2.1256,2.0289,1.9808,1.981,0.0,0.0,0.0,0.0,1.9798,1.9798,1.9798,1.9798,1.9798,1.9145,1.8204,1.8204,1.7488,1.65,1.65,1.65,1.65,1.65,1.65,1.65,1.65,1.64,1.6296,1.617,1.5449,1.4714,1.4714,1.3961,1.3198,1.3198,1.3198,1.3198,1.3198,1.3198,1.3198,1.3198,1.3198,1.3198,1.3198,1.3198,1.3198,1.3198,1.3017,1.2878,1.2878,1.2067,1.1599,1.1915,1.0943,1.0394,1.0657,0.941,0.8623,0.8623,0.8775,0.8857,0.8857,0.924,0.9464,0.9464,0.9814,1.0029,1.0146,1.0254,1.0303,1.0303,1.0303,1.0303,1.3894,1.4528,1.5209,1.4858,1.5304,1.5833,1.599,1.5967,1.5889,1.5801,1.5799,1.5832,1.5923,1.5544,1.5758,1.7407,1.7777,1.8621,2.0833,2.2462,2.3919,2.5149,2.5632,2.5841,0.0,0.0,0.0,0.0,0.0,2.461,0.0,2.3929,2.379,2.379,2.404,2.4154,2.4164,2.4148,2.3689,2.2744,2.1341,2.0534,2.0283,2.0775,2.0873,0.0,0.0,0.0,2.0258,2.0258,2.008,1.9798,1.9798,1.9145,1.8204,1.8204,1.7634,1.6879,1.6879,1.7034,1.7188,1.6951,1.6879,1.6879,1.6879,1.6879,1.6816,1.6573,1.5718,1.4896,1.4896,1.4048,1.3198,1.3198,1.3198,1.3198,1.3198,1.3198,1.3198,1.3198,1.3198,1.3198,1.3198,1.3198,1.3198,1.3198,1.3198,1.3198,1.3198,1.2753,1.2534,1.273,1.1924,1.1451,1.1626,1.0738,1.0028,0.965,0.984,0.9867,0.9653,1.0033,1.0146,0.9932,1.0166,1.0303,1.0303,1.0303,1.0303,1.0303,1.0478,1.0586,1.4754,1.5907,1.6872,1.6055,1.6544,1.7238,1.7188,1.6541,1.5964,1.6069,1.6009,1.6129,1.6768,1.6616,1.6872,1.8299,1.8864,2.0048,2.2759,2.4016,2.5121,2.6344,2.6054,0.0,2.6616,0.0,0.0,0.0,0.0,2.5508,0.0,2.497,2.4736,2.4736,2.5163,2.5438,2.5584,2.5486,2.4583,2.2871,2.2152,2.1592,2.1249,2.1959,2.2132,0.0,0.0,0.0,2.0944,2.0845,2.042,1.9826,1.9736,1.9032,1.8078,1.8172,1.7814,1.7312,1.7394,1.7727,1.8027,1.7565,1.7435,1.7435,1.7435,1.7435,1.7333,1.6879,1.5972,1.5133,1.5031,1.4221,1.3419,1.3331,1.331,1.3348,1.3348,1.328,1.3233,1.3331,1.334,1.3335,1.3306,1.3306,1.3284,1.3215,1.3198,1.3198,1.3198,1.3198,1.3198,1.3198,1.2801,1.2513,1.2513,1.2155,1.1647,1.0955,1.1109,1.1025,1.062,1.0938,1.0935,1.0544,1.0525,1.0486,1.0409,1.0409,1.038,1.0312,1.0713,1.0908,1.5881,1.744,1.8301,1.6513,1.7021,1.7894,1.7654,1.7068,1.6712,1.7295,1.695,1.6796,1.7574,1.7757,1.8368,2.0188,2.1823,2.3387,2.4848,2.5285,2.5684,2.6397,0.0,2.7306,0.0,0.0,0.0,0.0,0.0,0.0,0.0,2.5329,2.5287,2.5287,2.5356,2.5701,2.6315,2.5806,2.5413,2.51,2.3186,2.2588,2.3126,2.2225,2.1977,0.0,0.0,2.1663,2.152,2.1004,2.0456,1.9902,1.9331,1.848,1.7569,1.8037,1.782,1.7374,1.7827,1.8027,1.8086,1.8007,1.7987,1.7987,1.7987,1.7987,1.7967,1.7887,1.7082,1.6146,1.5697,1.5023,1.4354,1.3903,1.3874,1.3955,1.3955,1.3562,1.3339,1.3861,1.396,1.3934,1.3815,1.3785,1.3665,1.3267,1.3198,1.3198,1.3198,1.3198,1.3198,1.3198,1.3123,1.3073,1.3073,1.3021,1.2933,1.2795,1.2101,1.1662,1.1589,1.1638,1.1645,1.1571,1.1571,1.1338,1.0886,1.0886,1.0687,1.0312,1.0713,1.0908,1.595,1.7217,1.8219,1.7642,1.8782,2.0008,1.9893,1.9059,1.8401,1.8717,1.8252,1.8125,1.9218,1.9177,1.9716,2.1978,2.3997,2.5447,2.6026,2.6434,2.6773,0.0,0.0,0.0,0.0,0.0,0.0,0.0,0.0,0.0,0.0,0.0,2.6587,2.6587,2.6587,2.6573,2.6545,2.5925,2.5444,2.5095,2.4077,2.3429,2.3089,2.2841,2.2844,2.3051,0.0,2.2538,2.223,2.1941,2.1276,2.0421,2.0447,1.9536,1.8243,1.8495,1.8394,1.8243,1.8779,1.8968,1.893,1.8631,1.8535,1.8535,1.8535,1.8535,1.8593,1.8874,1.7969,1.6875,1.6622,1.5825,1.5007,1.4774,1.4149,1.3742,1.42,1.4474,1.45,1.416,1.421,1.4303,1.423,1.4214,1.4149,1.3934,1.3719,1.3581,1.3581,1.3357,1.3198,1.3198,1.3198,1.3198,1.3198,1.3198,1.3198,1.3198,1.2561,1.2174,1.2174,1.1938,1.1792,1.1792,1.1792,1.1682,1.1431,1.1151,1.1011,1.1064,1.121,1.1387,1.6159,1.6967,1.7908,1.8732,1.9974,2.1156,2.1784,2.0786,1.9872,2.0501,1.9974,1.9765,2.0961,2.0991,2.1545,2.3714,2.5615,2.6811,2.6811,2.7285,2.76,2.76,2.76,0.0,0.0,0.0,0.0,0.0,0.0,0.0,0.0,0.0,2.7525,2.7375,2.751,2.7285,2.6602,2.5944,2.5298,2.4679,2.4459,2.3859,2.2934,2.3399,2.3595,2.3595,2.3595,2.3334,2.2897,2.2777,2.205,2.11,2.1393,2.0548,1.9127,1.9141,1.9098,1.9165,1.9745,1.9842,1.9621,1.9225,1.9095,1.9095,1.9095,1.9095,1.9169,1.9584,1.8819,1.7786,1.7552,1.6668,1.5804,1.5622,1.4684,1.3997,1.4664,1.533,1.5541,1.4679,1.4662,1.4775,1.4657,1.4643,1.4611,1.4517,1.4246,1.4016,1.3917,1.3598,1.3323,1.3215,1.3198,1.3198,1.3198,1.3198,1.3198,1.3198,1.2873,1.2668,1.2668,1.2318,1.212,1.212,1.212,1.2066,1.1957,1.167,1.1664,1.1913,1.2088,1.2353,1.7235,1.7639,1.8012,1.9318,1.9271,1.957,2.2059,2.1115,2.0397,2.2817,2.2338,2.1695,2.2418,2.349,2.4515,2.5307,2.6626,2.7525,2.7525,0.0,2.76,2.76,0.0,0.0,0.0,0.0,0.0,0.0,0.0,0.0,0.0,0.0,0.0,2.6701,2.7285,2.7285,2.6602,2.5944,2.5277,2.4596,2.3977,2.3618,2.353,2.3573,2.3595,2.3595,2.3595,2.3573,2.3486,2.292,2.2357,2.1758,2.119,2.0498,1.9832,1.9829,1.9748,1.9743,2.0404,2.0228,1.969,1.9639,1.9639,1.9639,1.9639,1.9639,1.9639,1.969,1.9609,1.9289,1.8295,1.7598,1.6997,1.6318,1.587,1.5629,1.57,1.5768,1.5785,1.5699,1.5699,1.5576,1.5133,1.5058,1.4922,1.4564,1.4485,1.4326,1.395,1.3868,1.3682,1.325,1.3198,1.3198,1.3198,1.3198,1.3198,1.3198,1.3163,1.3146,1.3146,1.3129,1.3112,1.3112,1.3112,1.289,1.2455,1.291,1.2942,1.2555,1.3488,1.3937,1.6398,1.7101,1.7923,1.8852,1.9196,1.9932,2.2179,2.2403,2.2637,2.4477,2.4126,2.3439,2.3281,2.4343,2.5292,2.557,2.6746,2.76,2.76,2.76,2.76,0.0,0.0,0.0,0.0,0.0,0.0,0.0,0.0,0.0,0.0,0.0,0.0,2.6602,2.6437,2.6033,2.5352,2.5098,2.4634,2.3984,2.3729,2.3595,2.3595,2.3595,2.3595,2.3595,2.3595,2.3595,2.3573,2.3341,2.292,2.2336,2.1658,2.1495,2.1553,2.07,2.0372,2.0303,2.0124,1.9899,1.9708,1.9708,1.9708,1.9708,1.9708,1.9708,1.9708,1.9708,1.9708,1.9612,1.92,1.8941,1.8719,1.8444,1.8305,1.8237,1.8231,1.7572,1.6984,1.698,1.6978,1.6929,1.6746,1.6716,1.6684,1.6509,1.6284,1.6057,1.5907,1.5671,1.5449,1.5258,1.4835,1.4206,1.327,1.3198,1.3198,1.3198,1.3198,1.3198,1.3198,1.3198,1.3198,1.3198,1.3198,1.3291,1.3489,1.3354,1.3529,1.3982,1.407,1.4237,1.6069,1.6861,1.7863,1.8521,1.9361,2.0528,2.2538,2.3295,2.4103,2.5869,2.554,2.4822,2.4585,2.5108,2.5745,2.6136,2.6988,2.76,2.76,2.76,0.0,0.0,0.0,0.0,0.0,0.0,0.0,0.0,0.0,0.0,0.0,0.0,0.0,0.0,2.5734,2.5277,2.4619,2.4605,2.4365,2.3924,2.3699,2.3595,2.3595,2.3595,2.3595,2.3595,2.3595,2.3595,2.3595,2.3595,2.3355,2.2927,2.2283,2.2298,2.2568,2.144,2.0882,2.0628,2.0168,1.9887,1.9708,1.9708,1.9708,1.9708,1.9708,1.9708,1.9708,1.9708,1.9708,1.9708,1.9708,1.9708,1.9708,1.9708,1.9715,1.9704,1.9699,1.8767,1.7921,1.7913,1.7806,1.7713,1.7713,1.7713,1.7713,1.7713,1.7471,1.718,1.685,1.6568,1.6421,1.6494,1.6062,1.5207,1.3838,1.3729,1.3579,1.3223,1.3198,1.3209,1.3205,1.3203,1.3193,1.3196,1.3433,1.3747,1.4163,1.4078,1.4409,1.5094,1.4931,1.5017,1.6696,1.7189,1.7878,1.8553,1.975,2.1246,2.3176,2.3625,2.4373,2.7046,2.6527,2.5786,2.6406,2.6009,2.602,2.7303,2.7561,2.7625,2.76,2.76,0.0,0.0,0.0,0.0,0.0,0.0,0.0,0.0,0.0,0.0,0.0,0.0,0.0,0.0,2.5232,2.5247,2.4605,2.459,2.459,2.459,2.3924,2.3595,2.3595,2.3595,2.3595,2.3595,2.3595,2.3595,2.3595,2.3595,2.3595,2.3535,2.2942,2.2703,2.2628,2.1934,2.1276,2.0703,2.0688,2.0258,1.9708,1.9708,1.9708,1.9708,1.9708,1.9708,1.9708,1.9708,1.9708,1.9708,1.9708,1.9708,1.9708,1.9708,1.9708,1.9704,1.971,1.9017,1.8412,1.8423,1.8054,1.7712,1.7712,1.7712,1.7712,1.7712,1.7712,1.7354,1.636,1.6237,1.6309,1.6512,1.6522,1.6095,1.5031,1.4948,1.4462,1.3298,1.3235,1.323,1.3213,1.3216,1.3208,1.3205,1.3927,1.4299,1.4312,1.5242,1.5693,1.5718,1.6237,1.65,1.6696,1.7533,1.8687,1.9821,2.1755,2.3657,2.4747,2.5016,2.5495,2.724,2.6926,2.6503,2.7079,2.7072,2.7057,2.7449,2.7905,2.8091,2.766,0.0,0.0,0.0,0.0,0.0,0.0,0.0,0.0,0.0,0.0,0.0,0.0,0.0,0.0,0.0,2.4343,2.4103,2.3909,2.3909,2.3909,2.3894,2.3699,2.3595,2.3595,2.3595,2.3595,2.3595,2.3595,2.3595,2.3595,2.3595,2.3595,2.358,2.3385,2.3325,2.3191,2.2099,2.1575,2.1276,2.0318,1.9872,1.9708,1.9708,1.9708,1.9708,1.9708,1.9708,1.9708,1.9708,1.9894,2.0124,2.0124,2.0364,2.0464,1.9854,1.9708,1.9696,1.9692,1.9504,1.9316,1.9311,1.9201,1.9106,1.9106,1.9106,1.9106,1.9106,1.9106,1.8994,1.8702,1.8655,1.8682,1.8744,1.8758,1.8618,1.8294,1.8276,1.7491,1.5636,1.5522,1.5062,1.4032,1.4258,1.4007,1.3226,1.4194,1.4845,1.5072,1.5363,1.5761,1.6283,1.6425,1.65,1.7667,1.867,1.9884,2.147,2.3381,2.5284,2.6764,2.6745,2.6617,2.7435,2.7242,2.7216,2.8075,2.8039,2.7929,2.8227,2.8397,2.8286,2.7685,0.0,0.0,0.0,0.0,0.0,0.0,0.0,0.0,0.0,0.0,0.0,0.0,0.0,0.0,0.0,2.3819,2.3595,2.3595,2.3595,2.3595,2.3595,2.3595,2.3595,2.3595,2.3595,2.3595,2.3595,2.3595,2.3595,2.3595,2.3595,2.3595,2.3595,2.3595,2.3445,2.3116,2.2084,2.1695,2.1545,2.0468,2.0094,2.0094,2.0094,1.9914,1.9708,1.9708,1.9708,1.9708,1.9708,1.9982,2.0297,2.0297,2.0649,2.0862,2.0345,2.0208,2.0208,2.0208,2.0137,2.005,2.005,1.9871,1.9708,1.9708,1.9708,1.9708,1.9708,1.9708,1.9708,1.9708,1.9708,1.9708,1.9708,1.9708,1.9708,1.9708,1.9708,1.9151,1.7847,1.6972,1.6099,1.5221,1.5419,1.5207,1.4523,1.5193,1.5643,1.584,1.584,1.6082,1.65,1.65,1.6635,1.9076,2.0139,2.1181,2.3191,2.4734,2.6426,2.893,2.8575,2.776,2.776,2.7716,2.8042,2.9256,2.8928,2.8688,2.9294,2.888,2.8295,2.7685,0.0,0.0,0.0,0.0,0.0,0.0,0.0,0.0,0.0,0.0,0.0,0.0,0.0,0.0,2.3625,2.3595,2.3595,2.3595,2.3595,2.3595,0.0,2.3595,2.3595,2.3595,2.3595,2.3595,2.3595,2.3595,2.3595,2.3595,2.3595,2.3595,2.3595,2.3659,2.3335,2.2786,2.2149,2.1908,2.1759,2.114,2.0873,2.0797,2.0854,2.037,1.9798,1.9837,1.9792,1.9764,1.98,2.0122,2.0433,2.0433,2.0764,2.1118,2.1118,2.1071,2.0991,2.0975,2.0763,2.058,2.053,2.0083,1.9708,1.9708,1.9708,1.9708,1.9708,1.9708,1.9708,1.9708,1.9708,1.9708,1.9708,1.9708,1.9708,1.9708,1.9708,1.9708,1.9708,1.7867,1.6795,1.6795,1.6602,1.6409,1.6189,1.6408,1.6493,1.65,1.65,1.6525,1.6609,1.6597,1.6911,1.8506,1.9794,2.1286,2.3767,2.6131,2.8255,2.9773,2.954,2.9019,2.9019,2.9007,2.9214,2.9962,2.961,2.9214,2.939,2.8902,2.8276,0.0,0.0,0.0,0.0,0.0,0.0,0.0,0.0,0.0,0.0,0.0,0.0,0.0,0.0,0.0,2.3625,2.3595,2.3595,2.3595,2.3595,2.3595,0.0,2.3595,2.3595,2.3595,2.3595,2.3595,2.3595,2.3595,2.3595,2.3595,2.3595,2.3595,2.3638,2.4053,2.4148,2.4009,2.3761,2.3396,2.2995,2.276,2.2136,2.1549,2.1911,2.1318,2.0539,2.0849,2.0591,2.0261,2.0615,2.1007,2.1321,2.1321,2.1675,2.202,2.202,2.1508,2.0942,2.073,2.0647,2.0462,1.9995,1.9782,1.9708,1.9708,1.9708,1.9708,1.9708,1.9708,1.9708,1.9708,1.9708,1.9708,1.9708,1.9708,1.9708,1.9708,1.9708,1.9708,1.9708,1.9262,1.9006,1.9006,1.7383,1.5678,1.3935,1.5612,1.6489,1.65,1.65,1.6794,1.7374,1.7257,1.7488,1.8179,1.969,2.1532,2.5058,2.7458,2.9248,3.0456,3.0477,3.0251,3.0251,3.0038,2.993,3.0251,3.0272,3.0081,2.9496,2.9139,2.8615,0.0,0.0,0.0,0.0,0.0,0.0,0.0,0.0,0.0,0.0,0.0,0.0,0.0,2.4291,2.3969,2.361,2.3595,2.3595,2.3595,2.3595,2.373,2.397,2.3709,2.3595,2.3595,2.3595,2.3595,2.3595,2.3595,2.3595,2.3595,2.3595,2.3595,2.3659,2.4199,2.4208,2.3927,2.414,2.4015,2.3781,2.3711,2.3343,2.2928,2.318,2.2413,2.1421,2.1604,2.1185,2.0682,2.0926,2.1291,2.1597,2.1597,2.1943,2.2296,2.2296,2.1945,2.1569,2.1432,2.1416,2.1323,2.1023,2.0277,1.9962,2.0797,2.026,1.9708,1.9708,1.9708,1.9708,1.9708,1.9708,1.9708,1.9708,1.9708,1.9708,1.9708,1.9708,1.9708,1.9708,1.9708,1.9708,1.9708,1.8631,1.701,1.4833,1.5906,1.65,1.65,1.7052,1.7425,1.7612,1.7723,1.8078,1.758,1.951,2.1864,2.6027,2.8158,2.9518,3.0617,3.103,3.119,3.119,3.0801,3.0456,3.0456,3.0777,3.072,2.9717,2.9461,0.0,0.0,0.0,0.0,0.0,0.0,0.0,0.0,0.0,0.0,0.0,0.0,0.0,2.4455,2.3996,2.3702,2.3595,2.3595,2.3638,2.3745,2.3745,2.4012,2.4532,2.4095,2.3879,2.3879,2.3773,2.3702,2.3595,2.3595,2.3595,2.3595,2.3702,2.3745,2.3794,2.443,2.4331,2.3906,2.4432,2.4576,2.4521,2.4596,2.4521,2.4393,2.4485,2.3581,2.2436,2.239,2.1875,2.1279,2.1246,2.1461,2.1718,2.1718,2.2017,2.2296,2.2296,2.2296,2.2296,2.2296,2.2296,2.2296,2.2296,2.115,2.0599,2.2049,2.1103,2.0154,2.0154,1.9892,1.9708,1.9708,1.9708,1.9708,1.9708,1.9708,1.9708,1.9708,1.9708,1.9708,1.9708,1.9708,1.9708,1.9708,1.9708,1.8874,1.7097,1.7055,1.6879,1.65,1.7454,1.7929,1.7971,1.8199,1.8581,1.5919,1.8824,2.2234,2.5051,2.7147,2.8699,2.9411,3.0406,3.119,3.119,3.1151,3.1075,3.1075,3.072,3.0372,3.0208,2.974,0.0,0.0,0.0,0.0,0.0,0.0,0.0,0.0,0.0,0.0,0.0,0.0,0.0,2.3818,2.4094,2.4074,2.3616,2.3595,2.3815,2.4287,2.4287,2.4572,2.5105,2.5028,2.4989,2.4969,2.4511,2.4032,2.3595,2.3595,2.3595,2.3638,2.4095,2.4287,2.4389,2.5392,2.5731,2.5704,2.6199,2.6112,2.5812,2.6233,2.5796,2.5134,2.5613,2.4932,2.3869,2.3569,2.3014,2.2418,2.2187,2.2166,2.2209,2.2209,2.2237,2.2296,2.2296,2.2296,2.2296,2.2296,2.2296,2.2296,2.2296,2.2106,2.2034,2.2268,2.2123,2.1945,2.1945,2.0665,1.9708,1.9708,1.9708,1.9708,1.9708,1.9708,1.9708,1.9708,1.9708,1.9708,1.9708,1.9708,1.9708,1.9708,1.9708,1.9566,1.9281,1.9262,1.8361,1.65,1.6644,1.7676,1.9492,1.8901,1.902,1.6278,1.8957,2.1762,2.4302,2.5864,2.71,2.8378,2.9134,2.9716,3.0439,3.0581,3.0717,3.1123,3.0995,3.0699,3.0335,3.0076,0.0,0.0,0.0,0.0,0.0,0.0,0.0,0.0,0.0,0.0,0.0,0.0,2.6127,2.4594,2.4732,2.4736,2.4511,2.4491,2.4612,2.4851,2.4835,2.4969,2.5202,2.5486,2.5486,2.5202,2.4969,2.4552,2.4032,2.373,2.3773,2.4074,2.4307,2.4572,2.4914,2.5689,2.6013,2.6067,2.6539,2.6573,2.6419,2.6641,2.6402,2.6087,2.6332,2.5762,2.4961,2.4813,2.4276,2.3635,2.3247,2.3139,2.3004,2.2448,2.2296,2.2296,2.2296,2.2296,2.2753,2.4408,2.3477,2.2296,2.2296,2.2296,2.2296,2.2296,2.2296,2.2854,2.4526,2.2714,2.1334,2.1818,2.1874,2.1306,1.9857,1.9708,1.9708,1.9708,1.9708,1.9708,1.9708,1.9708,1.9708,1.9708,1.9708,1.9708,1.9708,1.9708,1.9244,1.8302,1.9754,2.0251,1.9786,1.947,1.9497,1.6383,1.8347,2.0161,2.2786,2.4307,2.5611,2.726,2.8044,2.8684,2.961,2.9973,3.0226,3.0565,3.0784,3.0766,3.0314,3.0253,0.0,0.0,0.0,0.0,0.0,0.0,0.0,0.0,0.0,0.0,0.0,0.0,2.6794,2.5285,2.5335,2.5335,2.5186,2.5202,2.5278,2.5392,2.5524,2.558,2.5598,2.5997,2.5979,2.558,2.5468,2.5182,2.4792,2.4225,2.4158,2.443,2.4692,2.5047,2.5449,2.5979,2.6191,2.6227,2.6573,2.6691,2.6691,2.6691,2.6691,2.6691,2.6691,2.6336,2.5879,2.5879,2.549,2.4914,2.4186,2.3983,2.3712,2.2584,2.2296,2.2482,2.3241,2.3412,2.3816,2.527,2.3849,2.2296,2.2296,2.2296,2.2533,2.3291,2.2801,2.3294,2.6251,2.4831,2.3653,2.4311,2.4394,2.3639,2.1695,2.1002,2.0427,1.9768,2.0322,2.0696,2.0696,2.0696,2.0696,2.0696,2.0696,2.0696,2.0696,2.0696,2.0696,2.0711,2.2652,2.2629,2.0752,2.0101,1.9798,1.5238,1.6107,1.701,1.9831,2.2457,2.4673,2.5857,2.7587,2.8991,2.9044,2.96,2.9905,2.9247,2.9685,3.0156,3.0121,0.0,0.0,0.0,0.0,0.0,0.0,0.0,0.0,0.0,0.0,0.0,0.0,0.0,2.7025,2.5291,2.567,2.5742,2.5221,2.5202,2.5449,2.5943,2.6401,2.6607,2.6607,2.6657,2.6657,2.6607,2.6157,2.5943,2.5888,2.5354,2.4835,2.4491,2.5503,2.5924,2.6013,2.647,2.6657,2.6674,2.6691,2.6691,2.6691,2.6691,2.6691,2.6691,2.6691,2.6674,2.664,2.664,2.6607,2.6285,2.4863,2.4457,2.4135,2.2682,2.2296,2.3021,2.5812,2.6471,2.5744,2.3105,2.2398,2.2296,2.2296,2.2296,2.319,2.5981,2.4154,2.3294,2.6251,2.6573,2.6488,2.6539,2.6539,2.6488,2.6337,2.4559,2.2383,1.9917,2.1964,2.34,2.34,2.34,2.34,2.34,2.34,2.34,2.34,2.34,2.34,2.34,2.3535,2.3537,2.3325,2.0926,1.9798,1.4757,1.609,1.7518,1.8873,2.0685,2.242,2.3554,2.5109,2.6531,2.735,2.8112,2.8534,2.828,2.9244,2.9956,2.9465,0.0,0.0,0.0,0.0,0.0,0.0,0.0,0.0,0.0,0.0,0.0,0.0,0.0,0.0,2.6242,2.6784,2.6852,2.6175,2.6158,2.6263,2.6436,2.6624,2.6691,2.6691,2.6691,2.6691,2.6691,2.6539,2.6279,2.6013,2.6122,2.5873,2.5465,2.5852,2.6191,2.647,2.6641,2.6691,2.6691,2.6691,2.6691,2.6691,2.6691,2.6691,2.6691,2.6691,2.6691,2.6691,2.6691,2.6691,2.6589,2.6065,2.5912,2.5794,2.5253,2.5118,2.5389,2.6437,2.6691,2.6404,2.5355,2.5118,2.5118,2.5118,2.5118,2.5456,2.6522,2.5812,2.5473,2.6539,2.6691,2.6691,2.6691,2.6691,2.6691,2.6691,2.6035,2.5214,2.4256,2.3836,2.3595,2.3595,2.3595,2.3595,2.3595,2.3595,2.3595,2.3595,2.3595,2.3595,2.3595,2.3595,2.3595,2.3573,2.2674,2.2248,1.4122,1.5479,1.7149,1.8267,1.9305,2.0549,2.2448,2.3817,2.5013,2.6101,2.7097,2.7722,2.7469,2.8466,2.9178,2.867,0.0,0.0,0.0,0.0,0.0,0.0,0.0,0.0,0.0,0.0,0.0,0.0,0.0,0.0,2.7131,2.73,2.7215,2.6708,2.6691,2.6691,2.6691,2.6691,2.6691,2.6691,2.6691,2.6691,2.6691,2.6691,2.6539,2.6262,2.6556,2.6436,2.6013,2.6174,2.6419,2.6691,2.6691,2.6691,2.6691,2.6691,2.6691,2.6691,2.6691,2.6691,2.6691,2.6691,2.6691,2.6691,2.6691,2.6691,2.6691,2.6691,2.6691,2.6691,2.6691,2.6691,2.6691,2.6691,2.6691,2.6691,2.6691,2.6691,2.6691,2.6691,2.6691,2.6691,2.6691,2.6691,2.6691,2.6691,2.6691,2.6691,2.6691,2.6691,2.6691,2.6691,2.6691,2.6691,2.6691,2.48,2.3595,2.3595,2.3595,2.3595,2.3595,2.3595,2.3595,2.3595,2.3595,2.3595,2.3595,2.3595,2.3595,2.3595,2.3595,2.3595,0.0,0.0,0.0,1.7786,1.8326,1.9207,2.2493,2.3831,2.4592,2.5372,2.6691,2.7503,2.6826,2.7266,2.7773,2.7773,0.0,0.0,0.0,0.0,0.0,0.0,0.0,0.0,0.0,0.0,0.0,0.0,0.0,2.7824,2.7807,2.7097,2.6691,2.6691,2.6691,2.6691,2.6691,2.6691,2.6691,2.6691,2.6691,2.6691,2.6691,2.6691,2.6691,2.6691,2.6691,2.6436,2.6067,2.6505,2.6691,2.6691,2.6691,2.6691,2.6691,2.6691,2.6691,2.6691,2.6691,2.6691,2.6691,2.6691,2.6691,2.6691,2.6691,2.6691,2.6691,2.6691,2.6691,2.6691,2.6691,2.6691,2.6691,2.6691,2.6691,2.6691,2.6691,2.6691,2.6691,2.6691,2.6691,2.6691,2.6691,2.6691,2.6691,2.6691,2.6691,2.6691,2.6691,2.6691,2.6691,2.6691,2.6691,2.6691,2.6691,2.4859,2.3659,2.3595,2.3659,2.3659,2.3595,2.3595,2.3595,2.3595,2.3595,2.3595,2.3595,2.3595,2.3595,2.3595,2.3595,2.3595,1.4019,0.0,0.0,0.0,0.0,0.0,1.9022,2.0318,2.1772,2.363,2.4746,2.5676,2.6539,2.686,2.6996,2.6996,0.0,0.0,0.0,0.0,0.0,0.0,0.0,0.0,0.0,0.0,0.0,0.0,2.9211,2.8416,2.7841,2.7097,2.6691,2.6691,2.6691,2.6691,2.6691,2.6691,2.6691,2.6691,2.6691,2.6691,2.6691,2.6691,2.6691,2.6691,2.6691,2.6624,2.6521,2.6657,2.6691,2.6691,2.6691,2.6691,2.6691,2.6691,2.6691,2.6691,2.6691,2.6691,2.6691,2.6691,2.6691,2.6691,2.6691,2.6691,2.6691,2.6691,2.6691,2.6691,2.6691,2.6691,2.6691,2.6691,2.6691,2.6691,2.6691,2.6691,2.6691,2.6691,2.6691,2.6691,2.6691,2.6691,2.6691,2.6691,2.6691,2.6691,2.6691,2.6691,2.6691,2.6691,2.6691,2.6691,2.6691,2.6176,2.5208,2.3702,2.5015,2.517,2.3659,2.3595,2.3595,2.3595,2.3595,2.3595,2.3595,2.3595,2.3595,2.3595,2.3595,2.3595,1.4626,1.55,1.6671,1.6542,0.0,0.0,1.8341,1.9135,2.0183,0.0,2.3528,2.4406,2.5574,2.6031,2.6234,2.6234,0.0,0.0,0.0,0.0,0.0,0.0,0.0,0.0,0.0,0.0,0.0,2.9651,2.8924,2.8163,2.7367,2.6928,2.6691,2.6691,2.6691,2.6691,2.6691,2.6691,2.6691,2.6691,2.6691,2.6691,2.6691,2.6691,2.6691,2.6691,2.6691,2.6691,2.6691,2.6691,2.6691,2.6691,2.6691,2.6691,2.6691,2.6691,2.6691,2.6691,2.6691,2.6691,2.6691,2.6691,2.6691,2.6691,2.6691,2.6691,2.6691,2.6691,2.6691,2.6691,2.6691,2.6691,2.6691,2.6691,2.6691,2.6691,2.6691,2.6691,2.6691,2.6691,2.6691,2.6691,2.6691,2.6691,2.6691,2.6691,2.6691,2.6691,2.6691,2.6691,2.6691,2.6691,2.6691,2.6691,2.6691,2.6691,2.6177,2.4976,2.6035,2.6158,2.4941,2.4059,2.3595,2.3595,2.3595,2.3595,2.3595,2.3595,2.3595,2.3595,2.3595,2.3595,1.5403,1.5973,1.7077,1.7648,1.6813,0.0,1.8949,1.9118,1.9384,0.0,2.2513,2.3274,2.4101,2.4847,2.5338,2.5237,0.0,0.0,0.0,0.0,0.0,0.0,0.0,0.0,0.0,2.9989,2.9702,2.9044,2.8264,2.7486,2.6742,2.6691,2.6691,2.6691,2.6691,2.6691,2.6691,2.6691,2.6691,2.6691,2.6691,2.6691,2.6691,2.6691,2.6691,2.6691,2.6691,2.6691,2.6691,2.6691,2.6691,2.6691,2.6691,2.6691,2.6691,2.6691,2.6691,2.6691,2.6691,2.6691,2.6708,2.6758,2.6741,2.6691,2.6691,2.6824,2.6922,2.6758,2.6691,2.6691,2.6691,2.6691,2.6691,2.6691,2.6691,2.6691,2.6691,2.6691,2.6691,2.6691,2.6691,2.6691,2.6691,2.6691,2.6691,2.6691,2.6691,2.6691,2.6691,2.6691,2.6691,2.6691,2.6691,2.6691,2.6691,2.6691,2.6691,2.6691,2.6691,2.6691,2.6691,2.4701,2.3595,2.3595,2.3595,2.3595,2.3595,2.3595,2.3595,2.3595,2.3595,2.3759,1.74,1.7864,1.8352,1.7901,1.758,0.0,1.661,1.727,1.8318,0.0,2.0149,2.1096,2.2465,2.3325,2.363,2.304,0.0,0.0,0.0,0.0,0.0,0.0,0.0,0.0,0.0,2.9213,2.9162,2.901,2.8264,2.7486,2.6742,2.6691,2.6691,2.6691,2.6691,2.6691,2.6691,2.6691,2.6691,2.6691,2.6691,2.6691,2.6691,2.6691,2.6691,2.6691,2.6691,2.6691,2.6691,2.6691,2.6691,2.6691,2.6691,2.6691,2.6691,2.6691,2.6691,2.6691,2.6691,2.6691,2.6758,2.7083,2.6954,2.6691,2.6691,2.7572,2.829,2.7051,2.6691,2.6691,2.6691,2.6691,2.6691,2.6691,2.6691,2.6691,2.6691,2.6691,2.6691,2.6691,2.6691,2.6691,2.6691,2.6691,2.6691,2.6691,2.6691,2.6691,2.6691,2.6691,2.6691,2.6691,2.6691,2.6691,2.6691,2.6691,2.6691,2.6691,2.6691,2.6691,2.6691,2.4701,2.3595,2.3595,2.3595,2.3595,2.3595,2.3595,2.3595,2.3595,2.3595,2.4769,1.8629,1.891,1.9355,1.9,1.8341,0.0,0.0,1.7253,1.7676,1.9135,1.9439,1.9913,2.1465,2.2361,2.2733,2.2347,0.0,0.0,0.0,0.0,0.0,0.0,0.0,0.0,0.0,2.8773,2.884,2.8433,2.7689,2.7097,2.6708,2.6691,2.6691,2.6691,2.6691,2.6691,2.6691,2.6691,2.6691,2.6691,2.6691,2.6691,2.6691,2.6691,2.6691,2.6691,2.6691,2.6808,2.6971,2.6774,2.6939,2.7272,2.6857,2.6824,2.6987,2.6987,2.7035,2.7115,2.7257,2.7361,2.7465,2.7574,2.7454,2.727,2.7147,2.7988,2.8839,2.8057,2.7284,2.689,2.766,2.7848,2.7848,2.7848,2.7253,2.6691,2.6691,2.6691,2.6691,2.6691,2.6691,2.6691,2.6691,2.6691,2.6691,2.6691,2.6691,2.6691,2.6691,2.6691,2.6691,2.6691,2.6691,2.6691,2.6691,2.6691,2.6691,2.6691,2.6691,2.6691,2.6691,2.5711,2.4661,2.3616,2.3595,2.3595,2.3595,2.3595,2.3595,2.3625,2.4956,2.6327,1.9617,1.9895,2.0447,2.009,1.9338,1.8628,0.0,0.0,0.0,1.9051,1.9,0.0,0.0,0.0,0.0,0.0,0.0,0.0,0.0,0.0,0.0,0.0,0.0,0.0,0.0,2.7841,2.7994,2.7621,2.6776,2.6403,2.6674,2.6691,2.6691,2.6691,2.6691,2.6691,2.6691,2.6691,2.6691,2.6691,2.6691,2.6691,2.6691,2.6691,2.6741,2.6825,2.6825,2.7035,2.7378,2.7067,2.7301,2.784,2.7099,2.7051,2.7426,2.7426,2.7485,2.7604,2.7808,2.8006,2.8125,2.8034,2.7978,2.7936,2.7823,2.8143,2.862,2.8917,2.789,2.7067,2.8596,2.9005,2.9005,2.9005,2.8057,2.7145,2.7145,2.7145,2.7145,2.7145,2.6889,2.6691,2.6691,2.6691,2.6691,2.6691,2.6691,2.6691,2.6691,2.6691,2.6691,2.6691,2.6691,2.6691,2.6691,2.6691,2.6691,2.6691,2.6691,2.6691,2.6691,2.6691,2.5911,2.4225,2.4775,2.4791,2.4204,2.4204,2.3991,2.3655,2.6357,2.76,2.0846,2.1564,2.201,0.0,2.091,2.094,0.0,0.0,1.8347,1.7281,0.0,0.0,0.0,0.0,0.0,0.0,0.0,0.0,0.0,0.0,0.0,0.0,0.0,0.0,0.0,0.0,2.5523,2.6725,2.554,2.532,2.6623,2.6691,2.6691,2.6691,2.6691,2.6691,2.6691,2.6691,2.6691,2.6691,2.6691,2.6691,2.6691,2.6691,2.689,2.7241,2.7241,2.7454,2.784,2.7779,2.7826,2.7855,2.7411,2.747,2.784,2.784,2.784,2.7869,2.7897,2.7911,2.7978,2.8264,2.8259,2.8246,2.8682,2.796,2.7255,2.862,2.789,2.7067,2.8596,2.9005,2.9005,2.9005,2.8881,2.8737,2.8737,2.8737,2.8737,2.8737,2.7646,2.6691,2.6691,2.6691,2.6691,2.6691,2.6691,2.6691,2.6691,2.6691,2.6691,2.6691,2.6691,2.6691,2.6691,2.6691,2.6691,2.6691,2.6691,2.6691,2.6691,2.6691,2.659,2.6351,2.898,2.9013,2.635,2.635,2.5398,2.3655,2.6357,2.76,2.0721,0.0,0.0,0.0,0.0,0.0,1.8533,0.0,1.82,0.0,0.0,0.0,0.0,0.0,0.0,0.0,1.9862,0.0,0.0,0.0,0.0,0.0,0.0,0.0,0.0,0.0,0.0,0.0,0.0,2.4965,2.6015,2.6471,2.6691,2.6691,2.6691,2.6691,2.6691,2.6691,2.6691,2.6708,2.6939,2.7051,2.7051,2.7303,2.7485,2.7648,2.7648,2.7851,2.8183,2.7982,2.8147,2.8495,2.8098,2.8043,2.8197,2.8197,2.8347,2.8551,2.8551,2.8551,2.8558,2.8713,2.8707,2.8713,2.8929,2.8558,2.8166,2.8815,2.8527,2.8179,2.8827,2.9005,2.9005,2.9005,2.9005,2.9005,2.9005,2.9005,2.9005,2.9005,2.8476,2.8029,2.8029,2.7284,2.6691,2.6691,2.6691,2.6691,2.6691,2.6691,2.6691,2.6691,2.6691,2.6691,2.6691,2.6691,2.6691,2.6691,2.6691,2.6691,2.6691,2.6691,2.752,2.9279,3.0548,3.0581,2.9313,2.9313,2.8851,2.8001,2.7718,2.76,2.1003,0.0,0.0,0.0,0.0,0.0,0.0,0.0,0.0,0.0,0.0,0.0,0.0,0.0,1.9147,1.8927,0.0,1.9478,0.0,0.0,0.0,0.0,0.0,0.0,0.0,0.0,0.0,0.0,0.0,0.0,2.5525,2.6116,2.6488,2.6691,2.6691,2.6758,2.6857,2.6857,2.6923,2.7019,2.7317,2.7454,2.747,2.7768,2.7954,2.8034,2.8034,2.8237,2.854,2.8308,2.8507,2.8964,2.8682,2.8565,2.8565,2.8565,2.8749,2.9005,2.9005,2.9005,2.9005,2.9005,2.9005,2.9005,2.9005,2.9005,2.9005,2.9005,2.9005,2.9005,2.9005,2.9005,2.9005,2.9005,2.9005,2.9005,2.9005,2.9005,2.9005,2.9005,2.9005,2.9005,2.9005,2.7733,2.6691,2.6691,2.6691,2.6691,2.6691,2.6691,2.6691,2.6691,2.6691,2.6691,2.6691,2.6691,2.7046,2.7875,2.7926,2.7926,2.7926,2.7926,2.8958,3.1157,3.119,3.119,3.119,3.119,3.119,3.1151,2.8725,2.76,0.0,0.0,0.0,2.0496,0.0,0.0,0.0,0.0,1.9349,0.0,0.0,0.0,0.0,1.9951,1.9727,1.9012,1.9524,0.0,0.0,0.0,0.0,0.0,0.0,0.0,0.0,0.0,0.0,0.0,0.0,0.0,2.5456,2.5625,2.5964,2.6674,2.6691,2.689,2.7288,2.7288,2.7487,2.7869,2.7883,2.7883,2.7883,2.7897,2.8075,2.8376,2.8376,2.8602,2.8982,2.897,2.8982,2.9005,2.8994,2.8982,2.8982,2.8982,2.8994,2.9005,2.9005,2.9005,2.9005,2.9005,2.9005,2.9005,2.9005,2.9005,2.9005,2.9005,2.9005,2.9005,2.9005,2.9005,2.9005,2.9005,2.9005,2.9005,2.9005,2.9005,2.9005,2.9005,2.9005,2.9005,2.9005,2.7733,2.6691,2.6691,2.6691,2.6691,2.6691,2.6691,2.6691,2.6691,2.6691,2.6691,2.6691,2.6691,2.7943,3.0869,3.1055,3.1055,3.1055,3.1055,3.1089,3.119,3.119,3.119,3.119,3.119,3.119,3.1151,2.8725,2.76,0.0,0.0,2.2971,2.119,0.0,0.0,0.0,0.0,0.0,0.0,0.0,0.0,0.0,2.0002,1.9761,1.9012,1.9113,1.8758,0.0,0.0,0.0,0.0,0.0,0.0,0.0,0.0,0.0,0.0,0.0,0.0,0.0,2.5268,2.6073,2.636,2.6841,2.7303,2.7692,2.771,2.7768,2.7911,2.8129,2.8237,2.8237,2.8507,2.8688,2.8803,2.8803,2.8863,2.9005,2.9005,2.9005,2.9005,2.9005,2.9005,2.9005,2.9005,2.9005,2.9005,2.9005,2.9005,2.9005,2.9005,2.9005,2.9005,2.9005,2.9005,2.9005,2.9005,2.9005,2.9005,2.9005,2.9005,2.9005,2.9005,2.9005,2.9005,2.9005,2.9005,2.9005,2.9005,2.9005,2.9684,3.1812,3.1742,3.0679,2.8542,2.7346,2.6691,2.6691,2.6691,2.6691,2.6691,2.6691,2.6691,2.6691,2.8518,3.0108,3.114,3.119,3.119,3.119,3.119,3.119,3.119,3.119,3.119,3.119,3.119,3.119,3.1171,3.0356,2.9983,2.2383,2.2904,0.0,2.1725,2.1309,0.0,1.9296,0.0,0.0,0.0,0.0,0.0,0.0,2.0961,2.0281,1.9802,1.9261,1.8482,0.0,1.7094,0.0,0.0,0.0,1.9183,0.0,0.0,2.0221,2.1415,2.16,0.0,0.0,0.0,2.6042,2.6368,2.7116,2.7692,2.8075,2.8075,2.8161,2.8281,2.8502,2.8602,2.8633,2.8875,2.9005,2.9005,2.9005,2.9005,2.9005,2.9005,2.9005,2.9005,2.9005,2.9005,2.9005,2.9005,2.9005,2.9005,2.9005,2.9005,2.9005,2.9005,2.9005,2.9005,2.9005,2.9005,2.9005,2.9005,2.9005,2.9005,2.9005,2.9005,2.9005,2.9005,2.9005,2.9005,2.9005,2.9005,2.9335,3.0473,3.0711,3.1372,3.344,3.3807,3.3109,3.1023,2.9858,2.923,2.923,2.8681,2.8298,2.8298,2.8298,2.8298,2.8298,3.0074,3.119,3.119,3.119,3.119,3.119,3.119,3.119,3.119,3.119,3.119,3.119,3.119,3.119,3.119,3.119,3.119]}]]